<?xml version="1.0" encoding="UTF-8" standalone="no" ?>
<gpx xmlns="http://www.topografix.com/GPX/1/1" xmlns:xsi="http://www.w3.org/2001/XMLSchema-instance" xsi:schemaLocation="http://www.topografix.com/GPX/1/1 http://www.topografix.com/GPX/1/1/gpx.xsd" version="1.1" creator="VisuGPX - https://www.visugpx.com">
  <metadata>
    <name>Les Arcs</name>
    <desc><![CDATA[départ d'Aime]]></desc>
  </metadata>
  <wpt lat="38.85555" lon="-94.79902">
    <ele>325.04907226562</ele>
    <name><![CDATA[GARMIN]]></name>
    <type><![CDATA[user]]></type>
  </wpt>
  <wpt lat="50.98288" lon="-1.4639">
    <ele>35.934692382812</ele>
    <name><![CDATA[GRMEUR]]></name>
    <type><![CDATA[user]]></type>
  </wpt>
  <wpt lat="25.06178" lon="121.64027">
    <ele>38.09765625</ele>
    <name><![CDATA[GRMTWN]]></name>
    <type><![CDATA[user]]></type>
  </wpt>
  <trk>
    <name><![CDATA[17]]></name>
    <trkseg>
      <trkpt lat="45.55606" lon="6.66144">
        <ele>674.50219726562</ele>
        <time>2016-05-22T07:33:21Z</time>
      </trkpt>
      <trkpt lat="45.55606" lon="6.66145">
        <ele>674.98291015625</ele>
        <time>2016-05-22T07:33:22Z</time>
      </trkpt>
      <trkpt lat="45.55607" lon="6.66145">
        <ele>674.98291015625</ele>
        <time>2016-05-22T07:33:23Z</time>
      </trkpt>
      <trkpt lat="45.55608" lon="6.66147">
        <ele>674.50219726562</ele>
        <time>2016-05-22T07:33:25Z</time>
      </trkpt>
      <trkpt lat="45.5561" lon="6.66148">
        <ele>674.50219726562</ele>
        <time>2016-05-22T07:33:26Z</time>
      </trkpt>
      <trkpt lat="45.55616" lon="6.66142">
        <ele>675.46337890625</ele>
        <time>2016-05-22T07:33:30Z</time>
      </trkpt>
      <trkpt lat="45.55625" lon="6.6614">
        <ele>674.50219726562</ele>
        <time>2016-05-22T07:33:34Z</time>
      </trkpt>
      <trkpt lat="45.55632" lon="6.66152">
        <ele>674.98291015625</ele>
        <time>2016-05-22T07:33:37Z</time>
      </trkpt>
      <trkpt lat="45.55655" lon="6.66189">
        <ele>674.98291015625</ele>
        <time>2016-05-22T07:33:44Z</time>
      </trkpt>
      <trkpt lat="45.55665" lon="6.66215">
        <ele>675.46337890625</ele>
        <time>2016-05-22T07:33:48Z</time>
      </trkpt>
      <trkpt lat="45.55668" lon="6.6623">
        <ele>675.94409179688</ele>
        <time>2016-05-22T07:33:50Z</time>
      </trkpt>
      <trkpt lat="45.5568" lon="6.66288">
        <ele>674.50219726562</ele>
        <time>2016-05-22T07:33:58Z</time>
      </trkpt>
      <trkpt lat="45.55693" lon="6.66354">
        <ele>676.90551757812</ele>
        <time>2016-05-22T07:34:07Z</time>
      </trkpt>
      <trkpt lat="45.55698" lon="6.66383">
        <ele>676.4248046875</ele>
        <time>2016-05-22T07:34:12Z</time>
      </trkpt>
      <trkpt lat="45.55707" lon="6.66402">
        <ele>676.4248046875</ele>
        <time>2016-05-22T07:34:17Z</time>
      </trkpt>
      <trkpt lat="45.5571" lon="6.66406">
        <ele>675.94409179688</ele>
        <time>2016-05-22T07:34:18Z</time>
      </trkpt>
      <trkpt lat="45.55727" lon="6.66441">
        <ele>677.38623046875</ele>
        <time>2016-05-22T07:34:24Z</time>
      </trkpt>
      <trkpt lat="45.55749" lon="6.66475">
        <ele>678.828125</ele>
        <time>2016-05-22T07:34:30Z</time>
      </trkpt>
      <trkpt lat="45.55759" lon="6.66492">
        <ele>679.30859375</ele>
        <time>2016-05-22T07:34:33Z</time>
      </trkpt>
      <trkpt lat="45.5578" lon="6.66526">
        <ele>679.30859375</ele>
        <time>2016-05-22T07:34:39Z</time>
      </trkpt>
      <trkpt lat="45.55815" lon="6.66574">
        <ele>680.27001953125</ele>
        <time>2016-05-22T07:34:48Z</time>
      </trkpt>
      <trkpt lat="45.55831" lon="6.66595">
        <ele>680.75073242188</ele>
        <time>2016-05-22T07:34:52Z</time>
      </trkpt>
      <trkpt lat="45.55839" lon="6.66602">
        <ele>680.27001953125</ele>
        <time>2016-05-22T07:34:54Z</time>
      </trkpt>
      <trkpt lat="45.55863" lon="6.66631">
        <ele>680.75073242188</ele>
        <time>2016-05-22T07:35:00Z</time>
      </trkpt>
      <trkpt lat="45.55871" lon="6.66638">
        <ele>681.2314453125</ele>
        <time>2016-05-22T07:35:02Z</time>
      </trkpt>
      <trkpt lat="45.55892" lon="6.66663">
        <ele>681.7119140625</ele>
        <time>2016-05-22T07:35:07Z</time>
      </trkpt>
      <trkpt lat="45.55906" lon="6.66698">
        <ele>681.7119140625</ele>
        <time>2016-05-22T07:35:12Z</time>
      </trkpt>
      <trkpt lat="45.55917" lon="6.66778">
        <ele>682.67333984375</ele>
        <time>2016-05-22T07:35:22Z</time>
      </trkpt>
      <trkpt lat="45.55929" lon="6.6684">
        <ele>683.15380859375</ele>
        <time>2016-05-22T07:35:30Z</time>
      </trkpt>
      <trkpt lat="45.55954" lon="6.66901">
        <ele>684.11547851562</ele>
        <time>2016-05-22T07:35:39Z</time>
      </trkpt>
      <trkpt lat="45.55974" lon="6.66946">
        <ele>685.07690429688</ele>
        <time>2016-05-22T07:35:46Z</time>
      </trkpt>
      <trkpt lat="45.55993" lon="6.66996">
        <ele>686.0380859375</ele>
        <time>2016-05-22T07:35:53Z</time>
      </trkpt>
      <trkpt lat="45.5601" lon="6.67046">
        <ele>686.99926757812</ele>
        <time>2016-05-22T07:36:00Z</time>
      </trkpt>
      <trkpt lat="45.56025" lon="6.67077">
        <ele>686.51879882812</ele>
        <time>2016-05-22T07:36:04Z</time>
      </trkpt>
      <trkpt lat="45.56042" lon="6.67131">
        <ele>685.55737304688</ele>
        <time>2016-05-22T07:36:10Z</time>
      </trkpt>
      <trkpt lat="45.56039" lon="6.67168">
        <ele>686.51879882812</ele>
        <time>2016-05-22T07:36:14Z</time>
      </trkpt>
      <trkpt lat="45.56031" lon="6.67191">
        <ele>686.99926757812</ele>
        <time>2016-05-22T07:36:17Z</time>
      </trkpt>
      <trkpt lat="45.56027" lon="6.67222">
        <ele>686.99926757812</ele>
        <time>2016-05-22T07:36:21Z</time>
      </trkpt>
      <trkpt lat="45.56032" lon="6.67273">
        <ele>687.96069335938</ele>
        <time>2016-05-22T07:36:28Z</time>
      </trkpt>
      <trkpt lat="45.56033" lon="6.6728">
        <ele>688.44140625</ele>
        <time>2016-05-22T07:36:29Z</time>
      </trkpt>
      <trkpt lat="45.56043" lon="6.67343">
        <ele>688.44140625</ele>
        <time>2016-05-22T07:36:38Z</time>
      </trkpt>
      <trkpt lat="45.56057" lon="6.67395">
        <ele>689.88330078125</ele>
        <time>2016-05-22T07:36:46Z</time>
      </trkpt>
      <trkpt lat="45.56075" lon="6.67445">
        <ele>690.36401367188</ele>
        <time>2016-05-22T07:36:54Z</time>
      </trkpt>
      <trkpt lat="45.56093" lon="6.67493">
        <ele>691.3251953125</ele>
        <time>2016-05-22T07:37:01Z</time>
      </trkpt>
      <trkpt lat="45.56096" lon="6.67507">
        <ele>692.28662109375</ele>
        <time>2016-05-22T07:37:03Z</time>
      </trkpt>
      <trkpt lat="45.56114" lon="6.67546">
        <ele>692.76733398438</ele>
        <time>2016-05-22T07:37:09Z</time>
      </trkpt>
      <trkpt lat="45.56138" lon="6.67588">
        <ele>693.728515625</ele>
        <time>2016-05-22T07:37:16Z</time>
      </trkpt>
      <trkpt lat="45.56172" lon="6.67623">
        <ele>693.728515625</ele>
        <time>2016-05-22T07:37:23Z</time>
      </trkpt>
      <trkpt lat="45.56216" lon="6.6767">
        <ele>695.17041015625</ele>
        <time>2016-05-22T07:37:32Z</time>
      </trkpt>
      <trkpt lat="45.5623" lon="6.67686">
        <ele>695.65112304688</ele>
        <time>2016-05-22T07:37:35Z</time>
      </trkpt>
      <trkpt lat="45.5625" lon="6.67734">
        <ele>696.61254882812</ele>
        <time>2016-05-22T07:37:42Z</time>
      </trkpt>
      <trkpt lat="45.56271" lon="6.67792">
        <ele>698.05444335938</ele>
        <time>2016-05-22T07:37:50Z</time>
      </trkpt>
      <trkpt lat="45.56279" lon="6.67818">
        <ele>699.015625</ele>
        <time>2016-05-22T07:37:54Z</time>
      </trkpt>
      <trkpt lat="45.56285" lon="6.67858">
        <ele>699.97705078125</ele>
        <time>2016-05-22T07:38:01Z</time>
      </trkpt>
      <trkpt lat="45.56289" lon="6.6789">
        <ele>701.89990234375</ele>
        <time>2016-05-22T07:38:07Z</time>
      </trkpt>
      <trkpt lat="45.56294" lon="6.67914">
        <ele>702.38037109375</ele>
        <time>2016-05-22T07:38:12Z</time>
      </trkpt>
      <trkpt lat="45.56303" lon="6.67939">
        <ele>703.341796875</ele>
        <time>2016-05-22T07:38:16Z</time>
      </trkpt>
      <trkpt lat="45.56319" lon="6.67981">
        <ele>703.82250976562</ele>
        <time>2016-05-22T07:38:22Z</time>
      </trkpt>
      <trkpt lat="45.56332" lon="6.68032">
        <ele>703.82250976562</ele>
        <time>2016-05-22T07:38:28Z</time>
      </trkpt>
      <trkpt lat="45.56348" lon="6.68096">
        <ele>703.82250976562</ele>
        <time>2016-05-22T07:38:35Z</time>
      </trkpt>
      <trkpt lat="45.56357" lon="6.6814">
        <ele>704.78369140625</ele>
        <time>2016-05-22T07:38:40Z</time>
      </trkpt>
      <trkpt lat="45.56364" lon="6.6817">
        <ele>705.26440429688</ele>
        <time>2016-05-22T07:38:44Z</time>
      </trkpt>
      <trkpt lat="45.56373" lon="6.68215">
        <ele>706.70629882812</ele>
        <time>2016-05-22T07:38:50Z</time>
      </trkpt>
      <trkpt lat="45.56374" lon="6.68222">
        <ele>706.2255859375</ele>
        <time>2016-05-22T07:38:51Z</time>
      </trkpt>
      <trkpt lat="45.5637" lon="6.68258">
        <ele>706.70629882812</ele>
        <time>2016-05-22T07:38:56Z</time>
      </trkpt>
      <trkpt lat="45.56365" lon="6.68275">
        <ele>706.70629882812</ele>
        <time>2016-05-22T07:38:59Z</time>
      </trkpt>
      <trkpt lat="45.56355" lon="6.6831">
        <ele>708.62890625</ele>
        <time>2016-05-22T07:39:05Z</time>
      </trkpt>
      <trkpt lat="45.56345" lon="6.68363">
        <ele>709.10961914062</ele>
        <time>2016-05-22T07:39:12Z</time>
      </trkpt>
      <trkpt lat="45.56345" lon="6.68372">
        <ele>709.10961914062</ele>
        <time>2016-05-22T07:39:13Z</time>
      </trkpt>
      <trkpt lat="45.56346" lon="6.68419">
        <ele>708.1484375</ele>
        <time>2016-05-22T07:39:18Z</time>
      </trkpt>
      <trkpt lat="45.56337" lon="6.68457">
        <ele>707.66772460938</ele>
        <time>2016-05-22T07:39:22Z</time>
      </trkpt>
      <trkpt lat="45.56326" lon="6.68471">
        <ele>708.1484375</ele>
        <time>2016-05-22T07:39:24Z</time>
      </trkpt>
      <trkpt lat="45.56303" lon="6.68493">
        <ele>707.66772460938</ele>
        <time>2016-05-22T07:39:28Z</time>
      </trkpt>
      <trkpt lat="45.56279" lon="6.68536">
        <ele>707.18701171875</ele>
        <time>2016-05-22T07:39:34Z</time>
      </trkpt>
      <trkpt lat="45.56254" lon="6.68612">
        <ele>708.1484375</ele>
        <time>2016-05-22T07:39:43Z</time>
      </trkpt>
      <trkpt lat="45.56226" lon="6.68685">
        <ele>708.1484375</ele>
        <time>2016-05-22T07:39:52Z</time>
      </trkpt>
      <trkpt lat="45.56205" lon="6.68745">
        <ele>709.10961914062</ele>
        <time>2016-05-22T07:39:59Z</time>
      </trkpt>
      <trkpt lat="45.56198" lon="6.6879">
        <ele>710.07080078125</ele>
        <time>2016-05-22T07:40:04Z</time>
      </trkpt>
      <trkpt lat="45.56197" lon="6.688">
        <ele>709.59033203125</ele>
        <time>2016-05-22T07:40:05Z</time>
      </trkpt>
      <trkpt lat="45.56188" lon="6.68834">
        <ele>710.55151367188</ele>
        <time>2016-05-22T07:40:09Z</time>
      </trkpt>
      <trkpt lat="45.56187" lon="6.68888">
        <ele>711.51293945312</ele>
        <time>2016-05-22T07:40:15Z</time>
      </trkpt>
      <trkpt lat="45.56195" lon="6.68951">
        <ele>712.47412109375</ele>
        <time>2016-05-22T07:40:22Z</time>
      </trkpt>
      <trkpt lat="45.56199" lon="6.68967">
        <ele>712.47412109375</ele>
        <time>2016-05-22T07:40:24Z</time>
      </trkpt>
      <trkpt lat="45.56203" lon="6.69009">
        <ele>712.47412109375</ele>
        <time>2016-05-22T07:40:29Z</time>
      </trkpt>
      <trkpt lat="45.56209" lon="6.69036">
        <ele>713.435546875</ele>
        <time>2016-05-22T07:40:32Z</time>
      </trkpt>
      <trkpt lat="45.56228" lon="6.69094">
        <ele>712.95483398438</ele>
        <time>2016-05-22T07:40:39Z</time>
      </trkpt>
      <trkpt lat="45.56241" lon="6.69122">
        <ele>713.435546875</ele>
        <time>2016-05-22T07:40:43Z</time>
      </trkpt>
      <trkpt lat="45.56251" lon="6.69136">
        <ele>713.435546875</ele>
        <time>2016-05-22T07:40:45Z</time>
      </trkpt>
      <trkpt lat="45.56265" lon="6.69156">
        <ele>712.95483398438</ele>
        <time>2016-05-22T07:40:48Z</time>
      </trkpt>
      <trkpt lat="45.56287" lon="6.69199">
        <ele>713.916015625</ele>
        <time>2016-05-22T07:40:53Z</time>
      </trkpt>
      <trkpt lat="45.56294" lon="6.69216">
        <ele>714.87744140625</ele>
        <time>2016-05-22T07:40:55Z</time>
      </trkpt>
      <trkpt lat="45.56297" lon="6.69244">
        <ele>713.916015625</ele>
        <time>2016-05-22T07:40:58Z</time>
      </trkpt>
      <trkpt lat="45.56309" lon="6.69286">
        <ele>713.916015625</ele>
        <time>2016-05-22T07:41:03Z</time>
      </trkpt>
      <trkpt lat="45.56309" lon="6.69304">
        <ele>712.95483398438</ele>
        <time>2016-05-22T07:41:05Z</time>
      </trkpt>
      <trkpt lat="45.56309" lon="6.6937">
        <ele>714.39672851562</ele>
        <time>2016-05-22T07:41:12Z</time>
      </trkpt>
      <trkpt lat="45.5631" lon="6.69398">
        <ele>714.87744140625</ele>
        <time>2016-05-22T07:41:15Z</time>
      </trkpt>
      <trkpt lat="45.56321" lon="6.69438">
        <ele>714.87744140625</ele>
        <time>2016-05-22T07:41:20Z</time>
      </trkpt>
      <trkpt lat="45.56324" lon="6.69445">
        <ele>715.35815429688</ele>
        <time>2016-05-22T07:41:21Z</time>
      </trkpt>
      <trkpt lat="45.56334" lon="6.69496">
        <ele>715.35815429688</ele>
        <time>2016-05-22T07:41:27Z</time>
      </trkpt>
      <trkpt lat="45.56349" lon="6.69574">
        <ele>716.31958007812</ele>
        <time>2016-05-22T07:41:36Z</time>
      </trkpt>
      <trkpt lat="45.56348" lon="6.69617">
        <ele>716.31958007812</ele>
        <time>2016-05-22T07:41:41Z</time>
      </trkpt>
      <trkpt lat="45.56346" lon="6.69626">
        <ele>716.31958007812</ele>
        <time>2016-05-22T07:41:42Z</time>
      </trkpt>
      <trkpt lat="45.56337" lon="6.6966">
        <ele>716.80029296875</ele>
        <time>2016-05-22T07:41:46Z</time>
      </trkpt>
      <trkpt lat="45.56331" lon="6.69676">
        <ele>716.80029296875</ele>
        <time>2016-05-22T07:41:48Z</time>
      </trkpt>
      <trkpt lat="45.56324" lon="6.69729">
        <ele>716.31958007812</ele>
        <time>2016-05-22T07:41:54Z</time>
      </trkpt>
      <trkpt lat="45.56326" lon="6.69766">
        <ele>715.8388671875</ele>
        <time>2016-05-22T07:41:58Z</time>
      </trkpt>
      <trkpt lat="45.5633" lon="6.69813">
        <ele>716.80029296875</ele>
        <time>2016-05-22T07:42:03Z</time>
      </trkpt>
      <trkpt lat="45.5633" lon="6.6986">
        <ele>716.80029296875</ele>
        <time>2016-05-22T07:42:08Z</time>
      </trkpt>
      <trkpt lat="45.5634" lon="6.69929">
        <ele>717.28100585938</ele>
        <time>2016-05-22T07:42:15Z</time>
      </trkpt>
      <trkpt lat="45.56342" lon="6.69948">
        <ele>716.31958007812</ele>
        <time>2016-05-22T07:42:17Z</time>
      </trkpt>
      <trkpt lat="45.56352" lon="6.70023">
        <ele>716.31958007812</ele>
        <time>2016-05-22T07:42:25Z</time>
      </trkpt>
      <trkpt lat="45.56357" lon="6.70059">
        <ele>715.35815429688</ele>
        <time>2016-05-22T07:42:29Z</time>
      </trkpt>
      <trkpt lat="45.56377" lon="6.70128">
        <ele>718.2421875</ele>
        <time>2016-05-22T07:42:37Z</time>
      </trkpt>
      <trkpt lat="45.5638" lon="6.70137">
        <ele>716.80029296875</ele>
        <time>2016-05-22T07:42:38Z</time>
      </trkpt>
      <trkpt lat="45.56387" lon="6.7021">
        <ele>717.28100585938</ele>
        <time>2016-05-22T07:42:46Z</time>
      </trkpt>
      <trkpt lat="45.56388" lon="6.70235">
        <ele>717.28100585938</ele>
        <time>2016-05-22T07:42:49Z</time>
      </trkpt>
      <trkpt lat="45.56395" lon="6.70256">
        <ele>718.2421875</ele>
        <time>2016-05-22T07:42:52Z</time>
      </trkpt>
      <trkpt lat="45.56397" lon="6.70262">
        <ele>718.2421875</ele>
        <time>2016-05-22T07:42:53Z</time>
      </trkpt>
      <trkpt lat="45.56421" lon="6.70294">
        <ele>718.72290039062</ele>
        <time>2016-05-22T07:42:59Z</time>
      </trkpt>
      <trkpt lat="45.56442" lon="6.70321">
        <ele>720.16479492188</ele>
        <time>2016-05-22T07:43:04Z</time>
      </trkpt>
      <trkpt lat="45.56463" lon="6.70351">
        <ele>720.16479492188</ele>
        <time>2016-05-22T07:43:09Z</time>
      </trkpt>
      <trkpt lat="45.56491" lon="6.70388">
        <ele>721.12622070312</ele>
        <time>2016-05-22T07:43:15Z</time>
      </trkpt>
      <trkpt lat="45.5653" lon="6.70443">
        <ele>722.08740234375</ele>
        <time>2016-05-22T07:43:24Z</time>
      </trkpt>
      <trkpt lat="45.56544" lon="6.70457">
        <ele>721.60668945312</ele>
        <time>2016-05-22T07:43:27Z</time>
      </trkpt>
      <trkpt lat="45.56592" lon="6.70487">
        <ele>723.52954101562</ele>
        <time>2016-05-22T07:43:35Z</time>
      </trkpt>
      <trkpt lat="45.56624" lon="6.70508">
        <ele>724.01000976562</ele>
        <time>2016-05-22T07:43:41Z</time>
      </trkpt>
      <trkpt lat="45.5665" lon="6.70531">
        <ele>723.52954101562</ele>
        <time>2016-05-22T07:43:46Z</time>
      </trkpt>
      <trkpt lat="45.56662" lon="6.70543">
        <ele>724.01000976562</ele>
        <time>2016-05-22T07:43:48Z</time>
      </trkpt>
      <trkpt lat="45.56679" lon="6.70574">
        <ele>724.01000976562</ele>
        <time>2016-05-22T07:43:52Z</time>
      </trkpt>
      <trkpt lat="45.56684" lon="6.7059">
        <ele>723.52954101562</ele>
        <time>2016-05-22T07:43:54Z</time>
      </trkpt>
      <trkpt lat="45.56687" lon="6.70635">
        <ele>723.048828125</ele>
        <time>2016-05-22T07:43:59Z</time>
      </trkpt>
      <trkpt lat="45.56679" lon="6.70686">
        <ele>724.49072265625</ele>
        <time>2016-05-22T07:44:05Z</time>
      </trkpt>
      <trkpt lat="45.56677" lon="6.70694">
        <ele>724.49072265625</ele>
        <time>2016-05-22T07:44:06Z</time>
      </trkpt>
      <trkpt lat="45.56663" lon="6.70723">
        <ele>724.49072265625</ele>
        <time>2016-05-22T07:44:10Z</time>
      </trkpt>
      <trkpt lat="45.56657" lon="6.70728">
        <ele>724.97143554688</ele>
        <time>2016-05-22T07:44:11Z</time>
      </trkpt>
      <trkpt lat="45.56624" lon="6.70756">
        <ele>725.45190429688</ele>
        <time>2016-05-22T07:44:18Z</time>
      </trkpt>
      <trkpt lat="45.56602" lon="6.70771">
        <ele>724.97143554688</ele>
        <time>2016-05-22T07:44:23Z</time>
      </trkpt>
      <trkpt lat="45.56589" lon="6.70784">
        <ele>725.45190429688</ele>
        <time>2016-05-22T07:44:26Z</time>
      </trkpt>
      <trkpt lat="45.56568" lon="6.70821">
        <ele>724.97143554688</ele>
        <time>2016-05-22T07:44:32Z</time>
      </trkpt>
      <trkpt lat="45.56562" lon="6.70834">
        <ele>724.49072265625</ele>
        <time>2016-05-22T07:44:34Z</time>
      </trkpt>
      <trkpt lat="45.56551" lon="6.7088">
        <ele>724.49072265625</ele>
        <time>2016-05-22T07:44:40Z</time>
      </trkpt>
      <trkpt lat="45.5655" lon="6.70895">
        <ele>724.49072265625</ele>
        <time>2016-05-22T07:44:42Z</time>
      </trkpt>
      <trkpt lat="45.56548" lon="6.70956">
        <ele>725.45190429688</ele>
        <time>2016-05-22T07:44:50Z</time>
      </trkpt>
      <trkpt lat="45.5655" lon="6.70987">
        <ele>724.49072265625</ele>
        <time>2016-05-22T07:44:54Z</time>
      </trkpt>
      <trkpt lat="45.56559" lon="6.71055">
        <ele>724.97143554688</ele>
        <time>2016-05-22T07:45:03Z</time>
      </trkpt>
      <trkpt lat="45.56565" lon="6.71114">
        <ele>725.9326171875</ele>
        <time>2016-05-22T07:45:11Z</time>
      </trkpt>
      <trkpt lat="45.56567" lon="6.71122">
        <ele>725.9326171875</ele>
        <time>2016-05-22T07:45:12Z</time>
      </trkpt>
      <trkpt lat="45.56587" lon="6.71196">
        <ele>726.89404296875</ele>
        <time>2016-05-22T07:45:22Z</time>
      </trkpt>
      <trkpt lat="45.56606" lon="6.71235">
        <ele>726.89404296875</ele>
        <time>2016-05-22T07:45:28Z</time>
      </trkpt>
      <trkpt lat="45.56611" lon="6.71248">
        <ele>726.89404296875</ele>
        <time>2016-05-22T07:45:30Z</time>
      </trkpt>
      <trkpt lat="45.56628" lon="6.71268">
        <ele>725.9326171875</ele>
        <time>2016-05-22T07:45:34Z</time>
      </trkpt>
      <trkpt lat="45.56637" lon="6.71276">
        <ele>726.41333007812</ele>
        <time>2016-05-22T07:45:36Z</time>
      </trkpt>
      <trkpt lat="45.56651" lon="6.713">
        <ele>726.89404296875</ele>
        <time>2016-05-22T07:45:40Z</time>
      </trkpt>
      <trkpt lat="45.5665" lon="6.71329">
        <ele>727.85522460938</ele>
        <time>2016-05-22T07:45:44Z</time>
      </trkpt>
      <trkpt lat="45.56646" lon="6.71357">
        <ele>726.89404296875</ele>
        <time>2016-05-22T07:45:49Z</time>
      </trkpt>
      <trkpt lat="45.56647" lon="6.71362">
        <ele>727.85522460938</ele>
        <time>2016-05-22T07:45:50Z</time>
      </trkpt>
      <trkpt lat="45.56649" lon="6.71374">
        <ele>728.81665039062</ele>
        <time>2016-05-22T07:45:52Z</time>
      </trkpt>
      <trkpt lat="45.56644" lon="6.71409">
        <ele>729.77783203125</ele>
        <time>2016-05-22T07:45:57Z</time>
      </trkpt>
      <trkpt lat="45.56643" lon="6.71431">
        <ele>729.77783203125</ele>
        <time>2016-05-22T07:46:00Z</time>
      </trkpt>
      <trkpt lat="45.56651" lon="6.71468">
        <ele>732.18139648438</ele>
        <time>2016-05-22T07:46:06Z</time>
      </trkpt>
      <trkpt lat="45.56662" lon="6.71512">
        <ele>734.10400390625</ele>
        <time>2016-05-22T07:46:14Z</time>
      </trkpt>
      <trkpt lat="45.56664" lon="6.71522">
        <ele>733.62329101562</ele>
        <time>2016-05-22T07:46:16Z</time>
      </trkpt>
      <trkpt lat="45.5667" lon="6.71554">
        <ele>733.62329101562</ele>
        <time>2016-05-22T07:46:21Z</time>
      </trkpt>
      <trkpt lat="45.56678" lon="6.71578">
        <ele>734.58471679688</ele>
        <time>2016-05-22T07:46:25Z</time>
      </trkpt>
      <trkpt lat="45.56682" lon="6.7161">
        <ele>731.21997070312</ele>
        <time>2016-05-22T07:46:29Z</time>
      </trkpt>
      <trkpt lat="45.56692" lon="6.71648">
        <ele>731.70043945312</ele>
        <time>2016-05-22T07:46:33Z</time>
      </trkpt>
      <trkpt lat="45.56704" lon="6.71662">
        <ele>730.7392578125</ele>
        <time>2016-05-22T07:46:35Z</time>
      </trkpt>
      <trkpt lat="45.5673" lon="6.71705">
        <ele>730.7392578125</ele>
        <time>2016-05-22T07:46:41Z</time>
      </trkpt>
      <trkpt lat="45.56747" lon="6.71732">
        <ele>730.25854492188</ele>
        <time>2016-05-22T07:46:45Z</time>
      </trkpt>
      <trkpt lat="45.56757" lon="6.71743">
        <ele>730.25854492188</ele>
        <time>2016-05-22T07:46:47Z</time>
      </trkpt>
      <trkpt lat="45.56775" lon="6.71767">
        <ele>730.25854492188</ele>
        <time>2016-05-22T07:46:51Z</time>
      </trkpt>
      <trkpt lat="45.56795" lon="6.71812">
        <ele>731.21997070312</ele>
        <time>2016-05-22T07:46:57Z</time>
      </trkpt>
      <trkpt lat="45.56801" lon="6.71846">
        <ele>731.70043945312</ele>
        <time>2016-05-22T07:47:01Z</time>
      </trkpt>
      <trkpt lat="45.56811" lon="6.71899">
        <ele>730.7392578125</ele>
        <time>2016-05-22T07:47:07Z</time>
      </trkpt>
      <trkpt lat="45.56813" lon="6.71907">
        <ele>731.21997070312</ele>
        <time>2016-05-22T07:47:08Z</time>
      </trkpt>
      <trkpt lat="45.56816" lon="6.71949">
        <ele>730.25854492188</ele>
        <time>2016-05-22T07:47:13Z</time>
      </trkpt>
      <trkpt lat="45.56814" lon="6.71981">
        <ele>730.7392578125</ele>
        <time>2016-05-22T07:47:17Z</time>
      </trkpt>
      <trkpt lat="45.56814" lon="6.72028">
        <ele>733.142578125</ele>
        <time>2016-05-22T07:47:22Z</time>
      </trkpt>
      <trkpt lat="45.56811" lon="6.72058">
        <ele>732.662109375</ele>
        <time>2016-05-22T07:47:25Z</time>
      </trkpt>
      <trkpt lat="45.56807" lon="6.72107">
        <ele>731.21997070312</ele>
        <time>2016-05-22T07:47:30Z</time>
      </trkpt>
      <trkpt lat="45.56806" lon="6.72117">
        <ele>731.21997070312</ele>
        <time>2016-05-22T07:47:31Z</time>
      </trkpt>
      <trkpt lat="45.56813" lon="6.72184">
        <ele>730.7392578125</ele>
        <time>2016-05-22T07:47:38Z</time>
      </trkpt>
      <trkpt lat="45.56825" lon="6.72249">
        <ele>730.7392578125</ele>
        <time>2016-05-22T07:47:45Z</time>
      </trkpt>
      <trkpt lat="45.56843" lon="6.72311">
        <ele>731.70043945312</ele>
        <time>2016-05-22T07:47:52Z</time>
      </trkpt>
      <trkpt lat="45.56861" lon="6.72334">
        <ele>731.70043945312</ele>
        <time>2016-05-22T07:47:56Z</time>
      </trkpt>
      <trkpt lat="45.5691" lon="6.7236">
        <ele>732.18139648438</ele>
        <time>2016-05-22T07:48:04Z</time>
      </trkpt>
      <trkpt lat="45.56946" lon="6.72383">
        <ele>732.662109375</ele>
        <time>2016-05-22T07:48:10Z</time>
      </trkpt>
      <trkpt lat="45.56974" lon="6.72405">
        <ele>732.662109375</ele>
        <time>2016-05-22T07:48:15Z</time>
      </trkpt>
      <trkpt lat="45.57017" lon="6.72445">
        <ele>733.142578125</ele>
        <time>2016-05-22T07:48:23Z</time>
      </trkpt>
      <trkpt lat="45.57053" lon="6.72474">
        <ele>733.142578125</ele>
        <time>2016-05-22T07:48:29Z</time>
      </trkpt>
      <trkpt lat="45.57058" lon="6.72479">
        <ele>733.62329101562</ele>
        <time>2016-05-22T07:48:30Z</time>
      </trkpt>
      <trkpt lat="45.57073" lon="6.72509">
        <ele>733.62329101562</ele>
        <time>2016-05-22T07:48:34Z</time>
      </trkpt>
      <trkpt lat="45.57085" lon="6.72531">
        <ele>734.10400390625</ele>
        <time>2016-05-22T07:48:37Z</time>
      </trkpt>
      <trkpt lat="45.57104" lon="6.72556">
        <ele>735.5458984375</ele>
        <time>2016-05-22T07:48:41Z</time>
      </trkpt>
      <trkpt lat="45.57139" lon="6.72579">
        <ele>736.02661132812</ele>
        <time>2016-05-22T07:48:47Z</time>
      </trkpt>
      <trkpt lat="45.57145" lon="6.72583">
        <ele>736.02661132812</ele>
        <time>2016-05-22T07:48:48Z</time>
      </trkpt>
      <trkpt lat="45.57166" lon="6.72617">
        <ele>737.46850585938</ele>
        <time>2016-05-22T07:48:53Z</time>
      </trkpt>
      <trkpt lat="45.57177" lon="6.72648">
        <ele>735.5458984375</ele>
        <time>2016-05-22T07:48:57Z</time>
      </trkpt>
      <trkpt lat="45.57209" lon="6.72694">
        <ele>736.50732421875</ele>
        <time>2016-05-22T07:49:05Z</time>
      </trkpt>
      <trkpt lat="45.57213" lon="6.727">
        <ele>736.02661132812</ele>
        <time>2016-05-22T07:49:06Z</time>
      </trkpt>
      <trkpt lat="45.57243" lon="6.72753">
        <ele>735.5458984375</ele>
        <time>2016-05-22T07:49:14Z</time>
      </trkpt>
      <trkpt lat="45.57269" lon="6.72784">
        <ele>734.58471679688</ele>
        <time>2016-05-22T07:49:20Z</time>
      </trkpt>
      <trkpt lat="45.57305" lon="6.72808">
        <ele>736.02661132812</ele>
        <time>2016-05-22T07:49:27Z</time>
      </trkpt>
      <trkpt lat="45.57328" lon="6.72818">
        <ele>738.91064453125</ele>
        <time>2016-05-22T07:49:31Z</time>
      </trkpt>
      <trkpt lat="45.57351" lon="6.72828">
        <ele>738.42993164062</ele>
        <time>2016-05-22T07:49:35Z</time>
      </trkpt>
      <trkpt lat="45.57372" lon="6.72839">
        <ele>739.87182617188</ele>
        <time>2016-05-22T07:49:39Z</time>
      </trkpt>
      <trkpt lat="45.57389" lon="6.72848">
        <ele>738.42993164062</ele>
        <time>2016-05-22T07:49:42Z</time>
      </trkpt>
      <trkpt lat="45.57406" lon="6.72869">
        <ele>738.91064453125</ele>
        <time>2016-05-22T07:49:46Z</time>
      </trkpt>
      <trkpt lat="45.57414" lon="6.72902">
        <ele>739.39111328125</ele>
        <time>2016-05-22T07:49:50Z</time>
      </trkpt>
      <trkpt lat="45.57411" lon="6.72952">
        <ele>741.31372070312</ele>
        <time>2016-05-22T07:49:56Z</time>
      </trkpt>
      <trkpt lat="45.57409" lon="6.72967">
        <ele>741.31372070312</ele>
        <time>2016-05-22T07:49:58Z</time>
      </trkpt>
      <trkpt lat="45.57409" lon="6.73001">
        <ele>741.31372070312</ele>
        <time>2016-05-22T07:50:02Z</time>
      </trkpt>
      <trkpt lat="45.57425" lon="6.73079">
        <ele>739.87182617188</ele>
        <time>2016-05-22T07:50:11Z</time>
      </trkpt>
      <trkpt lat="45.57447" lon="6.73143">
        <ele>740.8330078125</ele>
        <time>2016-05-22T07:50:19Z</time>
      </trkpt>
      <trkpt lat="45.57472" lon="6.73182">
        <ele>740.3525390625</ele>
        <time>2016-05-22T07:50:25Z</time>
      </trkpt>
      <trkpt lat="45.57477" lon="6.73188">
        <ele>740.3525390625</ele>
        <time>2016-05-22T07:50:26Z</time>
      </trkpt>
      <trkpt lat="45.57503" lon="6.73209">
        <ele>740.8330078125</ele>
        <time>2016-05-22T07:50:31Z</time>
      </trkpt>
      <trkpt lat="45.5753" lon="6.73232">
        <ele>741.79443359375</ele>
        <time>2016-05-22T07:50:36Z</time>
      </trkpt>
      <trkpt lat="45.57538" lon="6.73242">
        <ele>742.27514648438</ele>
        <time>2016-05-22T07:50:38Z</time>
      </trkpt>
      <trkpt lat="45.57555" lon="6.73255">
        <ele>743.71704101562</ele>
        <time>2016-05-22T07:50:41Z</time>
      </trkpt>
      <trkpt lat="45.57561" lon="6.73258">
        <ele>741.79443359375</ele>
        <time>2016-05-22T07:50:42Z</time>
      </trkpt>
      <trkpt lat="45.57594" lon="6.73291">
        <ele>743.236328125</ele>
        <time>2016-05-22T07:50:48Z</time>
      </trkpt>
      <trkpt lat="45.57609" lon="6.73309">
        <ele>742.755859375</ele>
        <time>2016-05-22T07:50:51Z</time>
      </trkpt>
      <trkpt lat="45.57625" lon="6.73328">
        <ele>743.71704101562</ele>
        <time>2016-05-22T07:50:54Z</time>
      </trkpt>
      <trkpt lat="45.57637" lon="6.73348">
        <ele>743.236328125</ele>
        <time>2016-05-22T07:50:57Z</time>
      </trkpt>
      <trkpt lat="45.57659" lon="6.7339">
        <ele>743.236328125</ele>
        <time>2016-05-22T07:51:03Z</time>
      </trkpt>
      <trkpt lat="45.57664" lon="6.73397">
        <ele>744.19775390625</ele>
        <time>2016-05-22T07:51:04Z</time>
      </trkpt>
      <trkpt lat="45.57665" lon="6.7343">
        <ele>743.236328125</ele>
        <time>2016-05-22T07:51:08Z</time>
      </trkpt>
      <trkpt lat="45.57663" lon="6.73462">
        <ele>744.19775390625</ele>
        <time>2016-05-22T07:51:12Z</time>
      </trkpt>
      <trkpt lat="45.57672" lon="6.73499">
        <ele>744.67822265625</ele>
        <time>2016-05-22T07:51:17Z</time>
      </trkpt>
      <trkpt lat="45.5769" lon="6.73545">
        <ele>745.6396484375</ele>
        <time>2016-05-22T07:51:23Z</time>
      </trkpt>
      <trkpt lat="45.577" lon="6.7358">
        <ele>744.67822265625</ele>
        <time>2016-05-22T07:51:27Z</time>
      </trkpt>
      <trkpt lat="45.57701" lon="6.73624">
        <ele>744.67822265625</ele>
        <time>2016-05-22T07:51:32Z</time>
      </trkpt>
      <trkpt lat="45.57695" lon="6.73679">
        <ele>745.6396484375</ele>
        <time>2016-05-22T07:51:38Z</time>
      </trkpt>
      <trkpt lat="45.57679" lon="6.7371">
        <ele>746.60107421875</ele>
        <time>2016-05-22T07:51:43Z</time>
      </trkpt>
      <trkpt lat="45.57672" lon="6.73723">
        <ele>748.04321289062</ele>
        <time>2016-05-22T07:51:46Z</time>
      </trkpt>
      <trkpt lat="45.57674" lon="6.73742">
        <ele>746.60107421875</ele>
        <time>2016-05-22T07:51:49Z</time>
      </trkpt>
      <trkpt lat="45.57674" lon="6.73766">
        <ele>748.52368164062</ele>
        <time>2016-05-22T07:51:52Z</time>
      </trkpt>
      <trkpt lat="45.57665" lon="6.73793">
        <ele>748.04321289062</ele>
        <time>2016-05-22T07:51:55Z</time>
      </trkpt>
      <trkpt lat="45.57656" lon="6.7383">
        <ele>748.52368164062</ele>
        <time>2016-05-22T07:51:59Z</time>
      </trkpt>
      <trkpt lat="45.57652" lon="6.73907">
        <ele>747.56225585938</ele>
        <time>2016-05-22T07:52:07Z</time>
      </trkpt>
      <trkpt lat="45.57653" lon="6.73944">
        <ele>748.04321289062</ele>
        <time>2016-05-22T07:52:11Z</time>
      </trkpt>
      <trkpt lat="45.57659" lon="6.73979">
        <ele>749.00439453125</ele>
        <time>2016-05-22T07:52:15Z</time>
      </trkpt>
      <trkpt lat="45.5767" lon="6.74015">
        <ele>747.08154296875</ele>
        <time>2016-05-22T07:52:20Z</time>
      </trkpt>
      <trkpt lat="45.57678" lon="6.74049">
        <ele>749.00439453125</ele>
        <time>2016-05-22T07:52:25Z</time>
      </trkpt>
      <trkpt lat="45.5768" lon="6.74055">
        <ele>749.00439453125</ele>
        <time>2016-05-22T07:52:26Z</time>
      </trkpt>
      <trkpt lat="45.57693" lon="6.74083">
        <ele>748.52368164062</ele>
        <time>2016-05-22T07:52:31Z</time>
      </trkpt>
      <trkpt lat="45.57718" lon="6.74107">
        <ele>749.9658203125</ele>
        <time>2016-05-22T07:52:37Z</time>
      </trkpt>
      <trkpt lat="45.57726" lon="6.74112">
        <ele>751.40771484375</ele>
        <time>2016-05-22T07:52:39Z</time>
      </trkpt>
      <trkpt lat="45.57736" lon="6.74114">
        <ele>751.88842773438</ele>
        <time>2016-05-22T07:52:41Z</time>
      </trkpt>
      <trkpt lat="45.57759" lon="6.74123">
        <ele>755.2529296875</ele>
        <time>2016-05-22T07:52:46Z</time>
      </trkpt>
      <trkpt lat="45.57774" lon="6.7413">
        <ele>755.73364257812</ele>
        <time>2016-05-22T07:52:50Z</time>
      </trkpt>
      <trkpt lat="45.57801" lon="6.74146">
        <ele>753.81103515625</ele>
        <time>2016-05-22T07:52:55Z</time>
      </trkpt>
      <trkpt lat="45.57807" lon="6.74149">
        <ele>754.29174804688</ele>
        <time>2016-05-22T07:52:56Z</time>
      </trkpt>
      <trkpt lat="45.57839" lon="6.74144">
        <ele>752.36889648438</ele>
        <time>2016-05-22T07:53:00Z</time>
      </trkpt>
      <trkpt lat="45.57875" lon="6.74129">
        <ele>751.88842773438</ele>
        <time>2016-05-22T07:53:05Z</time>
      </trkpt>
      <trkpt lat="45.57912" lon="6.74112">
        <ele>752.36889648438</ele>
        <time>2016-05-22T07:53:11Z</time>
      </trkpt>
      <trkpt lat="45.57924" lon="6.74104">
        <ele>752.36889648438</ele>
        <time>2016-05-22T07:53:13Z</time>
      </trkpt>
      <trkpt lat="45.57962" lon="6.74096">
        <ele>753.81103515625</ele>
        <time>2016-05-22T07:53:19Z</time>
      </trkpt>
      <trkpt lat="45.58" lon="6.74102">
        <ele>754.29174804688</ele>
        <time>2016-05-22T07:53:25Z</time>
      </trkpt>
      <trkpt lat="45.58029" lon="6.74112">
        <ele>753.33032226562</ele>
        <time>2016-05-22T07:53:30Z</time>
      </trkpt>
      <trkpt lat="45.58054" lon="6.74124">
        <ele>753.33032226562</ele>
        <time>2016-05-22T07:53:34Z</time>
      </trkpt>
      <trkpt lat="45.5808" lon="6.74151">
        <ele>753.81103515625</ele>
        <time>2016-05-22T07:53:39Z</time>
      </trkpt>
      <trkpt lat="45.58086" lon="6.74167">
        <ele>753.81103515625</ele>
        <time>2016-05-22T07:53:41Z</time>
      </trkpt>
      <trkpt lat="45.58113" lon="6.74245">
        <ele>754.29174804688</ele>
        <time>2016-05-22T07:53:50Z</time>
      </trkpt>
      <trkpt lat="45.58115" lon="6.74254">
        <ele>753.81103515625</ele>
        <time>2016-05-22T07:53:51Z</time>
      </trkpt>
      <trkpt lat="45.58121" lon="6.74301">
        <ele>753.33032226562</ele>
        <time>2016-05-22T07:53:56Z</time>
      </trkpt>
      <trkpt lat="45.58136" lon="6.74347">
        <ele>753.81103515625</ele>
        <time>2016-05-22T07:54:01Z</time>
      </trkpt>
      <trkpt lat="45.58168" lon="6.74424">
        <ele>753.33032226562</ele>
        <time>2016-05-22T07:54:10Z</time>
      </trkpt>
      <trkpt lat="45.58184" lon="6.74457">
        <ele>753.81103515625</ele>
        <time>2016-05-22T07:54:14Z</time>
      </trkpt>
      <trkpt lat="45.5819" lon="6.74506">
        <ele>754.29174804688</ele>
        <time>2016-05-22T07:54:19Z</time>
      </trkpt>
      <trkpt lat="45.58199" lon="6.74564">
        <ele>753.81103515625</ele>
        <time>2016-05-22T07:54:25Z</time>
      </trkpt>
      <trkpt lat="45.58211" lon="6.74598">
        <ele>754.77221679688</ele>
        <time>2016-05-22T07:54:29Z</time>
      </trkpt>
      <trkpt lat="45.5822" lon="6.74633">
        <ele>757.65625</ele>
        <time>2016-05-22T07:54:33Z</time>
      </trkpt>
      <trkpt lat="45.5823" lon="6.74656">
        <ele>758.13696289062</ele>
        <time>2016-05-22T07:54:36Z</time>
      </trkpt>
      <trkpt lat="45.58239" lon="6.74668">
        <ele>757.17553710938</ele>
        <time>2016-05-22T07:54:38Z</time>
      </trkpt>
      <trkpt lat="45.58276" lon="6.74704">
        <ele>756.69482421875</ele>
        <time>2016-05-22T07:54:45Z</time>
      </trkpt>
      <trkpt lat="45.58308" lon="6.74739">
        <ele>757.65625</ele>
        <time>2016-05-22T07:54:51Z</time>
      </trkpt>
      <trkpt lat="45.58355" lon="6.74769">
        <ele>758.61743164062</ele>
        <time>2016-05-22T07:54:59Z</time>
      </trkpt>
      <trkpt lat="45.58367" lon="6.74776">
        <ele>758.61743164062</ele>
        <time>2016-05-22T07:55:01Z</time>
      </trkpt>
      <trkpt lat="45.584" lon="6.74784">
        <ele>757.65625</ele>
        <time>2016-05-22T07:55:06Z</time>
      </trkpt>
      <trkpt lat="45.58439" lon="6.74792">
        <ele>759.57885742188</ele>
        <time>2016-05-22T07:55:12Z</time>
      </trkpt>
      <trkpt lat="45.58482" lon="6.74801">
        <ele>759.09814453125</ele>
        <time>2016-05-22T07:55:19Z</time>
      </trkpt>
      <trkpt lat="45.58488" lon="6.74803">
        <ele>757.65625</ele>
        <time>2016-05-22T07:55:20Z</time>
      </trkpt>
      <trkpt lat="45.58508" lon="6.74819">
        <ele>758.61743164062</ele>
        <time>2016-05-22T07:55:24Z</time>
      </trkpt>
      <trkpt lat="45.58534" lon="6.74844">
        <ele>760.05932617188</ele>
        <time>2016-05-22T07:55:29Z</time>
      </trkpt>
      <trkpt lat="45.58553" lon="6.7485">
        <ele>761.50146484375</ele>
        <time>2016-05-22T07:55:32Z</time>
      </trkpt>
      <trkpt lat="45.58572" lon="6.74858">
        <ele>760.05932617188</ele>
        <time>2016-05-22T07:55:35Z</time>
      </trkpt>
      <trkpt lat="45.58593" lon="6.7488">
        <ele>761.98217773438</ele>
        <time>2016-05-22T07:55:39Z</time>
      </trkpt>
      <trkpt lat="45.58611" lon="6.74891">
        <ele>763.90454101562</ele>
        <time>2016-05-22T07:55:42Z</time>
      </trkpt>
      <trkpt lat="45.58617" lon="6.74893">
        <ele>763.42407226562</ele>
        <time>2016-05-22T07:55:43Z</time>
      </trkpt>
      <trkpt lat="45.58635" lon="6.74896">
        <ele>761.98217773438</ele>
        <time>2016-05-22T07:55:46Z</time>
      </trkpt>
      <trkpt lat="45.58654" lon="6.74898">
        <ele>761.50146484375</ele>
        <time>2016-05-22T07:55:49Z</time>
      </trkpt>
      <trkpt lat="45.58673" lon="6.74896">
        <ele>760.5400390625</ele>
        <time>2016-05-22T07:55:52Z</time>
      </trkpt>
      <trkpt lat="45.58719" lon="6.749">
        <ele>761.98217773438</ele>
        <time>2016-05-22T07:55:59Z</time>
      </trkpt>
      <trkpt lat="45.58738" lon="6.749">
        <ele>763.42407226562</ele>
        <time>2016-05-22T07:56:02Z</time>
      </trkpt>
      <trkpt lat="45.58744" lon="6.74901">
        <ele>763.42407226562</ele>
        <time>2016-05-22T07:56:03Z</time>
      </trkpt>
      <trkpt lat="45.58767" lon="6.7491">
        <ele>763.42407226562</ele>
        <time>2016-05-22T07:56:07Z</time>
      </trkpt>
      <trkpt lat="45.58811" lon="6.7491">
        <ele>763.42407226562</ele>
        <time>2016-05-22T07:56:14Z</time>
      </trkpt>
      <trkpt lat="45.58848" lon="6.74907">
        <ele>765.82763671875</ele>
        <time>2016-05-22T07:56:20Z</time>
      </trkpt>
      <trkpt lat="45.58859" lon="6.74909">
        <ele>761.98217773438</ele>
        <time>2016-05-22T07:56:22Z</time>
      </trkpt>
      <trkpt lat="45.58871" lon="6.74909">
        <ele>761.50146484375</ele>
        <time>2016-05-22T07:56:24Z</time>
      </trkpt>
      <trkpt lat="45.58882" lon="6.74906">
        <ele>761.98217773438</ele>
        <time>2016-05-22T07:56:26Z</time>
      </trkpt>
      <trkpt lat="45.58905" lon="6.74906">
        <ele>762.943359375</ele>
        <time>2016-05-22T07:56:30Z</time>
      </trkpt>
      <trkpt lat="45.58932" lon="6.74912">
        <ele>762.943359375</ele>
        <time>2016-05-22T07:56:35Z</time>
      </trkpt>
      <trkpt lat="45.58959" lon="6.74924">
        <ele>763.42407226562</ele>
        <time>2016-05-22T07:56:40Z</time>
      </trkpt>
      <trkpt lat="45.58995" lon="6.74946">
        <ele>764.38549804688</ele>
        <time>2016-05-22T07:56:47Z</time>
      </trkpt>
      <trkpt lat="45.59011" lon="6.7495">
        <ele>765.34692382812</ele>
        <time>2016-05-22T07:56:50Z</time>
      </trkpt>
      <trkpt lat="45.59034" lon="6.74958">
        <ele>766.30810546875</ele>
        <time>2016-05-22T07:56:54Z</time>
      </trkpt>
      <trkpt lat="45.59055" lon="6.74979">
        <ele>765.82763671875</ele>
        <time>2016-05-22T07:56:58Z</time>
      </trkpt>
      <trkpt lat="45.59075" lon="6.74999">
        <ele>764.8662109375</ele>
        <time>2016-05-22T07:57:02Z</time>
      </trkpt>
      <trkpt lat="45.59095" lon="6.75001">
        <ele>765.82763671875</ele>
        <time>2016-05-22T07:57:05Z</time>
      </trkpt>
      <trkpt lat="45.59149" lon="6.75007">
        <ele>764.38549804688</ele>
        <time>2016-05-22T07:57:14Z</time>
      </trkpt>
      <trkpt lat="45.59155" lon="6.75009">
        <ele>764.8662109375</ele>
        <time>2016-05-22T07:57:15Z</time>
      </trkpt>
      <trkpt lat="45.59182" lon="6.75026">
        <ele>765.82763671875</ele>
        <time>2016-05-22T07:57:20Z</time>
      </trkpt>
      <trkpt lat="45.59187" lon="6.75031">
        <ele>766.30810546875</ele>
        <time>2016-05-22T07:57:21Z</time>
      </trkpt>
      <trkpt lat="45.59224" lon="6.75075">
        <ele>765.82763671875</ele>
        <time>2016-05-22T07:57:29Z</time>
      </trkpt>
      <trkpt lat="45.59253" lon="6.75114">
        <ele>765.82763671875</ele>
        <time>2016-05-22T07:57:36Z</time>
      </trkpt>
      <trkpt lat="45.59257" lon="6.75121">
        <ele>765.34692382812</ele>
        <time>2016-05-22T07:57:37Z</time>
      </trkpt>
      <trkpt lat="45.59269" lon="6.75139">
        <ele>767.26953125</ele>
        <time>2016-05-22T07:57:40Z</time>
      </trkpt>
      <trkpt lat="45.59289" lon="6.75153">
        <ele>766.78881835938</ele>
        <time>2016-05-22T07:57:44Z</time>
      </trkpt>
      <trkpt lat="45.59294" lon="6.75154">
        <ele>767.26953125</ele>
        <time>2016-05-22T07:57:45Z</time>
      </trkpt>
      <trkpt lat="45.59315" lon="6.7516">
        <ele>766.78881835938</ele>
        <time>2016-05-22T07:57:49Z</time>
      </trkpt>
      <trkpt lat="45.59351" lon="6.75179">
        <ele>767.75</ele>
        <time>2016-05-22T07:57:56Z</time>
      </trkpt>
      <trkpt lat="45.59385" lon="6.75192">
        <ele>768.71142578125</ele>
        <time>2016-05-22T07:58:02Z</time>
      </trkpt>
      <trkpt lat="45.59392" lon="6.75193">
        <ele>768.71142578125</ele>
        <time>2016-05-22T07:58:03Z</time>
      </trkpt>
      <trkpt lat="45.5942" lon="6.75211">
        <ele>768.71142578125</ele>
        <time>2016-05-22T07:58:08Z</time>
      </trkpt>
      <trkpt lat="45.59435" lon="6.7524">
        <ele>769.19213867188</ele>
        <time>2016-05-22T07:58:12Z</time>
      </trkpt>
      <trkpt lat="45.59459" lon="6.75281">
        <ele>769.6728515625</ele>
        <time>2016-05-22T07:58:18Z</time>
      </trkpt>
      <trkpt lat="45.59485" lon="6.75306">
        <ele>769.6728515625</ele>
        <time>2016-05-22T07:58:23Z</time>
      </trkpt>
      <trkpt lat="45.59502" lon="6.75321">
        <ele>769.6728515625</ele>
        <time>2016-05-22T07:58:26Z</time>
      </trkpt>
      <trkpt lat="45.59526" lon="6.75358">
        <ele>771.11474609375</ele>
        <time>2016-05-22T07:58:32Z</time>
      </trkpt>
      <trkpt lat="45.59547" lon="6.75379">
        <ele>771.59521484375</ele>
        <time>2016-05-22T07:58:36Z</time>
      </trkpt>
      <trkpt lat="45.59572" lon="6.75401">
        <ele>772.556640625</ele>
        <time>2016-05-22T07:58:41Z</time>
      </trkpt>
      <trkpt lat="45.59597" lon="6.75423">
        <ele>772.556640625</ele>
        <time>2016-05-22T07:58:46Z</time>
      </trkpt>
      <trkpt lat="45.59609" lon="6.75427">
        <ele>771.59521484375</ele>
        <time>2016-05-22T07:58:48Z</time>
      </trkpt>
      <trkpt lat="45.59656" lon="6.75457">
        <ele>772.07592773438</ele>
        <time>2016-05-22T07:58:56Z</time>
      </trkpt>
      <trkpt lat="45.59662" lon="6.75462">
        <ele>772.07592773438</ele>
        <time>2016-05-22T07:58:57Z</time>
      </trkpt>
      <trkpt lat="45.59678" lon="6.75475">
        <ele>772.07592773438</ele>
        <time>2016-05-22T07:59:00Z</time>
      </trkpt>
      <trkpt lat="45.59706" lon="6.75486">
        <ele>772.07592773438</ele>
        <time>2016-05-22T07:59:05Z</time>
      </trkpt>
      <trkpt lat="45.59723" lon="6.75493">
        <ele>772.556640625</ele>
        <time>2016-05-22T07:59:08Z</time>
      </trkpt>
      <trkpt lat="45.59735" lon="6.75505">
        <ele>772.556640625</ele>
        <time>2016-05-22T07:59:10Z</time>
      </trkpt>
      <trkpt lat="45.59758" lon="6.7554">
        <ele>772.556640625</ele>
        <time>2016-05-22T07:59:15Z</time>
      </trkpt>
      <trkpt lat="45.59772" lon="6.75571">
        <ele>772.556640625</ele>
        <time>2016-05-22T07:59:19Z</time>
      </trkpt>
      <trkpt lat="45.59794" lon="6.75624">
        <ele>773.51806640625</ele>
        <time>2016-05-22T07:59:26Z</time>
      </trkpt>
      <trkpt lat="45.598" lon="6.75658">
        <ele>773.03735351562</ele>
        <time>2016-05-22T07:59:30Z</time>
      </trkpt>
      <trkpt lat="45.59802" lon="6.75703">
        <ele>774.9599609375</ele>
        <time>2016-05-22T07:59:35Z</time>
      </trkpt>
      <trkpt lat="45.59806" lon="6.75729">
        <ele>775.4404296875</ele>
        <time>2016-05-22T07:59:38Z</time>
      </trkpt>
      <trkpt lat="45.59824" lon="6.75752">
        <ele>774.47924804688</ele>
        <time>2016-05-22T07:59:42Z</time>
      </trkpt>
      <trkpt lat="45.59835" lon="6.75781">
        <ele>776.40185546875</ele>
        <time>2016-05-22T07:59:46Z</time>
      </trkpt>
      <trkpt lat="45.5985" lon="6.75808">
        <ele>777.36328125</ele>
        <time>2016-05-22T07:59:51Z</time>
      </trkpt>
      <trkpt lat="45.59863" lon="6.7582">
        <ele>777.36328125</ele>
        <time>2016-05-22T07:59:54Z</time>
      </trkpt>
      <trkpt lat="45.59876" lon="6.75836">
        <ele>777.36328125</ele>
        <time>2016-05-22T07:59:57Z</time>
      </trkpt>
      <trkpt lat="45.5989" lon="6.75867">
        <ele>778.80517578125</ele>
        <time>2016-05-22T08:00:02Z</time>
      </trkpt>
      <trkpt lat="45.59906" lon="6.75888">
        <ele>779.28564453125</ele>
        <time>2016-05-22T08:00:07Z</time>
      </trkpt>
      <trkpt lat="45.59929" lon="6.75885">
        <ele>779.76635742188</ele>
        <time>2016-05-22T08:00:11Z</time>
      </trkpt>
      <trkpt lat="45.59943" lon="6.75892">
        <ele>780.24731445312</ele>
        <time>2016-05-22T08:00:13Z</time>
      </trkpt>
      <trkpt lat="45.59953" lon="6.75903">
        <ele>779.28564453125</ele>
        <time>2016-05-22T08:00:15Z</time>
      </trkpt>
      <trkpt lat="45.59963" lon="6.75929">
        <ele>780.24731445312</ele>
        <time>2016-05-22T08:00:19Z</time>
      </trkpt>
      <trkpt lat="45.59973" lon="6.75945">
        <ele>782.169921875</ele>
        <time>2016-05-22T08:00:23Z</time>
      </trkpt>
      <trkpt lat="45.59987" lon="6.75956">
        <ele>780.72802734375</ele>
        <time>2016-05-22T08:00:27Z</time>
      </trkpt>
      <trkpt lat="45.60004" lon="6.75975">
        <ele>783.13110351562</ele>
        <time>2016-05-22T08:00:31Z</time>
      </trkpt>
      <trkpt lat="45.60033" lon="6.76008">
        <ele>782.169921875</ele>
        <time>2016-05-22T08:00:37Z</time>
      </trkpt>
      <trkpt lat="45.60057" lon="6.76047">
        <ele>784.09252929688</ele>
        <time>2016-05-22T08:00:43Z</time>
      </trkpt>
      <trkpt lat="45.60067" lon="6.76069">
        <ele>784.09252929688</ele>
        <time>2016-05-22T08:00:46Z</time>
      </trkpt>
      <trkpt lat="45.60073" lon="6.76105">
        <ele>784.09252929688</ele>
        <time>2016-05-22T08:00:50Z</time>
      </trkpt>
      <trkpt lat="45.60071" lon="6.76138">
        <ele>784.09252929688</ele>
        <time>2016-05-22T08:00:54Z</time>
      </trkpt>
      <trkpt lat="45.60076" lon="6.76198">
        <ele>785.53442382812</ele>
        <time>2016-05-22T08:01:02Z</time>
      </trkpt>
      <trkpt lat="45.60083" lon="6.76233">
        <ele>784.5732421875</ele>
        <time>2016-05-22T08:01:06Z</time>
      </trkpt>
      <trkpt lat="45.60087" lon="6.76249">
        <ele>784.09252929688</ele>
        <time>2016-05-22T08:01:08Z</time>
      </trkpt>
      <trkpt lat="45.60084" lon="6.76281">
        <ele>782.65063476562</ele>
        <time>2016-05-22T08:01:12Z</time>
      </trkpt>
      <trkpt lat="45.60083" lon="6.76289">
        <ele>783.13110351562</ele>
        <time>2016-05-22T08:01:13Z</time>
      </trkpt>
      <trkpt lat="45.60081" lon="6.76312">
        <ele>783.13110351562</ele>
        <time>2016-05-22T08:01:16Z</time>
      </trkpt>
      <trkpt lat="45.60085" lon="6.76341">
        <ele>785.05395507812</ele>
        <time>2016-05-22T08:01:20Z</time>
      </trkpt>
      <trkpt lat="45.60086" lon="6.76348">
        <ele>784.5732421875</ele>
        <time>2016-05-22T08:01:21Z</time>
      </trkpt>
      <trkpt lat="45.60084" lon="6.76389">
        <ele>785.05395507812</ele>
        <time>2016-05-22T08:01:26Z</time>
      </trkpt>
      <trkpt lat="45.60086" lon="6.76412">
        <ele>785.05395507812</ele>
        <time>2016-05-22T08:01:29Z</time>
      </trkpt>
      <trkpt lat="45.60091" lon="6.76438">
        <ele>787.93774414062</ele>
        <time>2016-05-22T08:01:33Z</time>
      </trkpt>
      <trkpt lat="45.60093" lon="6.7645">
        <ele>786.01513671875</ele>
        <time>2016-05-22T08:01:35Z</time>
      </trkpt>
      <trkpt lat="45.60099" lon="6.76479">
        <ele>787.45703125</ele>
        <time>2016-05-22T08:01:40Z</time>
      </trkpt>
      <trkpt lat="45.60105" lon="6.76489">
        <ele>787.93774414062</ele>
        <time>2016-05-22T08:01:42Z</time>
      </trkpt>
      <trkpt lat="45.60111" lon="6.76499">
        <ele>786.97631835938</ele>
        <time>2016-05-22T08:01:44Z</time>
      </trkpt>
      <trkpt lat="45.60129" lon="6.7653">
        <ele>790.34106445312</ele>
        <time>2016-05-22T08:01:51Z</time>
      </trkpt>
      <trkpt lat="45.60131" lon="6.76535">
        <ele>789.8603515625</ele>
        <time>2016-05-22T08:01:52Z</time>
      </trkpt>
      <trkpt lat="45.60143" lon="6.76552">
        <ele>791.30224609375</ele>
        <time>2016-05-22T08:01:56Z</time>
      </trkpt>
      <trkpt lat="45.60153" lon="6.76566">
        <ele>789.8603515625</ele>
        <time>2016-05-22T08:01:59Z</time>
      </trkpt>
      <trkpt lat="45.60157" lon="6.76572">
        <ele>789.8603515625</ele>
        <time>2016-05-22T08:02:00Z</time>
      </trkpt>
      <trkpt lat="45.60166" lon="6.76597">
        <ele>791.78295898438</ele>
        <time>2016-05-22T08:02:04Z</time>
      </trkpt>
      <trkpt lat="45.6018" lon="6.76623">
        <ele>791.78295898438</ele>
        <time>2016-05-22T08:02:08Z</time>
      </trkpt>
      <trkpt lat="45.60197" lon="6.76637">
        <ele>791.78295898438</ele>
        <time>2016-05-22T08:02:11Z</time>
      </trkpt>
      <trkpt lat="45.60243" lon="6.76664">
        <ele>790.82153320312</ele>
        <time>2016-05-22T08:02:19Z</time>
      </trkpt>
      <trkpt lat="45.60275" lon="6.76691">
        <ele>790.82153320312</ele>
        <time>2016-05-22T08:02:25Z</time>
      </trkpt>
      <trkpt lat="45.60296" lon="6.76695">
        <ele>791.30224609375</ele>
        <time>2016-05-22T08:02:29Z</time>
      </trkpt>
      <trkpt lat="45.60304" lon="6.76698">
        <ele>791.30224609375</ele>
        <time>2016-05-22T08:02:32Z</time>
      </trkpt>
      <trkpt lat="45.60304" lon="6.76691">
        <ele>791.78295898438</ele>
        <time>2016-05-22T08:02:36Z</time>
      </trkpt>
      <trkpt lat="45.60302" lon="6.76689">
        <ele>792.263671875</ele>
        <time>2016-05-22T08:02:37Z</time>
      </trkpt>
      <trkpt lat="45.60287" lon="6.76682">
        <ele>792.74438476562</ele>
        <time>2016-05-22T08:02:41Z</time>
      </trkpt>
      <trkpt lat="45.60273" lon="6.76676">
        <ele>793.22485351562</ele>
        <time>2016-05-22T08:02:45Z</time>
      </trkpt>
      <trkpt lat="45.60278" lon="6.7666">
        <ele>795.1474609375</ele>
        <time>2016-05-22T08:02:48Z</time>
      </trkpt>
      <trkpt lat="45.60287" lon="6.76643">
        <ele>794.66674804688</ele>
        <time>2016-05-22T08:02:51Z</time>
      </trkpt>
      <trkpt lat="45.60296" lon="6.76624">
        <ele>795.1474609375</ele>
        <time>2016-05-22T08:02:54Z</time>
      </trkpt>
      <trkpt lat="45.60312" lon="6.76599">
        <ele>794.18627929688</ele>
        <time>2016-05-22T08:02:58Z</time>
      </trkpt>
      <trkpt lat="45.60328" lon="6.76592">
        <ele>796.10913085938</ele>
        <time>2016-05-22T08:03:02Z</time>
      </trkpt>
      <trkpt lat="45.60331" lon="6.76595">
        <ele>796.10913085938</ele>
        <time>2016-05-22T08:03:03Z</time>
      </trkpt>
      <trkpt lat="45.60339" lon="6.76611">
        <ele>796.10913085938</ele>
        <time>2016-05-22T08:03:07Z</time>
      </trkpt>
      <trkpt lat="45.60346" lon="6.76622">
        <ele>797.55102539062</ele>
        <time>2016-05-22T08:03:10Z</time>
      </trkpt>
      <trkpt lat="45.6036" lon="6.76647">
        <ele>798.51220703125</ele>
        <time>2016-05-22T08:03:17Z</time>
      </trkpt>
      <trkpt lat="45.60381" lon="6.76675">
        <ele>799.4736328125</ele>
        <time>2016-05-22T08:03:25Z</time>
      </trkpt>
      <trkpt lat="45.60401" lon="6.76706">
        <ele>802.357421875</ele>
        <time>2016-05-22T08:03:33Z</time>
      </trkpt>
      <trkpt lat="45.60407" lon="6.76721">
        <ele>807.1640625</ele>
        <time>2016-05-22T08:03:36Z</time>
      </trkpt>
      <trkpt lat="45.60408" lon="6.76726">
        <ele>803.31884765625</ele>
        <time>2016-05-22T08:03:37Z</time>
      </trkpt>
      <trkpt lat="45.60419" lon="6.76747">
        <ele>804.7607421875</ele>
        <time>2016-05-22T08:03:42Z</time>
      </trkpt>
      <trkpt lat="45.60438" lon="6.76754">
        <ele>804.2802734375</ele>
        <time>2016-05-22T08:03:47Z</time>
      </trkpt>
      <trkpt lat="45.60458" lon="6.76759">
        <ele>808.12548828125</ele>
        <time>2016-05-22T08:03:52Z</time>
      </trkpt>
      <trkpt lat="45.60479" lon="6.76766">
        <ele>808.12548828125</ele>
        <time>2016-05-22T08:03:58Z</time>
      </trkpt>
      <trkpt lat="45.60504" lon="6.7678">
        <ele>806.20263671875</ele>
        <time>2016-05-22T08:04:05Z</time>
      </trkpt>
      <trkpt lat="45.60515" lon="6.76787">
        <ele>807.64477539062</ele>
        <time>2016-05-22T08:04:08Z</time>
      </trkpt>
      <trkpt lat="45.60552" lon="6.76817">
        <ele>809.08666992188</ele>
        <time>2016-05-22T08:04:18Z</time>
      </trkpt>
      <trkpt lat="45.60574" lon="6.76845">
        <ele>809.08666992188</ele>
        <time>2016-05-22T08:04:24Z</time>
      </trkpt>
      <trkpt lat="45.606" lon="6.76891">
        <ele>807.64477539062</ele>
        <time>2016-05-22T08:04:31Z</time>
      </trkpt>
      <trkpt lat="45.60604" lon="6.76931">
        <ele>807.64477539062</ele>
        <time>2016-05-22T08:04:36Z</time>
      </trkpt>
      <trkpt lat="45.60603" lon="6.7695">
        <ele>808.12548828125</ele>
        <time>2016-05-22T08:04:38Z</time>
      </trkpt>
      <trkpt lat="45.6061" lon="6.77002">
        <ele>807.64477539062</ele>
        <time>2016-05-22T08:04:44Z</time>
      </trkpt>
      <trkpt lat="45.60617" lon="6.77015">
        <ele>807.64477539062</ele>
        <time>2016-05-22T08:04:46Z</time>
      </trkpt>
      <trkpt lat="45.60629" lon="6.77031">
        <ele>807.64477539062</ele>
        <time>2016-05-22T08:04:49Z</time>
      </trkpt>
      <trkpt lat="45.60647" lon="6.77042">
        <ele>807.1640625</ele>
        <time>2016-05-22T08:04:53Z</time>
      </trkpt>
      <trkpt lat="45.60682" lon="6.77056">
        <ele>810.0478515625</ele>
        <time>2016-05-22T08:05:00Z</time>
      </trkpt>
      <trkpt lat="45.60727" lon="6.77074">
        <ele>810.0478515625</ele>
        <time>2016-05-22T08:05:09Z</time>
      </trkpt>
      <trkpt lat="45.60755" lon="6.7709">
        <ele>813.41284179688</ele>
        <time>2016-05-22T08:05:15Z</time>
      </trkpt>
      <trkpt lat="45.60759" lon="6.77093">
        <ele>813.41284179688</ele>
        <time>2016-05-22T08:05:16Z</time>
      </trkpt>
      <trkpt lat="45.60763" lon="6.77096">
        <ele>810.0478515625</ele>
        <time>2016-05-22T08:05:17Z</time>
      </trkpt>
      <trkpt lat="45.60768" lon="6.77099">
        <ele>811.00927734375</ele>
        <time>2016-05-22T08:05:18Z</time>
      </trkpt>
      <trkpt lat="45.60806" lon="6.77119">
        <ele>811.970703125</ele>
        <time>2016-05-22T08:05:26Z</time>
      </trkpt>
      <trkpt lat="45.60847" lon="6.77132">
        <ele>812.93212890625</ele>
        <time>2016-05-22T08:05:34Z</time>
      </trkpt>
      <trkpt lat="45.60853" lon="6.77134">
        <ele>812.93212890625</ele>
        <time>2016-05-22T08:05:35Z</time>
      </trkpt>
      <trkpt lat="45.6089" lon="6.77142">
        <ele>810.0478515625</ele>
        <time>2016-05-22T08:05:42Z</time>
      </trkpt>
      <trkpt lat="45.60914" lon="6.77148">
        <ele>813.41284179688</ele>
        <time>2016-05-22T08:05:47Z</time>
      </trkpt>
      <trkpt lat="45.60929" lon="6.77152">
        <ele>811.48999023438</ele>
        <time>2016-05-22T08:05:51Z</time>
      </trkpt>
      <trkpt lat="45.60958" lon="6.77163">
        <ele>813.89331054688</ele>
        <time>2016-05-22T08:05:59Z</time>
      </trkpt>
      <trkpt lat="45.60986" lon="6.77176">
        <ele>818.21923828125</ele>
        <time>2016-05-22T08:06:06Z</time>
      </trkpt>
      <trkpt lat="45.60991" lon="6.77178">
        <ele>817.25805664062</ele>
        <time>2016-05-22T08:06:07Z</time>
      </trkpt>
      <trkpt lat="45.61016" lon="6.77189">
        <ele>817.25805664062</ele>
        <time>2016-05-22T08:06:12Z</time>
      </trkpt>
      <trkpt lat="45.61071" lon="6.77221">
        <ele>816.77734375</ele>
        <time>2016-05-22T08:06:23Z</time>
      </trkpt>
      <trkpt lat="45.61111" lon="6.7725">
        <ele>819.1806640625</ele>
        <time>2016-05-22T08:06:31Z</time>
      </trkpt>
      <trkpt lat="45.61128" lon="6.77267">
        <ele>819.1806640625</ele>
        <time>2016-05-22T08:06:35Z</time>
      </trkpt>
      <trkpt lat="45.61158" lon="6.77301">
        <ele>816.29663085938</ele>
        <time>2016-05-22T08:06:42Z</time>
      </trkpt>
      <trkpt lat="45.61166" lon="6.77327">
        <ele>815.33544921875</ele>
        <time>2016-05-22T08:06:46Z</time>
      </trkpt>
      <trkpt lat="45.61155" lon="6.77346">
        <ele>817.25805664062</ele>
        <time>2016-05-22T08:06:49Z</time>
      </trkpt>
      <trkpt lat="45.61133" lon="6.77385">
        <ele>819.66137695312</ele>
        <time>2016-05-22T08:06:55Z</time>
      </trkpt>
      <trkpt lat="45.61127" lon="6.77405">
        <ele>816.77734375</ele>
        <time>2016-05-22T08:06:58Z</time>
      </trkpt>
      <trkpt lat="45.61132" lon="6.77426">
        <ele>816.77734375</ele>
        <time>2016-05-22T08:07:01Z</time>
      </trkpt>
      <trkpt lat="45.61142" lon="6.77446">
        <ele>817.73852539062</ele>
        <time>2016-05-22T08:07:05Z</time>
      </trkpt>
      <trkpt lat="45.61149" lon="6.77456">
        <ele>821.58374023438</ele>
        <time>2016-05-22T08:07:07Z</time>
      </trkpt>
      <trkpt lat="45.61152" lon="6.77462">
        <ele>821.10327148438</ele>
        <time>2016-05-22T08:07:08Z</time>
      </trkpt>
      <trkpt lat="45.61159" lon="6.77474">
        <ele>819.1806640625</ele>
        <time>2016-05-22T08:07:10Z</time>
      </trkpt>
      <trkpt lat="45.61167" lon="6.77487">
        <ele>820.14184570312</ele>
        <time>2016-05-22T08:07:12Z</time>
      </trkpt>
      <trkpt lat="45.61186" lon="6.77545">
        <ele>818.21923828125</ele>
        <time>2016-05-22T08:07:20Z</time>
      </trkpt>
      <trkpt lat="45.61189" lon="6.7756">
        <ele>816.77734375</ele>
        <time>2016-05-22T08:07:22Z</time>
      </trkpt>
      <trkpt lat="45.61193" lon="6.77582">
        <ele>814.85473632812</ele>
        <time>2016-05-22T08:07:25Z</time>
      </trkpt>
      <trkpt lat="45.61202" lon="6.77635">
        <ele>814.3740234375</ele>
        <time>2016-05-22T08:07:32Z</time>
      </trkpt>
      <trkpt lat="45.61204" lon="6.77643">
        <ele>813.89331054688</ele>
        <time>2016-05-22T08:07:33Z</time>
      </trkpt>
      <trkpt lat="45.61222" lon="6.77676">
        <ele>814.85473632812</ele>
        <time>2016-05-22T08:07:38Z</time>
      </trkpt>
      <trkpt lat="45.61243" lon="6.77693">
        <ele>814.3740234375</ele>
        <time>2016-05-22T08:07:42Z</time>
      </trkpt>
      <trkpt lat="45.61279" lon="6.77705">
        <ele>815.33544921875</ele>
        <time>2016-05-22T08:07:48Z</time>
      </trkpt>
      <trkpt lat="45.61302" lon="6.77707">
        <ele>818.69995117188</ele>
        <time>2016-05-22T08:07:52Z</time>
      </trkpt>
      <trkpt lat="45.61307" lon="6.77708">
        <ele>818.21923828125</ele>
        <time>2016-05-22T08:07:53Z</time>
      </trkpt>
      <trkpt lat="45.61344" lon="6.77725">
        <ele>817.73852539062</ele>
        <time>2016-05-22T08:08:00Z</time>
      </trkpt>
      <trkpt lat="45.61365" lon="6.77737">
        <ele>816.29663085938</ele>
        <time>2016-05-22T08:08:04Z</time>
      </trkpt>
      <trkpt lat="45.6139" lon="6.7776">
        <ele>815.81616210938</ele>
        <time>2016-05-22T08:08:09Z</time>
      </trkpt>
      <trkpt lat="45.61415" lon="6.77795">
        <ele>818.21923828125</ele>
        <time>2016-05-22T08:08:15Z</time>
      </trkpt>
      <trkpt lat="45.61424" lon="6.77822">
        <ele>817.25805664062</ele>
        <time>2016-05-22T08:08:19Z</time>
      </trkpt>
      <trkpt lat="45.61429" lon="6.77873">
        <ele>817.73852539062</ele>
        <time>2016-05-22T08:08:26Z</time>
      </trkpt>
      <trkpt lat="45.61429" lon="6.77895">
        <ele>818.21923828125</ele>
        <time>2016-05-22T08:08:29Z</time>
      </trkpt>
      <trkpt lat="45.61433" lon="6.77923">
        <ele>818.21923828125</ele>
        <time>2016-05-22T08:08:33Z</time>
      </trkpt>
      <trkpt lat="45.61439" lon="6.77942">
        <ele>818.21923828125</ele>
        <time>2016-05-22T08:08:36Z</time>
      </trkpt>
      <trkpt lat="45.61465" lon="6.77999">
        <ele>817.25805664062</ele>
        <time>2016-05-22T08:08:46Z</time>
      </trkpt>
      <trkpt lat="45.61466" lon="6.78005">
        <ele>817.25805664062</ele>
        <time>2016-05-22T08:08:47Z</time>
      </trkpt>
      <trkpt lat="45.61478" lon="6.78061">
        <ele>819.66137695312</ele>
        <time>2016-05-22T08:08:55Z</time>
      </trkpt>
      <trkpt lat="45.61482" lon="6.78075">
        <ele>819.1806640625</ele>
        <time>2016-05-22T08:08:57Z</time>
      </trkpt>
      <trkpt lat="45.6151" lon="6.78123">
        <ele>815.33544921875</ele>
        <time>2016-05-22T08:09:05Z</time>
      </trkpt>
      <trkpt lat="45.61513" lon="6.78128">
        <ele>814.85473632812</ele>
        <time>2016-05-22T08:09:06Z</time>
      </trkpt>
      <trkpt lat="45.61523" lon="6.78148">
        <ele>818.21923828125</ele>
        <time>2016-05-22T08:09:09Z</time>
      </trkpt>
      <trkpt lat="45.61528" lon="6.78162">
        <ele>818.21923828125</ele>
        <time>2016-05-22T08:09:11Z</time>
      </trkpt>
      <trkpt lat="45.61537" lon="6.78222">
        <ele>816.29663085938</ele>
        <time>2016-05-22T08:09:19Z</time>
      </trkpt>
      <trkpt lat="45.61539" lon="6.7823">
        <ele>816.29663085938</ele>
        <time>2016-05-22T08:09:20Z</time>
      </trkpt>
      <trkpt lat="45.61547" lon="6.78253">
        <ele>815.33544921875</ele>
        <time>2016-05-22T08:09:23Z</time>
      </trkpt>
      <trkpt lat="45.61576" lon="6.78312">
        <ele>815.81616210938</ele>
        <time>2016-05-22T08:09:31Z</time>
      </trkpt>
      <trkpt lat="45.61593" lon="6.78372">
        <ele>815.33544921875</ele>
        <time>2016-05-22T08:09:39Z</time>
      </trkpt>
      <trkpt lat="45.61594" lon="6.78378">
        <ele>815.33544921875</ele>
        <time>2016-05-22T08:09:40Z</time>
      </trkpt>
      <trkpt lat="45.61596" lon="6.78384">
        <ele>815.33544921875</ele>
        <time>2016-05-22T08:09:41Z</time>
      </trkpt>
      <trkpt lat="45.61599" lon="6.78396">
        <ele>815.81616210938</ele>
        <time>2016-05-22T08:09:43Z</time>
      </trkpt>
      <trkpt lat="45.61611" lon="6.78425">
        <ele>818.21923828125</ele>
        <time>2016-05-22T08:09:49Z</time>
      </trkpt>
      <trkpt lat="45.61612" lon="6.7843">
        <ele>821.10327148438</ele>
        <time>2016-05-22T08:09:50Z</time>
      </trkpt>
      <trkpt lat="45.61613" lon="6.78433">
        <ele>821.10327148438</ele>
        <time>2016-05-22T08:09:51Z</time>
      </trkpt>
      <trkpt lat="45.6162" lon="6.78454">
        <ele>820.62255859375</ele>
        <time>2016-05-22T08:09:56Z</time>
      </trkpt>
      <trkpt lat="45.61623" lon="6.78464">
        <ele>817.73852539062</ele>
        <time>2016-05-22T08:09:58Z</time>
      </trkpt>
      <trkpt lat="45.61634" lon="6.78496">
        <ele>818.69995117188</ele>
        <time>2016-05-22T08:10:04Z</time>
      </trkpt>
      <trkpt lat="45.61635" lon="6.78503">
        <ele>817.73852539062</ele>
        <time>2016-05-22T08:10:05Z</time>
      </trkpt>
      <trkpt lat="45.61648" lon="6.78534">
        <ele>822.064453125</ele>
        <time>2016-05-22T08:10:10Z</time>
      </trkpt>
      <trkpt lat="45.61651" lon="6.78541">
        <ele>822.54516601562</ele>
        <time>2016-05-22T08:10:11Z</time>
      </trkpt>
      <trkpt lat="45.61658" lon="6.78559">
        <ele>820.62255859375</ele>
        <time>2016-05-22T08:10:14Z</time>
      </trkpt>
      <trkpt lat="45.61674" lon="6.78608">
        <ele>820.14184570312</ele>
        <time>2016-05-22T08:10:21Z</time>
      </trkpt>
      <trkpt lat="45.61685" lon="6.78643">
        <ele>820.14184570312</ele>
        <time>2016-05-22T08:10:26Z</time>
      </trkpt>
      <trkpt lat="45.61692" lon="6.78663">
        <ele>822.54516601562</ele>
        <time>2016-05-22T08:10:29Z</time>
      </trkpt>
      <trkpt lat="45.61699" lon="6.78681">
        <ele>819.66137695312</ele>
        <time>2016-05-22T08:10:32Z</time>
      </trkpt>
      <trkpt lat="45.61707" lon="6.78698">
        <ele>821.58374023438</ele>
        <time>2016-05-22T08:10:35Z</time>
      </trkpt>
      <trkpt lat="45.61718" lon="6.78716">
        <ele>816.77734375</ele>
        <time>2016-05-22T08:10:39Z</time>
      </trkpt>
      <trkpt lat="45.6172" lon="6.7872">
        <ele>817.25805664062</ele>
        <time>2016-05-22T08:10:40Z</time>
      </trkpt>
      <trkpt lat="45.61736" lon="6.78746">
        <ele>818.21923828125</ele>
        <time>2016-05-22T08:10:46Z</time>
      </trkpt>
      <trkpt lat="45.61752" lon="6.78768">
        <ele>818.69995117188</ele>
        <time>2016-05-22T08:10:52Z</time>
      </trkpt>
      <trkpt lat="45.61769" lon="6.78791">
        <ele>817.73852539062</ele>
        <time>2016-05-22T08:10:58Z</time>
      </trkpt>
      <trkpt lat="45.61771" lon="6.78807">
        <ele>818.69995117188</ele>
        <time>2016-05-22T08:11:01Z</time>
      </trkpt>
      <trkpt lat="45.6177" lon="6.78812">
        <ele>819.1806640625</ele>
        <time>2016-05-22T08:11:02Z</time>
      </trkpt>
      <trkpt lat="45.61766" lon="6.78822">
        <ele>819.1806640625</ele>
        <time>2016-05-22T08:11:04Z</time>
      </trkpt>
      <trkpt lat="45.61764" lon="6.78834">
        <ele>820.14184570312</ele>
        <time>2016-05-22T08:11:06Z</time>
      </trkpt>
      <trkpt lat="45.61768" lon="6.7885">
        <ele>821.10327148438</ele>
        <time>2016-05-22T08:11:09Z</time>
      </trkpt>
      <trkpt lat="45.61772" lon="6.78854">
        <ele>821.10327148438</ele>
        <time>2016-05-22T08:11:10Z</time>
      </trkpt>
      <trkpt lat="45.61779" lon="6.78859">
        <ele>817.73852539062</ele>
        <time>2016-05-22T08:11:12Z</time>
      </trkpt>
      <trkpt lat="45.61783" lon="6.78862">
        <ele>819.1806640625</ele>
        <time>2016-05-22T08:11:13Z</time>
      </trkpt>
      <trkpt lat="45.61792" lon="6.78866">
        <ele>817.25805664062</ele>
        <time>2016-05-22T08:11:16Z</time>
      </trkpt>
      <trkpt lat="45.61804" lon="6.78868">
        <ele>819.1806640625</ele>
        <time>2016-05-22T08:11:20Z</time>
      </trkpt>
      <trkpt lat="45.61812" lon="6.7887">
        <ele>819.1806640625</ele>
        <time>2016-05-22T08:11:23Z</time>
      </trkpt>
      <trkpt lat="45.61821" lon="6.78866">
        <ele>816.77734375</ele>
        <time>2016-05-22T08:11:27Z</time>
      </trkpt>
      <trkpt lat="45.61818" lon="6.78859">
        <ele>817.25805664062</ele>
        <time>2016-05-22T08:17:20Z</time>
      </trkpt>
      <trkpt lat="45.61815" lon="6.78857">
        <ele>816.77734375</ele>
        <time>2016-05-22T08:17:21Z</time>
      </trkpt>
      <trkpt lat="45.61798" lon="6.78838">
        <ele>816.29663085938</ele>
        <time>2016-05-22T08:17:29Z</time>
      </trkpt>
      <trkpt lat="45.61783" lon="6.78823">
        <ele>817.25805664062</ele>
        <time>2016-05-22T08:17:36Z</time>
      </trkpt>
      <trkpt lat="45.61765" lon="6.78816">
        <ele>818.69995117188</ele>
        <time>2016-05-22T08:17:41Z</time>
      </trkpt>
      <trkpt lat="45.61751" lon="6.78802">
        <ele>817.73852539062</ele>
        <time>2016-05-22T08:17:45Z</time>
      </trkpt>
      <trkpt lat="45.61748" lon="6.78796">
        <ele>817.73852539062</ele>
        <time>2016-05-22T08:17:46Z</time>
      </trkpt>
      <trkpt lat="45.61739" lon="6.78772">
        <ele>819.66137695312</ele>
        <time>2016-05-22T08:17:50Z</time>
      </trkpt>
      <trkpt lat="45.61725" lon="6.78751">
        <ele>818.21923828125</ele>
        <time>2016-05-22T08:17:54Z</time>
      </trkpt>
      <trkpt lat="45.61714" lon="6.78735">
        <ele>819.66137695312</ele>
        <time>2016-05-22T08:17:57Z</time>
      </trkpt>
      <trkpt lat="45.61702" lon="6.78714">
        <ele>819.1806640625</ele>
        <time>2016-05-22T08:18:01Z</time>
      </trkpt>
      <trkpt lat="45.61693" lon="6.78698">
        <ele>817.73852539062</ele>
        <time>2016-05-22T08:18:04Z</time>
      </trkpt>
      <trkpt lat="45.6169" lon="6.78693">
        <ele>818.69995117188</ele>
        <time>2016-05-22T08:18:05Z</time>
      </trkpt>
      <trkpt lat="45.61681" lon="6.78673">
        <ele>820.14184570312</ele>
        <time>2016-05-22T08:18:09Z</time>
      </trkpt>
      <trkpt lat="45.61672" lon="6.78652">
        <ele>823.02587890625</ele>
        <time>2016-05-22T08:18:14Z</time>
      </trkpt>
      <trkpt lat="45.61663" lon="6.7863">
        <ele>823.50659179688</ele>
        <time>2016-05-22T08:18:19Z</time>
      </trkpt>
      <trkpt lat="45.61647" lon="6.7859">
        <ele>824.4677734375</ele>
        <time>2016-05-22T08:18:28Z</time>
      </trkpt>
      <trkpt lat="45.61634" lon="6.78562">
        <ele>825.42895507812</ele>
        <time>2016-05-22T08:18:35Z</time>
      </trkpt>
      <trkpt lat="45.61627" lon="6.78546">
        <ele>827.35180664062</ele>
        <time>2016-05-22T08:18:39Z</time>
      </trkpt>
      <trkpt lat="45.61615" lon="6.78522">
        <ele>830.23583984375</ele>
        <time>2016-05-22T08:18:45Z</time>
      </trkpt>
      <trkpt lat="45.616" lon="6.78493">
        <ele>832.15844726562</ele>
        <time>2016-05-22T08:18:52Z</time>
      </trkpt>
      <trkpt lat="45.61583" lon="6.78461">
        <ele>833.60034179688</ele>
        <time>2016-05-22T08:19:00Z</time>
      </trkpt>
      <trkpt lat="45.61577" lon="6.78449">
        <ele>836.00366210938</ele>
        <time>2016-05-22T08:19:03Z</time>
      </trkpt>
      <trkpt lat="45.61561" lon="6.78417">
        <ele>837.92626953125</ele>
        <time>2016-05-22T08:19:11Z</time>
      </trkpt>
      <trkpt lat="45.61545" lon="6.78385">
        <ele>837.92626953125</ele>
        <time>2016-05-22T08:19:19Z</time>
      </trkpt>
      <trkpt lat="45.61527" lon="6.78352">
        <ele>839.84887695312</ele>
        <time>2016-05-22T08:19:28Z</time>
      </trkpt>
      <trkpt lat="45.61522" lon="6.78345">
        <ele>841.29077148438</ele>
        <time>2016-05-22T08:19:30Z</time>
      </trkpt>
      <trkpt lat="45.61508" lon="6.78318">
        <ele>846.57836914062</ele>
        <time>2016-05-22T08:19:37Z</time>
      </trkpt>
      <trkpt lat="45.61506" lon="6.78314">
        <ele>846.57836914062</ele>
        <time>2016-05-22T08:19:38Z</time>
      </trkpt>
      <trkpt lat="45.61492" lon="6.78282">
        <ele>845.61694335938</ele>
        <time>2016-05-22T08:19:46Z</time>
      </trkpt>
      <trkpt lat="45.6148" lon="6.78259">
        <ele>845.61694335938</ele>
        <time>2016-05-22T08:19:52Z</time>
      </trkpt>
      <trkpt lat="45.61476" lon="6.78252">
        <ele>848.9814453125</ele>
        <time>2016-05-22T08:19:54Z</time>
      </trkpt>
      <trkpt lat="45.61461" lon="6.78233">
        <ele>848.9814453125</ele>
        <time>2016-05-22T08:20:00Z</time>
      </trkpt>
      <trkpt lat="45.61446" lon="6.78208">
        <ele>850.42358398438</ele>
        <time>2016-05-22T08:20:07Z</time>
      </trkpt>
      <trkpt lat="45.61434" lon="6.78181">
        <ele>851.86547851562</ele>
        <time>2016-05-22T08:20:14Z</time>
      </trkpt>
      <trkpt lat="45.61427" lon="6.78165">
        <ele>855.22998046875</ele>
        <time>2016-05-22T08:20:18Z</time>
      </trkpt>
      <trkpt lat="45.61417" lon="6.78142">
        <ele>856.19116210938</ele>
        <time>2016-05-22T08:20:24Z</time>
      </trkpt>
      <trkpt lat="45.61403" lon="6.78115">
        <ele>859.55590820312</ele>
        <time>2016-05-22T08:20:31Z</time>
      </trkpt>
      <trkpt lat="45.61388" lon="6.78091">
        <ele>860.03662109375</ele>
        <time>2016-05-22T08:20:37Z</time>
      </trkpt>
      <trkpt lat="45.61381" lon="6.78081">
        <ele>862.92065429688</ele>
        <time>2016-05-22T08:20:40Z</time>
      </trkpt>
      <trkpt lat="45.6136" lon="6.78045">
        <ele>863.4013671875</ele>
        <time>2016-05-22T08:20:50Z</time>
      </trkpt>
      <trkpt lat="45.61343" lon="6.78016">
        <ele>863.8818359375</ele>
        <time>2016-05-22T08:20:57Z</time>
      </trkpt>
      <trkpt lat="45.6132" lon="6.77989">
        <ele>864.84326171875</ele>
        <time>2016-05-22T08:21:05Z</time>
      </trkpt>
      <trkpt lat="45.61299" lon="6.77981">
        <ele>866.76586914062</ele>
        <time>2016-05-22T08:21:11Z</time>
      </trkpt>
      <trkpt lat="45.61274" lon="6.77988">
        <ele>868.20776367188</ele>
        <time>2016-05-22T08:21:18Z</time>
      </trkpt>
      <trkpt lat="45.6126" lon="6.77989">
        <ele>869.64990234375</ele>
        <time>2016-05-22T08:21:22Z</time>
      </trkpt>
      <trkpt lat="45.61249" lon="6.77978">
        <ele>869.64990234375</ele>
        <time>2016-05-22T08:21:26Z</time>
      </trkpt>
      <trkpt lat="45.61241" lon="6.77957">
        <ele>870.61108398438</ele>
        <time>2016-05-22T08:21:31Z</time>
      </trkpt>
      <trkpt lat="45.61229" lon="6.77922">
        <ele>873.01440429688</ele>
        <time>2016-05-22T08:21:39Z</time>
      </trkpt>
      <trkpt lat="45.61214" lon="6.77894">
        <ele>873.9755859375</ele>
        <time>2016-05-22T08:21:46Z</time>
      </trkpt>
      <trkpt lat="45.612" lon="6.77873">
        <ele>874.93701171875</ele>
        <time>2016-05-22T08:21:52Z</time>
      </trkpt>
      <trkpt lat="45.61185" lon="6.77852">
        <ele>875.41748046875</ele>
        <time>2016-05-22T08:21:58Z</time>
      </trkpt>
      <trkpt lat="45.6118" lon="6.77846">
        <ele>878.3017578125</ele>
        <time>2016-05-22T08:22:00Z</time>
      </trkpt>
      <trkpt lat="45.61156" lon="6.7782">
        <ele>878.3017578125</ele>
        <time>2016-05-22T08:22:09Z</time>
      </trkpt>
      <trkpt lat="45.61138" lon="6.77803">
        <ele>878.78247070312</ele>
        <time>2016-05-22T08:22:15Z</time>
      </trkpt>
      <trkpt lat="45.61119" lon="6.77784">
        <ele>880.705078125</ele>
        <time>2016-05-22T08:22:22Z</time>
      </trkpt>
      <trkpt lat="45.61101" lon="6.77761">
        <ele>881.18579101562</ele>
        <time>2016-05-22T08:22:29Z</time>
      </trkpt>
      <trkpt lat="45.61093" lon="6.77746">
        <ele>883.5888671875</ele>
        <time>2016-05-22T08:22:33Z</time>
      </trkpt>
      <trkpt lat="45.61083" lon="6.7772">
        <ele>885.03100585938</ele>
        <time>2016-05-22T08:22:39Z</time>
      </trkpt>
      <trkpt lat="45.6108" lon="6.77712">
        <ele>886.47290039062</ele>
        <time>2016-05-22T08:22:41Z</time>
      </trkpt>
      <trkpt lat="45.61069" lon="6.77682">
        <ele>888.3955078125</ele>
        <time>2016-05-22T08:22:48Z</time>
      </trkpt>
      <trkpt lat="45.61056" lon="6.77661">
        <ele>889.35668945312</ele>
        <time>2016-05-22T08:22:54Z</time>
      </trkpt>
      <trkpt lat="45.61035" lon="6.77653">
        <ele>890.31811523438</ele>
        <time>2016-05-22T08:23:00Z</time>
      </trkpt>
      <trkpt lat="45.61014" lon="6.77661">
        <ele>890.31811523438</ele>
        <time>2016-05-22T08:23:06Z</time>
      </trkpt>
      <trkpt lat="45.60992" lon="6.77665">
        <ele>890.79858398438</ele>
        <time>2016-05-22T08:23:12Z</time>
      </trkpt>
      <trkpt lat="45.6098" lon="6.77653">
        <ele>892.24096679688</ele>
        <time>2016-05-22T08:23:16Z</time>
      </trkpt>
      <trkpt lat="45.60974" lon="6.77636">
        <ele>893.2021484375</ele>
        <time>2016-05-22T08:23:20Z</time>
      </trkpt>
      <trkpt lat="45.60973" lon="6.77621">
        <ele>891.279296875</ele>
        <time>2016-05-22T08:23:23Z</time>
      </trkpt>
      <trkpt lat="45.60969" lon="6.77596">
        <ele>893.68286132812</ele>
        <time>2016-05-22T08:23:28Z</time>
      </trkpt>
      <trkpt lat="45.60963" lon="6.77584">
        <ele>897.52807617188</ele>
        <time>2016-05-22T08:23:31Z</time>
      </trkpt>
      <trkpt lat="45.60947" lon="6.77571">
        <ele>899.45068359375</ele>
        <time>2016-05-22T08:23:36Z</time>
      </trkpt>
      <trkpt lat="45.60928" lon="6.77562">
        <ele>899.45068359375</ele>
        <time>2016-05-22T08:23:42Z</time>
      </trkpt>
      <trkpt lat="45.6092" lon="6.77557">
        <ele>902.81518554688</ele>
        <time>2016-05-22T08:23:45Z</time>
      </trkpt>
      <trkpt lat="45.60899" lon="6.77547">
        <ele>902.81518554688</ele>
        <time>2016-05-22T08:23:52Z</time>
      </trkpt>
      <trkpt lat="45.60871" lon="6.77532">
        <ele>903.77661132812</ele>
        <time>2016-05-22T08:24:01Z</time>
      </trkpt>
      <trkpt lat="45.60852" lon="6.77515">
        <ele>905.69921875</ele>
        <time>2016-05-22T08:24:08Z</time>
      </trkpt>
      <trkpt lat="45.60839" lon="6.77498">
        <ele>907.14111328125</ele>
        <time>2016-05-22T08:24:13Z</time>
      </trkpt>
      <trkpt lat="45.60824" lon="6.77476">
        <ele>910.02514648438</ele>
        <time>2016-05-22T08:24:19Z</time>
      </trkpt>
      <trkpt lat="45.60806" lon="6.7746">
        <ele>911.46728515625</ele>
        <time>2016-05-22T08:24:25Z</time>
      </trkpt>
      <trkpt lat="45.60777" lon="6.77444">
        <ele>912.42846679688</ele>
        <time>2016-05-22T08:24:35Z</time>
      </trkpt>
      <trkpt lat="45.60749" lon="6.7743">
        <ele>914.35107421875</ele>
        <time>2016-05-22T08:24:44Z</time>
      </trkpt>
      <trkpt lat="45.6073" lon="6.77417">
        <ele>915.79321289062</ele>
        <time>2016-05-22T08:24:50Z</time>
      </trkpt>
      <trkpt lat="45.6071" lon="6.77398">
        <ele>917.23510742188</ele>
        <time>2016-05-22T08:24:57Z</time>
      </trkpt>
      <trkpt lat="45.60686" lon="6.77378">
        <ele>919.15771484375</ele>
        <time>2016-05-22T08:25:05Z</time>
      </trkpt>
      <trkpt lat="45.60663" lon="6.77368">
        <ele>920.11889648438</ele>
        <time>2016-05-22T08:25:12Z</time>
      </trkpt>
      <trkpt lat="45.60629" lon="6.77352">
        <ele>921.56079101562</ele>
        <time>2016-05-22T08:25:22Z</time>
      </trkpt>
      <trkpt lat="45.60603" lon="6.77341">
        <ele>922.52221679688</ele>
        <time>2016-05-22T08:25:30Z</time>
      </trkpt>
      <trkpt lat="45.60586" lon="6.77337">
        <ele>925.88696289062</ele>
        <time>2016-05-22T08:25:36Z</time>
      </trkpt>
      <trkpt lat="45.60563" lon="6.77337">
        <ele>926.84838867188</ele>
        <time>2016-05-22T08:25:43Z</time>
      </trkpt>
      <trkpt lat="45.60552" lon="6.77338">
        <ele>930.212890625</ele>
        <time>2016-05-22T08:25:46Z</time>
      </trkpt>
      <trkpt lat="45.60549" lon="6.77337">
        <ele>929.73217773438</ele>
        <time>2016-05-22T08:25:47Z</time>
      </trkpt>
      <trkpt lat="45.60543" lon="6.77336">
        <ele>928.77099609375</ele>
        <time>2016-05-22T08:25:49Z</time>
      </trkpt>
      <trkpt lat="45.60522" lon="6.77334">
        <ele>930.69360351562</ele>
        <time>2016-05-22T08:25:56Z</time>
      </trkpt>
      <trkpt lat="45.60502" lon="6.77327">
        <ele>932.13549804688</ele>
        <time>2016-05-22T08:26:02Z</time>
      </trkpt>
      <trkpt lat="45.60492" lon="6.77322">
        <ele>933.57739257812</ele>
        <time>2016-05-22T08:26:05Z</time>
      </trkpt>
      <trkpt lat="45.60475" lon="6.7731">
        <ele>934.53881835938</ele>
        <time>2016-05-22T08:26:11Z</time>
      </trkpt>
      <trkpt lat="45.60461" lon="6.77298">
        <ele>936.46142578125</ele>
        <time>2016-05-22T08:26:16Z</time>
      </trkpt>
      <trkpt lat="45.60441" lon="6.77286">
        <ele>938.86474609375</ele>
        <time>2016-05-22T08:26:22Z</time>
      </trkpt>
      <trkpt lat="45.60418" lon="6.77277">
        <ele>940.30688476562</ele>
        <time>2016-05-22T08:26:29Z</time>
      </trkpt>
      <trkpt lat="45.60397" lon="6.77273">
        <ele>942.2294921875</ele>
        <time>2016-05-22T08:26:35Z</time>
      </trkpt>
      <trkpt lat="45.60372" lon="6.77272">
        <ele>943.67138671875</ele>
        <time>2016-05-22T08:26:42Z</time>
      </trkpt>
      <trkpt lat="45.60349" lon="6.77284">
        <ele>945.11328125</ele>
        <time>2016-05-22T08:26:49Z</time>
      </trkpt>
      <trkpt lat="45.60331" lon="6.77287">
        <ele>945.59399414062</ele>
        <time>2016-05-22T08:26:54Z</time>
      </trkpt>
      <trkpt lat="45.60315" lon="6.77272">
        <ele>946.55541992188</ele>
        <time>2016-05-22T08:26:59Z</time>
      </trkpt>
      <trkpt lat="45.60289" lon="6.7725">
        <ele>949.43920898438</ele>
        <time>2016-05-22T08:27:07Z</time>
      </trkpt>
      <trkpt lat="45.60268" lon="6.77242">
        <ele>951.36181640625</ele>
        <time>2016-05-22T08:27:13Z</time>
      </trkpt>
      <trkpt lat="45.60234" lon="6.77238">
        <ele>952.8037109375</ele>
        <time>2016-05-22T08:27:22Z</time>
      </trkpt>
      <trkpt lat="45.60204" lon="6.77237">
        <ele>954.24584960938</ele>
        <time>2016-05-22T08:27:30Z</time>
      </trkpt>
      <trkpt lat="45.60177" lon="6.77227">
        <ele>955.68774414062</ele>
        <time>2016-05-22T08:27:38Z</time>
      </trkpt>
      <trkpt lat="45.60158" lon="6.77204">
        <ele>957.1298828125</ele>
        <time>2016-05-22T08:27:45Z</time>
      </trkpt>
      <trkpt lat="45.60139" lon="6.77181">
        <ele>958.57177734375</ele>
        <time>2016-05-22T08:27:52Z</time>
      </trkpt>
      <trkpt lat="45.60124" lon="6.77168">
        <ele>961.45581054688</ele>
        <time>2016-05-22T08:27:57Z</time>
      </trkpt>
      <trkpt lat="45.60121" lon="6.77165">
        <ele>961.9365234375</ele>
        <time>2016-05-22T08:27:58Z</time>
      </trkpt>
      <trkpt lat="45.60105" lon="6.77151">
        <ele>962.89770507812</ele>
        <time>2016-05-22T08:28:04Z</time>
      </trkpt>
      <trkpt lat="45.60086" lon="6.77132">
        <ele>965.30102539062</ele>
        <time>2016-05-22T08:28:12Z</time>
      </trkpt>
      <trkpt lat="45.60071" lon="6.77116">
        <ele>966.26220703125</ele>
        <time>2016-05-22T08:28:18Z</time>
      </trkpt>
      <trkpt lat="45.60058" lon="6.77105">
        <ele>968.66552734375</ele>
        <time>2016-05-22T08:28:23Z</time>
      </trkpt>
      <trkpt lat="45.60041" lon="6.7709">
        <ele>969.626953125</ele>
        <time>2016-05-22T08:28:28Z</time>
      </trkpt>
      <trkpt lat="45.60025" lon="6.77075">
        <ele>970.58813476562</ele>
        <time>2016-05-22T08:28:33Z</time>
      </trkpt>
      <trkpt lat="45.60004" lon="6.77056">
        <ele>971.54931640625</ele>
        <time>2016-05-22T08:28:40Z</time>
      </trkpt>
      <trkpt lat="45.59989" lon="6.77038">
        <ele>972.51098632812</ele>
        <time>2016-05-22T08:28:46Z</time>
      </trkpt>
      <trkpt lat="45.5997" lon="6.77016">
        <ele>973.47241210938</ele>
        <time>2016-05-22T08:28:53Z</time>
      </trkpt>
      <trkpt lat="45.59955" lon="6.76997">
        <ele>975.87548828125</ele>
        <time>2016-05-22T08:28:59Z</time>
      </trkpt>
      <trkpt lat="45.59938" lon="6.76973">
        <ele>977.79809570312</ele>
        <time>2016-05-22T08:29:06Z</time>
      </trkpt>
      <trkpt lat="45.59927" lon="6.76955">
        <ele>979.23999023438</ele>
        <time>2016-05-22T08:29:11Z</time>
      </trkpt>
      <trkpt lat="45.59915" lon="6.76934">
        <ele>981.16284179688</ele>
        <time>2016-05-22T08:29:17Z</time>
      </trkpt>
      <trkpt lat="45.59896" lon="6.76914">
        <ele>984.52734375</ele>
        <time>2016-05-22T08:29:24Z</time>
      </trkpt>
      <trkpt lat="45.5987" lon="6.76905">
        <ele>985.96923828125</ele>
        <time>2016-05-22T08:29:32Z</time>
      </trkpt>
      <trkpt lat="45.59847" lon="6.76901">
        <ele>987.4111328125</ele>
        <time>2016-05-22T08:29:38Z</time>
      </trkpt>
      <trkpt lat="45.59818" lon="6.76886">
        <ele>988.853515625</ele>
        <time>2016-05-22T08:29:46Z</time>
      </trkpt>
      <trkpt lat="45.59799" lon="6.76878">
        <ele>989.81469726562</ele>
        <time>2016-05-22T08:29:52Z</time>
      </trkpt>
      <trkpt lat="45.59793" lon="6.76882">
        <ele>990.77587890625</ele>
        <time>2016-05-22T08:29:54Z</time>
      </trkpt>
      <trkpt lat="45.59791" lon="6.76901">
        <ele>991.7373046875</ele>
        <time>2016-05-22T08:29:58Z</time>
      </trkpt>
      <trkpt lat="45.59803" lon="6.76917">
        <ele>992.69873046875</ele>
        <time>2016-05-22T08:30:02Z</time>
      </trkpt>
      <trkpt lat="45.59819" lon="6.76924">
        <ele>993.17919921875</ele>
        <time>2016-05-22T08:30:06Z</time>
      </trkpt>
      <trkpt lat="45.59863" lon="6.76934">
        <ele>994.62109375</ele>
        <time>2016-05-22T08:30:17Z</time>
      </trkpt>
      <trkpt lat="45.59887" lon="6.76952">
        <ele>996.5439453125</ele>
        <time>2016-05-22T08:30:24Z</time>
      </trkpt>
      <trkpt lat="45.59903" lon="6.76975">
        <ele>997.50512695312</ele>
        <time>2016-05-22T08:30:30Z</time>
      </trkpt>
      <trkpt lat="45.59921" lon="6.77011">
        <ele>997.98583984375</ele>
        <time>2016-05-22T08:30:39Z</time>
      </trkpt>
      <trkpt lat="45.59939" lon="6.77045">
        <ele>999.427734375</ele>
        <time>2016-05-22T08:30:48Z</time>
      </trkpt>
      <trkpt lat="45.59947" lon="6.7706">
        <ele>1000.8696289062</ele>
        <time>2016-05-22T08:30:52Z</time>
      </trkpt>
      <trkpt lat="45.59961" lon="6.77086">
        <ele>1001.8310546875</ele>
        <time>2016-05-22T08:30:59Z</time>
      </trkpt>
      <trkpt lat="45.59985" lon="6.77126">
        <ele>1004.2346191406</ele>
        <time>2016-05-22T08:31:11Z</time>
      </trkpt>
      <trkpt lat="45.60006" lon="6.77159">
        <ele>1005.6765136719</ele>
        <time>2016-05-22T08:31:21Z</time>
      </trkpt>
      <trkpt lat="45.60027" lon="6.77195">
        <ele>1007.5991210938</ele>
        <time>2016-05-22T08:31:32Z</time>
      </trkpt>
      <trkpt lat="45.60038" lon="6.77214">
        <ele>1008.5603027344</ele>
        <time>2016-05-22T08:31:38Z</time>
      </trkpt>
      <trkpt lat="45.60053" lon="6.77238">
        <ele>1010.9636230469</ele>
        <time>2016-05-22T08:31:46Z</time>
      </trkpt>
      <trkpt lat="45.60062" lon="6.77254">
        <ele>1010.9636230469</ele>
        <time>2016-05-22T08:31:51Z</time>
      </trkpt>
      <trkpt lat="45.60075" lon="6.77275">
        <ele>1014.328125</ele>
        <time>2016-05-22T08:31:58Z</time>
      </trkpt>
      <trkpt lat="45.60077" lon="6.77278">
        <ele>1014.328125</ele>
        <time>2016-05-22T08:31:59Z</time>
      </trkpt>
      <trkpt lat="45.60085" lon="6.77299">
        <ele>1016.2507324219</ele>
        <time>2016-05-22T08:32:05Z</time>
      </trkpt>
      <trkpt lat="45.60098" lon="6.7733">
        <ele>1017.2121582031</ele>
        <time>2016-05-22T08:32:14Z</time>
      </trkpt>
      <trkpt lat="45.6011" lon="6.77358">
        <ele>1018.1733398438</ele>
        <time>2016-05-22T08:32:22Z</time>
      </trkpt>
      <trkpt lat="45.60123" lon="6.77373">
        <ele>1019.6154785156</ele>
        <time>2016-05-22T08:32:28Z</time>
      </trkpt>
      <trkpt lat="45.6014" lon="6.77377">
        <ele>1020.5769042969</ele>
        <time>2016-05-22T08:32:34Z</time>
      </trkpt>
      <trkpt lat="45.60164" lon="6.77378">
        <ele>1022.4995117188</ele>
        <time>2016-05-22T08:32:42Z</time>
      </trkpt>
      <trkpt lat="45.60182" lon="6.7739">
        <ele>1025.3833007812</ele>
        <time>2016-05-22T08:32:49Z</time>
      </trkpt>
      <trkpt lat="45.60198" lon="6.77411">
        <ele>1026.3447265625</ele>
        <time>2016-05-22T08:32:56Z</time>
      </trkpt>
      <trkpt lat="45.60215" lon="6.77437">
        <ele>1028.2673339844</ele>
        <time>2016-05-22T08:33:04Z</time>
      </trkpt>
      <trkpt lat="45.60232" lon="6.77456">
        <ele>1029.7092285156</ele>
        <time>2016-05-22T08:33:11Z</time>
      </trkpt>
      <trkpt lat="45.60247" lon="6.7747">
        <ele>1032.1125488281</ele>
        <time>2016-05-22T08:33:17Z</time>
      </trkpt>
      <trkpt lat="45.60265" lon="6.77481">
        <ele>1033.5544433594</ele>
        <time>2016-05-22T08:33:24Z</time>
      </trkpt>
      <trkpt lat="45.60279" lon="6.77496">
        <ele>1034.9965820312</ele>
        <time>2016-05-22T08:33:30Z</time>
      </trkpt>
      <trkpt lat="45.60297" lon="6.77515">
        <ele>1036.9191894531</ele>
        <time>2016-05-22T08:33:37Z</time>
      </trkpt>
      <trkpt lat="45.6032" lon="6.7754">
        <ele>1039.8032226562</ele>
        <time>2016-05-22T08:33:46Z</time>
      </trkpt>
      <trkpt lat="45.60322" lon="6.77543">
        <ele>1039.8032226562</ele>
        <time>2016-05-22T08:33:47Z</time>
      </trkpt>
      <trkpt lat="45.6034" lon="6.77563">
        <ele>1041.2451171875</ele>
        <time>2016-05-22T08:33:54Z</time>
      </trkpt>
      <trkpt lat="45.60363" lon="6.77589">
        <ele>1042.6872558594</ele>
        <time>2016-05-22T08:34:03Z</time>
      </trkpt>
      <trkpt lat="45.60379" lon="6.77608">
        <ele>1044.6096191406</ele>
        <time>2016-05-22T08:34:09Z</time>
      </trkpt>
      <trkpt lat="45.60398" lon="6.77642">
        <ele>1047.0129394531</ele>
        <time>2016-05-22T08:34:18Z</time>
      </trkpt>
      <trkpt lat="45.60419" lon="6.7768">
        <ele>1048.4548339844</ele>
        <time>2016-05-22T08:34:28Z</time>
      </trkpt>
      <trkpt lat="45.60436" lon="6.77699">
        <ele>1049.4162597656</ele>
        <time>2016-05-22T08:34:35Z</time>
      </trkpt>
      <trkpt lat="45.6045" lon="6.7771">
        <ele>1050.3776855469</ele>
        <time>2016-05-22T08:34:41Z</time>
      </trkpt>
      <trkpt lat="45.60463" lon="6.77717">
        <ele>1051.3388671875</ele>
        <time>2016-05-22T08:34:46Z</time>
      </trkpt>
      <trkpt lat="45.60475" lon="6.77723">
        <ele>1052.7810058594</ele>
        <time>2016-05-22T08:34:50Z</time>
      </trkpt>
      <trkpt lat="45.60493" lon="6.77743">
        <ele>1054.2231445312</ele>
        <time>2016-05-22T08:34:57Z</time>
      </trkpt>
      <trkpt lat="45.60502" lon="6.77762">
        <ele>1055.1843261719</ele>
        <time>2016-05-22T08:35:02Z</time>
      </trkpt>
      <trkpt lat="45.60515" lon="6.7779">
        <ele>1057.1069335938</ele>
        <time>2016-05-22T08:35:09Z</time>
      </trkpt>
      <trkpt lat="45.60524" lon="6.7782">
        <ele>1057.1069335938</ele>
        <time>2016-05-22T08:35:16Z</time>
      </trkpt>
      <trkpt lat="45.60528" lon="6.77833">
        <ele>1058.548828125</ele>
        <time>2016-05-22T08:35:19Z</time>
      </trkpt>
      <trkpt lat="45.60535" lon="6.7786">
        <ele>1059.5102539062</ele>
        <time>2016-05-22T08:35:25Z</time>
      </trkpt>
      <trkpt lat="45.60543" lon="6.77887">
        <ele>1059.5102539062</ele>
        <time>2016-05-22T08:35:32Z</time>
      </trkpt>
      <trkpt lat="45.60555" lon="6.77914">
        <ele>1061.4328613281</ele>
        <time>2016-05-22T08:35:38Z</time>
      </trkpt>
      <trkpt lat="45.60575" lon="6.77947">
        <ele>1062.8747558594</ele>
        <time>2016-05-22T08:35:47Z</time>
      </trkpt>
      <trkpt lat="45.60588" lon="6.77966">
        <ele>1064.3166503906</ele>
        <time>2016-05-22T08:35:53Z</time>
      </trkpt>
      <trkpt lat="45.60594" lon="6.77972">
        <ele>1066.2392578125</ele>
        <time>2016-05-22T08:35:55Z</time>
      </trkpt>
      <trkpt lat="45.60604" lon="6.77988">
        <ele>1067.2006835938</ele>
        <time>2016-05-22T08:36:00Z</time>
      </trkpt>
      <trkpt lat="45.6062" lon="6.78012">
        <ele>1067.2006835938</ele>
        <time>2016-05-22T08:36:08Z</time>
      </trkpt>
      <trkpt lat="45.60624" lon="6.78018">
        <ele>1069.1235351562</ele>
        <time>2016-05-22T08:36:10Z</time>
      </trkpt>
      <trkpt lat="45.6064" lon="6.78042">
        <ele>1070.0847167969</ele>
        <time>2016-05-22T08:36:18Z</time>
      </trkpt>
      <trkpt lat="45.60644" lon="6.78048">
        <ele>1071.5266113281</ele>
        <time>2016-05-22T08:36:20Z</time>
      </trkpt>
      <trkpt lat="45.60661" lon="6.78076">
        <ele>1074.4106445312</ele>
        <time>2016-05-22T08:36:29Z</time>
      </trkpt>
      <trkpt lat="45.60678" lon="6.78102">
        <ele>1076.8139648438</ele>
        <time>2016-05-22T08:36:37Z</time>
      </trkpt>
      <trkpt lat="45.60702" lon="6.78136">
        <ele>1079.2170410156</ele>
        <time>2016-05-22T08:36:48Z</time>
      </trkpt>
      <trkpt lat="45.60725" lon="6.78153">
        <ele>1079.6977539062</ele>
        <time>2016-05-22T08:36:56Z</time>
      </trkpt>
      <trkpt lat="45.60756" lon="6.78165">
        <ele>1082.1010742188</ele>
        <time>2016-05-22T08:37:04Z</time>
      </trkpt>
      <trkpt lat="45.60776" lon="6.78174">
        <ele>1082.1010742188</ele>
        <time>2016-05-22T08:37:09Z</time>
      </trkpt>
      <trkpt lat="45.60812" lon="6.78194">
        <ele>1083.0622558594</ele>
        <time>2016-05-22T08:37:17Z</time>
      </trkpt>
      <trkpt lat="45.60848" lon="6.78222">
        <ele>1083.0622558594</ele>
        <time>2016-05-22T08:37:25Z</time>
      </trkpt>
      <trkpt lat="45.60872" lon="6.78244">
        <ele>1084.5046386719</ele>
        <time>2016-05-22T08:37:31Z</time>
      </trkpt>
      <trkpt lat="45.60888" lon="6.78256">
        <ele>1085.9465332031</ele>
        <time>2016-05-22T08:37:35Z</time>
      </trkpt>
      <trkpt lat="45.60916" lon="6.78269">
        <ele>1087.869140625</ele>
        <time>2016-05-22T08:37:42Z</time>
      </trkpt>
      <trkpt lat="45.60934" lon="6.78272">
        <ele>1088.3498535156</ele>
        <time>2016-05-22T08:37:46Z</time>
      </trkpt>
      <trkpt lat="45.60943" lon="6.78274">
        <ele>1088.3498535156</ele>
        <time>2016-05-22T08:37:48Z</time>
      </trkpt>
      <trkpt lat="45.60951" lon="6.78278">
        <ele>1089.3110351562</ele>
        <time>2016-05-22T08:37:50Z</time>
      </trkpt>
      <trkpt lat="45.6096" lon="6.78287">
        <ele>1092.67578125</ele>
        <time>2016-05-22T08:37:53Z</time>
      </trkpt>
      <trkpt lat="45.60963" lon="6.78291">
        <ele>1092.67578125</ele>
        <time>2016-05-22T08:37:54Z</time>
      </trkpt>
      <trkpt lat="45.60984" lon="6.78327">
        <ele>1093.6369628906</ele>
        <time>2016-05-22T08:38:04Z</time>
      </trkpt>
      <trkpt lat="45.60996" lon="6.7837">
        <ele>1093.6369628906</ele>
        <time>2016-05-22T08:38:13Z</time>
      </trkpt>
      <trkpt lat="45.61009" lon="6.78409">
        <ele>1095.0788574219</ele>
        <time>2016-05-22T08:38:21Z</time>
      </trkpt>
      <trkpt lat="45.6102" lon="6.78437">
        <ele>1095.5595703125</ele>
        <time>2016-05-22T08:38:27Z</time>
      </trkpt>
      <trkpt lat="45.61032" lon="6.78452">
        <ele>1097.0014648438</ele>
        <time>2016-05-22T08:38:31Z</time>
      </trkpt>
      <trkpt lat="45.61053" lon="6.78484">
        <ele>1097.4821777344</ele>
        <time>2016-05-22T08:38:38Z</time>
      </trkpt>
      <trkpt lat="45.61075" lon="6.78532">
        <ele>1100.8469238281</ele>
        <time>2016-05-22T08:38:48Z</time>
      </trkpt>
      <trkpt lat="45.61087" lon="6.78551">
        <ele>1102.76953125</ele>
        <time>2016-05-22T08:38:53Z</time>
      </trkpt>
      <trkpt lat="45.61099" lon="6.7856">
        <ele>1105.6535644531</ele>
        <time>2016-05-22T08:38:57Z</time>
      </trkpt>
      <trkpt lat="45.61102" lon="6.78561">
        <ele>1105.6535644531</ele>
        <time>2016-05-22T08:38:58Z</time>
      </trkpt>
      <trkpt lat="45.61114" lon="6.78568">
        <ele>1107.0954589844</ele>
        <time>2016-05-22T08:39:02Z</time>
      </trkpt>
      <trkpt lat="45.61136" lon="6.78587">
        <ele>1107.576171875</ele>
        <time>2016-05-22T08:39:09Z</time>
      </trkpt>
      <trkpt lat="45.61152" lon="6.78613">
        <ele>1109.9792480469</ele>
        <time>2016-05-22T08:39:16Z</time>
      </trkpt>
      <trkpt lat="45.6117" lon="6.78656">
        <ele>1110.9406738281</ele>
        <time>2016-05-22T08:39:27Z</time>
      </trkpt>
      <trkpt lat="45.61175" lon="6.78667">
        <ele>1113.3439941406</ele>
        <time>2016-05-22T08:39:30Z</time>
      </trkpt>
      <trkpt lat="45.61184" lon="6.78685">
        <ele>1112.86328125</ele>
        <time>2016-05-22T08:39:35Z</time>
      </trkpt>
      <trkpt lat="45.61189" lon="6.78695">
        <ele>1115.7473144531</ele>
        <time>2016-05-22T08:39:38Z</time>
      </trkpt>
      <trkpt lat="45.61199" lon="6.78715">
        <ele>1115.7473144531</ele>
        <time>2016-05-22T08:39:44Z</time>
      </trkpt>
      <trkpt lat="45.61206" lon="6.78737">
        <ele>1117.189453125</ele>
        <time>2016-05-22T08:39:50Z</time>
      </trkpt>
      <trkpt lat="45.6121" lon="6.78761">
        <ele>1120.5539550781</ele>
        <time>2016-05-22T08:39:56Z</time>
      </trkpt>
      <trkpt lat="45.61214" lon="6.78791">
        <ele>1122.4765625</ele>
        <time>2016-05-22T08:40:03Z</time>
      </trkpt>
      <trkpt lat="45.61221" lon="6.78825">
        <ele>1122.9572753906</ele>
        <time>2016-05-22T08:40:11Z</time>
      </trkpt>
      <trkpt lat="45.61229" lon="6.78854">
        <ele>1124.3991699219</ele>
        <time>2016-05-22T08:40:18Z</time>
      </trkpt>
      <trkpt lat="45.61239" lon="6.78883">
        <ele>1125.8410644531</ele>
        <time>2016-05-22T08:40:25Z</time>
      </trkpt>
      <trkpt lat="45.61246" lon="6.78903">
        <ele>1127.283203125</ele>
        <time>2016-05-22T08:40:30Z</time>
      </trkpt>
      <trkpt lat="45.61257" lon="6.78932">
        <ele>1129.6862792969</ele>
        <time>2016-05-22T08:40:37Z</time>
      </trkpt>
      <trkpt lat="45.61271" lon="6.78971">
        <ele>1131.6088867188</ele>
        <time>2016-05-22T08:40:46Z</time>
      </trkpt>
      <trkpt lat="45.61273" lon="6.78975">
        <ele>1131.6088867188</ele>
        <time>2016-05-22T08:40:47Z</time>
      </trkpt>
      <trkpt lat="45.61275" lon="6.78997">
        <ele>1130.6477050781</ele>
        <time>2016-05-22T08:40:52Z</time>
      </trkpt>
      <trkpt lat="45.61265" lon="6.79003">
        <ele>1132.5705566406</ele>
        <time>2016-05-22T08:40:56Z</time>
      </trkpt>
      <trkpt lat="45.61256" lon="6.78989">
        <ele>1134.0124511719</ele>
        <time>2016-05-22T08:41:00Z</time>
      </trkpt>
      <trkpt lat="45.61255" lon="6.78984">
        <ele>1133.0510253906</ele>
        <time>2016-05-22T08:41:01Z</time>
      </trkpt>
      <trkpt lat="45.6124" lon="6.7893">
        <ele>1133.5317382812</ele>
        <time>2016-05-22T08:41:10Z</time>
      </trkpt>
      <trkpt lat="45.61216" lon="6.78876">
        <ele>1134.9738769531</ele>
        <time>2016-05-22T08:41:19Z</time>
      </trkpt>
      <trkpt lat="45.61194" lon="6.78829">
        <ele>1136.4157714844</ele>
        <time>2016-05-22T08:41:27Z</time>
      </trkpt>
      <trkpt lat="45.61172" lon="6.78792">
        <ele>1141.2221679688</ele>
        <time>2016-05-22T08:41:34Z</time>
      </trkpt>
      <trkpt lat="45.61168" lon="6.78788">
        <ele>1139.7802734375</ele>
        <time>2016-05-22T08:41:35Z</time>
      </trkpt>
      <trkpt lat="45.61146" lon="6.78763">
        <ele>1143.1447753906</ele>
        <time>2016-05-22T08:41:41Z</time>
      </trkpt>
      <trkpt lat="45.6112" lon="6.78739">
        <ele>1144.5866699219</ele>
        <time>2016-05-22T08:41:48Z</time>
      </trkpt>
      <trkpt lat="45.61099" lon="6.78721">
        <ele>1146.5095214844</ele>
        <time>2016-05-22T08:41:54Z</time>
      </trkpt>
      <trkpt lat="45.6108" lon="6.78701">
        <ele>1147.470703125</ele>
        <time>2016-05-22T08:42:00Z</time>
      </trkpt>
      <trkpt lat="45.61062" lon="6.78678">
        <ele>1149.8742675781</ele>
        <time>2016-05-22T08:42:06Z</time>
      </trkpt>
      <trkpt lat="45.61037" lon="6.78653">
        <ele>1154.2001953125</ele>
        <time>2016-05-22T08:42:14Z</time>
      </trkpt>
      <trkpt lat="45.6103" lon="6.78648">
        <ele>1155.6420898438</ele>
        <time>2016-05-22T08:42:16Z</time>
      </trkpt>
      <trkpt lat="45.60999" lon="6.7863">
        <ele>1155.1613769531</ele>
        <time>2016-05-22T08:42:26Z</time>
      </trkpt>
      <trkpt lat="45.6098" lon="6.78619">
        <ele>1157.083984375</ele>
        <time>2016-05-22T08:42:33Z</time>
      </trkpt>
      <trkpt lat="45.60964" lon="6.7861">
        <ele>1158.0454101562</ele>
        <time>2016-05-22T08:42:39Z</time>
      </trkpt>
      <trkpt lat="45.60951" lon="6.78598">
        <ele>1159.0065917969</ele>
        <time>2016-05-22T08:42:44Z</time>
      </trkpt>
      <trkpt lat="45.60941" lon="6.78588">
        <ele>1160.9291992188</ele>
        <time>2016-05-22T08:42:48Z</time>
      </trkpt>
      <trkpt lat="45.60912" lon="6.78565">
        <ele>1162.37109375</ele>
        <time>2016-05-22T08:42:58Z</time>
      </trkpt>
      <trkpt lat="45.60881" lon="6.78555">
        <ele>1165.7360839844</ele>
        <time>2016-05-22T08:43:08Z</time>
      </trkpt>
      <trkpt lat="45.60856" lon="6.78546">
        <ele>1168.6198730469</ele>
        <time>2016-05-22T08:43:16Z</time>
      </trkpt>
      <trkpt lat="45.60829" lon="6.78536">
        <ele>1169.1005859375</ele>
        <time>2016-05-22T08:43:25Z</time>
      </trkpt>
      <trkpt lat="45.60808" lon="6.78532">
        <ele>1170.5424804688</ele>
        <time>2016-05-22T08:43:32Z</time>
      </trkpt>
      <trkpt lat="45.60783" lon="6.78529">
        <ele>1173.4265136719</ele>
        <time>2016-05-22T08:43:40Z</time>
      </trkpt>
      <trkpt lat="45.60765" lon="6.78526">
        <ele>1174.8684082031</ele>
        <time>2016-05-22T08:43:46Z</time>
      </trkpt>
      <trkpt lat="45.60742" lon="6.78519">
        <ele>1175.8295898438</ele>
        <time>2016-05-22T08:43:53Z</time>
      </trkpt>
      <trkpt lat="45.60724" lon="6.7851">
        <ele>1176.791015625</ele>
        <time>2016-05-22T08:43:59Z</time>
      </trkpt>
      <trkpt lat="45.60708" lon="6.785">
        <ele>1178.2329101562</ele>
        <time>2016-05-22T08:44:05Z</time>
      </trkpt>
      <trkpt lat="45.60692" lon="6.7849">
        <ele>1180.1557617188</ele>
        <time>2016-05-22T08:44:11Z</time>
      </trkpt>
      <trkpt lat="45.60678" lon="6.78482">
        <ele>1182.0783691406</ele>
        <time>2016-05-22T08:44:16Z</time>
      </trkpt>
      <trkpt lat="45.60668" lon="6.78475">
        <ele>1182.5590820312</ele>
        <time>2016-05-22T08:44:20Z</time>
      </trkpt>
      <trkpt lat="45.60651" lon="6.78465">
        <ele>1183.5202636719</ele>
        <time>2016-05-22T08:44:26Z</time>
      </trkpt>
      <trkpt lat="45.60638" lon="6.78455">
        <ele>1184.9624023438</ele>
        <time>2016-05-22T08:44:31Z</time>
      </trkpt>
      <trkpt lat="45.60618" lon="6.78439">
        <ele>1185.4428710938</ele>
        <time>2016-05-22T08:44:38Z</time>
      </trkpt>
      <trkpt lat="45.60602" lon="6.78423">
        <ele>1186.404296875</ele>
        <time>2016-05-22T08:44:44Z</time>
      </trkpt>
      <trkpt lat="45.60588" lon="6.78407">
        <ele>1187.3654785156</ele>
        <time>2016-05-22T08:44:50Z</time>
      </trkpt>
      <trkpt lat="45.60573" lon="6.7839">
        <ele>1189.7687988281</ele>
        <time>2016-05-22T08:44:56Z</time>
      </trkpt>
      <trkpt lat="45.6056" lon="6.78377">
        <ele>1192.1721191406</ele>
        <time>2016-05-22T08:45:01Z</time>
      </trkpt>
      <trkpt lat="45.60542" lon="6.78369">
        <ele>1193.6140136719</ele>
        <time>2016-05-22T08:45:07Z</time>
      </trkpt>
      <trkpt lat="45.60523" lon="6.78364">
        <ele>1195.5366210938</ele>
        <time>2016-05-22T08:45:13Z</time>
      </trkpt>
      <trkpt lat="45.60489" lon="6.78357">
        <ele>1196.9787597656</ele>
        <time>2016-05-22T08:45:23Z</time>
      </trkpt>
      <trkpt lat="45.60463" lon="6.7835">
        <ele>1196.9787597656</ele>
        <time>2016-05-22T08:45:31Z</time>
      </trkpt>
      <trkpt lat="45.60435" lon="6.78329">
        <ele>1199.3820800781</ele>
        <time>2016-05-22T08:45:40Z</time>
      </trkpt>
      <trkpt lat="45.60422" lon="6.78316">
        <ele>1201.7854003906</ele>
        <time>2016-05-22T08:45:45Z</time>
      </trkpt>
      <trkpt lat="45.60392" lon="6.78291">
        <ele>1203.2272949219</ele>
        <time>2016-05-22T08:45:55Z</time>
      </trkpt>
      <trkpt lat="45.60381" lon="6.7828">
        <ele>1205.1499023438</ele>
        <time>2016-05-22T08:45:59Z</time>
      </trkpt>
      <trkpt lat="45.60358" lon="6.78262">
        <ele>1208.0339355469</ele>
        <time>2016-05-22T08:46:07Z</time>
      </trkpt>
      <trkpt lat="45.60332" lon="6.78249">
        <ele>1208.5144042969</ele>
        <time>2016-05-22T08:46:15Z</time>
      </trkpt>
      <trkpt lat="45.60308" lon="6.78238">
        <ele>1210.9177246094</ele>
        <time>2016-05-22T08:46:22Z</time>
      </trkpt>
      <trkpt lat="45.60285" lon="6.78233">
        <ele>1211.8791503906</ele>
        <time>2016-05-22T08:46:29Z</time>
      </trkpt>
      <trkpt lat="45.60268" lon="6.78239">
        <ele>1213.8017578125</ele>
        <time>2016-05-22T08:46:34Z</time>
      </trkpt>
      <trkpt lat="45.60253" lon="6.7826">
        <ele>1213.8017578125</ele>
        <time>2016-05-22T08:46:40Z</time>
      </trkpt>
      <trkpt lat="45.60245" lon="6.78278">
        <ele>1214.7631835938</ele>
        <time>2016-05-22T08:46:44Z</time>
      </trkpt>
      <trkpt lat="45.60226" lon="6.78329">
        <ele>1216.6857910156</ele>
        <time>2016-05-22T08:46:54Z</time>
      </trkpt>
      <trkpt lat="45.60207" lon="6.78372">
        <ele>1217.1665039062</ele>
        <time>2016-05-22T08:47:03Z</time>
      </trkpt>
      <trkpt lat="45.60187" lon="6.78389">
        <ele>1218.6083984375</ele>
        <time>2016-05-22T08:47:09Z</time>
      </trkpt>
      <trkpt lat="45.60168" lon="6.78387">
        <ele>1219.0891113281</ele>
        <time>2016-05-22T08:47:14Z</time>
      </trkpt>
      <trkpt lat="45.60151" lon="6.78375">
        <ele>1221.4921875</ele>
        <time>2016-05-22T08:47:19Z</time>
      </trkpt>
      <trkpt lat="45.60121" lon="6.78356">
        <ele>1223.8955078125</ele>
        <time>2016-05-22T08:47:27Z</time>
      </trkpt>
      <trkpt lat="45.60118" lon="6.78355">
        <ele>1223.8955078125</ele>
        <time>2016-05-22T08:47:28Z</time>
      </trkpt>
      <trkpt lat="45.60087" lon="6.78348">
        <ele>1225.3374023438</ele>
        <time>2016-05-22T08:47:36Z</time>
      </trkpt>
      <trkpt lat="45.60067" lon="6.78337">
        <ele>1226.298828125</ele>
        <time>2016-05-22T08:47:42Z</time>
      </trkpt>
      <trkpt lat="45.60053" lon="6.78316">
        <ele>1227.7407226562</ele>
        <time>2016-05-22T08:47:48Z</time>
      </trkpt>
      <trkpt lat="45.60053" lon="6.78285">
        <ele>1229.6635742188</ele>
        <time>2016-05-22T08:47:54Z</time>
      </trkpt>
      <trkpt lat="45.6006" lon="6.78241">
        <ele>1232.5476074219</ele>
        <time>2016-05-22T08:48:02Z</time>
      </trkpt>
      <trkpt lat="45.60059" lon="6.7821">
        <ele>1235.4313964844</ele>
        <time>2016-05-22T08:48:08Z</time>
      </trkpt>
      <trkpt lat="45.6006" lon="6.78205">
        <ele>1235.912109375</ele>
        <time>2016-05-22T08:48:09Z</time>
      </trkpt>
      <trkpt lat="45.60057" lon="6.78177">
        <ele>1236.3928222656</ele>
        <time>2016-05-22T08:48:15Z</time>
      </trkpt>
      <trkpt lat="45.60046" lon="6.78155">
        <ele>1237.3540039062</ele>
        <time>2016-05-22T08:48:20Z</time>
      </trkpt>
      <trkpt lat="45.60031" lon="6.7814">
        <ele>1239.7573242188</ele>
        <time>2016-05-22T08:48:25Z</time>
      </trkpt>
      <trkpt lat="45.60003" lon="6.78117">
        <ele>1242.6413574219</ele>
        <time>2016-05-22T08:48:34Z</time>
      </trkpt>
      <trkpt lat="45.59987" lon="6.78105">
        <ele>1244.0834960938</ele>
        <time>2016-05-22T08:48:40Z</time>
      </trkpt>
      <trkpt lat="45.59962" lon="6.78087">
        <ele>1246.4868164062</ele>
        <time>2016-05-22T08:48:49Z</time>
      </trkpt>
      <trkpt lat="45.59936" lon="6.78069">
        <ele>1246.9672851562</ele>
        <time>2016-05-22T08:48:58Z</time>
      </trkpt>
      <trkpt lat="45.59914" lon="6.7806">
        <ele>1247.9287109375</ele>
        <time>2016-05-22T08:49:05Z</time>
      </trkpt>
      <trkpt lat="45.59884" lon="6.7806">
        <ele>1249.8513183594</ele>
        <time>2016-05-22T08:49:14Z</time>
      </trkpt>
      <trkpt lat="45.59854" lon="6.78062">
        <ele>1252.7351074219</ele>
        <time>2016-05-22T08:49:23Z</time>
      </trkpt>
      <trkpt lat="45.59847" lon="6.78064">
        <ele>1253.6965332031</ele>
        <time>2016-05-22T08:49:25Z</time>
      </trkpt>
      <trkpt lat="45.59824" lon="6.78073">
        <ele>1255.1384277344</ele>
        <time>2016-05-22T08:49:32Z</time>
      </trkpt>
      <trkpt lat="45.5982" lon="6.78074">
        <ele>1255.1384277344</ele>
        <time>2016-05-22T08:49:33Z</time>
      </trkpt>
      <trkpt lat="45.59798" lon="6.7808">
        <ele>1257.0610351562</ele>
        <time>2016-05-22T08:49:40Z</time>
      </trkpt>
      <trkpt lat="45.5978" lon="6.78083">
        <ele>1258.9836425781</ele>
        <time>2016-05-22T08:49:46Z</time>
      </trkpt>
      <trkpt lat="45.59762" lon="6.78085">
        <ele>1260.9064941406</ele>
        <time>2016-05-22T08:49:51Z</time>
      </trkpt>
      <trkpt lat="45.59738" lon="6.78089">
        <ele>1261.3872070312</ele>
        <time>2016-05-22T08:49:58Z</time>
      </trkpt>
      <trkpt lat="45.59714" lon="6.78092">
        <ele>1263.7902832031</ele>
        <time>2016-05-22T08:50:05Z</time>
      </trkpt>
      <trkpt lat="45.59693" lon="6.78098">
        <ele>1264.7517089844</ele>
        <time>2016-05-22T08:50:12Z</time>
      </trkpt>
      <trkpt lat="45.59664" lon="6.78109">
        <ele>1267.6354980469</ele>
        <time>2016-05-22T08:50:21Z</time>
      </trkpt>
      <trkpt lat="45.59637" lon="6.78124">
        <ele>1269.0776367188</ele>
        <time>2016-05-22T08:50:29Z</time>
      </trkpt>
      <trkpt lat="45.59609" lon="6.78144">
        <ele>1271.4807128906</ele>
        <time>2016-05-22T08:50:38Z</time>
      </trkpt>
      <trkpt lat="45.59586" lon="6.78163">
        <ele>1272.9228515625</ele>
        <time>2016-05-22T08:50:46Z</time>
      </trkpt>
      <trkpt lat="45.5956" lon="6.78177">
        <ele>1273.8840332031</ele>
        <time>2016-05-22T08:50:54Z</time>
      </trkpt>
      <trkpt lat="45.59527" lon="6.78191">
        <ele>1277.2490234375</ele>
        <time>2016-05-22T08:51:04Z</time>
      </trkpt>
      <trkpt lat="45.5951" lon="6.782">
        <ele>1279.1713867188</ele>
        <time>2016-05-22T08:51:09Z</time>
      </trkpt>
      <trkpt lat="45.59484" lon="6.78213">
        <ele>1280.1328125</ele>
        <time>2016-05-22T08:51:17Z</time>
      </trkpt>
      <trkpt lat="45.59461" lon="6.78212">
        <ele>1280.6135253906</ele>
        <time>2016-05-22T08:51:24Z</time>
      </trkpt>
      <trkpt lat="45.59451" lon="6.78212">
        <ele>1282.0554199219</ele>
        <time>2016-05-22T08:51:27Z</time>
      </trkpt>
      <trkpt lat="45.59424" lon="6.78219">
        <ele>1283.9780273438</ele>
        <time>2016-05-22T08:51:35Z</time>
      </trkpt>
      <trkpt lat="45.594" lon="6.78239">
        <ele>1286.3813476562</ele>
        <time>2016-05-22T08:51:42Z</time>
      </trkpt>
      <trkpt lat="45.59379" lon="6.78241">
        <ele>1287.3425292969</ele>
        <time>2016-05-22T08:51:47Z</time>
      </trkpt>
      <trkpt lat="45.59372" lon="6.78235">
        <ele>1286.8618164062</ele>
        <time>2016-05-22T08:51:49Z</time>
      </trkpt>
      <trkpt lat="45.59343" lon="6.78213">
        <ele>1288.3039550781</ele>
        <time>2016-05-22T08:51:57Z</time>
      </trkpt>
      <trkpt lat="45.59312" lon="6.78189">
        <ele>1291.1877441406</ele>
        <time>2016-05-22T08:52:06Z</time>
      </trkpt>
      <trkpt lat="45.59282" lon="6.7816">
        <ele>1292.1494140625</ele>
        <time>2016-05-22T08:52:15Z</time>
      </trkpt>
      <trkpt lat="45.59261" lon="6.7813">
        <ele>1293.5913085938</ele>
        <time>2016-05-22T08:52:23Z</time>
      </trkpt>
      <trkpt lat="45.59245" lon="6.78102">
        <ele>1295.9946289062</ele>
        <time>2016-05-22T08:52:30Z</time>
      </trkpt>
      <trkpt lat="45.59234" lon="6.78068">
        <ele>1298.3977050781</ele>
        <time>2016-05-22T08:52:37Z</time>
      </trkpt>
      <trkpt lat="45.5923" lon="6.78033">
        <ele>1301.2817382812</ele>
        <time>2016-05-22T08:52:43Z</time>
      </trkpt>
      <trkpt lat="45.5923" lon="6.77998">
        <ele>1302.2429199219</ele>
        <time>2016-05-22T08:52:49Z</time>
      </trkpt>
      <trkpt lat="45.5924" lon="6.77945">
        <ele>1305.126953125</ele>
        <time>2016-05-22T08:52:59Z</time>
      </trkpt>
      <trkpt lat="45.59237" lon="6.77925">
        <ele>1305.126953125</ele>
        <time>2016-05-22T08:53:03Z</time>
      </trkpt>
      <trkpt lat="45.59224" lon="6.77906">
        <ele>1306.5688476562</ele>
        <time>2016-05-22T08:53:08Z</time>
      </trkpt>
      <trkpt lat="45.59217" lon="6.77901">
        <ele>1307.5302734375</ele>
        <time>2016-05-22T08:53:10Z</time>
      </trkpt>
      <trkpt lat="45.59203" lon="6.77894">
        <ele>1308.4916992188</ele>
        <time>2016-05-22T08:53:14Z</time>
      </trkpt>
      <trkpt lat="45.5918" lon="6.77885">
        <ele>1310.8950195312</ele>
        <time>2016-05-22T08:53:21Z</time>
      </trkpt>
      <trkpt lat="45.5916" lon="6.77876">
        <ele>1314.2595214844</ele>
        <time>2016-05-22T08:53:27Z</time>
      </trkpt>
      <trkpt lat="45.59137" lon="6.77865">
        <ele>1315.7016601562</ele>
        <time>2016-05-22T08:53:34Z</time>
      </trkpt>
      <trkpt lat="45.5912" lon="6.77855">
        <ele>1316.6628417969</ele>
        <time>2016-05-22T08:53:40Z</time>
      </trkpt>
      <trkpt lat="45.59106" lon="6.77846">
        <ele>1317.6240234375</ele>
        <time>2016-05-22T08:53:45Z</time>
      </trkpt>
      <trkpt lat="45.59081" lon="6.77827">
        <ele>1319.0661621094</ele>
        <time>2016-05-22T08:53:54Z</time>
      </trkpt>
      <trkpt lat="45.59061" lon="6.77813">
        <ele>1322.4306640625</ele>
        <time>2016-05-22T08:54:01Z</time>
      </trkpt>
      <trkpt lat="45.59033" lon="6.77798">
        <ele>1324.353515625</ele>
        <time>2016-05-22T08:54:10Z</time>
      </trkpt>
      <trkpt lat="45.59014" lon="6.77797">
        <ele>1325.3146972656</ele>
        <time>2016-05-22T08:54:16Z</time>
      </trkpt>
      <trkpt lat="45.58997" lon="6.77808">
        <ele>1327.7180175781</ele>
        <time>2016-05-22T08:54:22Z</time>
      </trkpt>
      <trkpt lat="45.58977" lon="6.77831">
        <ele>1328.6794433594</ele>
        <time>2016-05-22T08:54:30Z</time>
      </trkpt>
      <trkpt lat="45.58957" lon="6.77853">
        <ele>1330.1213378906</ele>
        <time>2016-05-22T08:54:38Z</time>
      </trkpt>
      <trkpt lat="45.58948" lon="6.77864">
        <ele>1331.0827636719</ele>
        <time>2016-05-22T08:54:42Z</time>
      </trkpt>
      <trkpt lat="45.58936" lon="6.77874">
        <ele>1332.0439453125</ele>
        <time>2016-05-22T08:54:47Z</time>
      </trkpt>
      <trkpt lat="45.58921" lon="6.77886">
        <ele>1333.4858398438</ele>
        <time>2016-05-22T08:54:53Z</time>
      </trkpt>
      <trkpt lat="45.58901" lon="6.77904">
        <ele>1334.9279785156</ele>
        <time>2016-05-22T08:55:01Z</time>
      </trkpt>
      <trkpt lat="45.58879" lon="6.77925">
        <ele>1336.8503417969</ele>
        <time>2016-05-22T08:55:10Z</time>
      </trkpt>
      <trkpt lat="45.58863" lon="6.77939">
        <ele>1338.2924804688</ele>
        <time>2016-05-22T08:55:16Z</time>
      </trkpt>
      <trkpt lat="45.58845" lon="6.77954">
        <ele>1339.734375</ele>
        <time>2016-05-22T08:55:23Z</time>
      </trkpt>
      <trkpt lat="45.58831" lon="6.77968">
        <ele>1341.1765136719</ele>
        <time>2016-05-22T08:55:29Z</time>
      </trkpt>
      <trkpt lat="45.58818" lon="6.77986">
        <ele>1342.6186523438</ele>
        <time>2016-05-22T08:55:35Z</time>
      </trkpt>
      <trkpt lat="45.58806" lon="6.78011">
        <ele>1345.9831542969</ele>
        <time>2016-05-22T08:55:42Z</time>
      </trkpt>
      <trkpt lat="45.58804" lon="6.78015">
        <ele>1345.9831542969</ele>
        <time>2016-05-22T08:55:43Z</time>
      </trkpt>
      <trkpt lat="45.5879" lon="6.78032">
        <ele>1347.4250488281</ele>
        <time>2016-05-22T08:55:49Z</time>
      </trkpt>
      <trkpt lat="45.58771" lon="6.78039">
        <ele>1348.8669433594</ele>
        <time>2016-05-22T08:55:56Z</time>
      </trkpt>
      <trkpt lat="45.58752" lon="6.78041">
        <ele>1350.3090820312</ele>
        <time>2016-05-22T08:56:03Z</time>
      </trkpt>
      <trkpt lat="45.58725" lon="6.78045">
        <ele>1352.7121582031</ele>
        <time>2016-05-22T08:56:13Z</time>
      </trkpt>
      <trkpt lat="45.58701" lon="6.78045">
        <ele>1354.154296875</ele>
        <time>2016-05-22T08:56:21Z</time>
      </trkpt>
      <trkpt lat="45.58674" lon="6.78043">
        <ele>1356.0769042969</ele>
        <time>2016-05-22T08:56:30Z</time>
      </trkpt>
      <trkpt lat="45.5865" lon="6.78043">
        <ele>1359.4416503906</ele>
        <time>2016-05-22T08:56:38Z</time>
      </trkpt>
      <trkpt lat="45.58628" lon="6.78046">
        <ele>1359.9221191406</ele>
        <time>2016-05-22T08:56:45Z</time>
      </trkpt>
      <trkpt lat="45.58616" lon="6.78049">
        <ele>1360.8835449219</ele>
        <time>2016-05-22T08:56:49Z</time>
      </trkpt>
      <trkpt lat="45.58604" lon="6.78052">
        <ele>1362.8061523438</ele>
        <time>2016-05-22T08:56:53Z</time>
      </trkpt>
      <trkpt lat="45.58571" lon="6.7805">
        <ele>1363.2868652344</ele>
        <time>2016-05-22T08:57:03Z</time>
      </trkpt>
      <trkpt lat="45.58548" lon="6.78048">
        <ele>1365.2094726562</ele>
        <time>2016-05-22T08:57:10Z</time>
      </trkpt>
      <trkpt lat="45.5852" lon="6.78051">
        <ele>1367.6125488281</ele>
        <time>2016-05-22T08:57:19Z</time>
      </trkpt>
      <trkpt lat="45.58492" lon="6.78053">
        <ele>1369.5354003906</ele>
        <time>2016-05-22T08:57:28Z</time>
      </trkpt>
      <trkpt lat="45.58474" lon="6.78049">
        <ele>1370.9772949219</ele>
        <time>2016-05-22T08:57:34Z</time>
      </trkpt>
      <trkpt lat="45.58466" lon="6.78038">
        <ele>1370.9772949219</ele>
        <time>2016-05-22T08:57:38Z</time>
      </trkpt>
      <trkpt lat="45.58466" lon="6.7801">
        <ele>1372.4194335938</ele>
        <time>2016-05-22T08:57:45Z</time>
      </trkpt>
      <trkpt lat="45.58466" lon="6.77998">
        <ele>1373.861328125</ele>
        <time>2016-05-22T08:57:48Z</time>
      </trkpt>
      <trkpt lat="45.58467" lon="6.77959">
        <ele>1376.2646484375</ele>
        <time>2016-05-22T08:57:58Z</time>
      </trkpt>
      <trkpt lat="45.58463" lon="6.7794">
        <ele>1376.7453613281</ele>
        <time>2016-05-22T08:58:03Z</time>
      </trkpt>
      <trkpt lat="45.58455" lon="6.77918">
        <ele>1378.1872558594</ele>
        <time>2016-05-22T08:58:09Z</time>
      </trkpt>
      <trkpt lat="45.58445" lon="6.77892">
        <ele>1380.5905761719</ele>
        <time>2016-05-22T08:58:16Z</time>
      </trkpt>
      <trkpt lat="45.58437" lon="6.7787">
        <ele>1381.5517578125</ele>
        <time>2016-05-22T08:58:22Z</time>
      </trkpt>
      <trkpt lat="45.58428" lon="6.77845">
        <ele>1383.4743652344</ele>
        <time>2016-05-22T08:58:28Z</time>
      </trkpt>
      <trkpt lat="45.58424" lon="6.77823">
        <ele>1384.4357910156</ele>
        <time>2016-05-22T08:58:33Z</time>
      </trkpt>
      <trkpt lat="45.58421" lon="6.77801">
        <ele>1385.8776855469</ele>
        <time>2016-05-22T08:58:38Z</time>
      </trkpt>
      <trkpt lat="45.58418" lon="6.77771">
        <ele>1387.8002929688</ele>
        <time>2016-05-22T08:58:45Z</time>
      </trkpt>
      <trkpt lat="45.58419" lon="6.7774">
        <ele>1388.7619628906</ele>
        <time>2016-05-22T08:58:52Z</time>
      </trkpt>
      <trkpt lat="45.58417" lon="6.77712">
        <ele>1391.1650390625</ele>
        <time>2016-05-22T08:58:59Z</time>
      </trkpt>
      <trkpt lat="45.58413" lon="6.77683">
        <ele>1392.1264648438</ele>
        <time>2016-05-22T08:59:06Z</time>
      </trkpt>
      <trkpt lat="45.58402" lon="6.77647">
        <ele>1394.5295410156</ele>
        <time>2016-05-22T08:59:15Z</time>
      </trkpt>
      <trkpt lat="45.58384" lon="6.77615">
        <ele>1397.4135742188</ele>
        <time>2016-05-22T08:59:24Z</time>
      </trkpt>
      <trkpt lat="45.58361" lon="6.77591">
        <ele>1399.3361816406</ele>
        <time>2016-05-22T08:59:33Z</time>
      </trkpt>
      <trkpt lat="45.58336" lon="6.7758">
        <ele>1401.2587890625</ele>
        <time>2016-05-22T08:59:41Z</time>
      </trkpt>
      <trkpt lat="45.58333" lon="6.77579">
        <ele>1401.7395019531</ele>
        <time>2016-05-22T08:59:42Z</time>
      </trkpt>
      <trkpt lat="45.58303" lon="6.77565">
        <ele>1403.662109375</ele>
        <time>2016-05-22T08:59:52Z</time>
      </trkpt>
      <trkpt lat="45.58276" lon="6.77544">
        <ele>1406.0654296875</ele>
        <time>2016-05-22T09:00:02Z</time>
      </trkpt>
      <trkpt lat="45.58247" lon="6.77524">
        <ele>1408.46875</ele>
        <time>2016-05-22T09:00:12Z</time>
      </trkpt>
      <trkpt lat="45.58231" lon="6.77518">
        <ele>1410.8720703125</ele>
        <time>2016-05-22T09:00:17Z</time>
      </trkpt>
      <trkpt lat="45.58204" lon="6.77513">
        <ele>1412.3139648438</ele>
        <time>2016-05-22T09:00:25Z</time>
      </trkpt>
      <trkpt lat="45.58179" lon="6.77512">
        <ele>1413.275390625</ele>
        <time>2016-05-22T09:00:33Z</time>
      </trkpt>
      <trkpt lat="45.58154" lon="6.77509">
        <ele>1416.1591796875</ele>
        <time>2016-05-22T09:00:41Z</time>
      </trkpt>
      <trkpt lat="45.5814" lon="6.77498">
        <ele>1415.6787109375</ele>
        <time>2016-05-22T09:00:46Z</time>
      </trkpt>
      <trkpt lat="45.58127" lon="6.77475">
        <ele>1417.1206054688</ele>
        <time>2016-05-22T09:00:52Z</time>
      </trkpt>
      <trkpt lat="45.58109" lon="6.77435">
        <ele>1419.5239257812</ele>
        <time>2016-05-22T09:01:01Z</time>
      </trkpt>
      <trkpt lat="45.58087" lon="6.77394">
        <ele>1421.4465332031</ele>
        <time>2016-05-22T09:01:11Z</time>
      </trkpt>
      <trkpt lat="45.58069" lon="6.77369">
        <ele>1423.3693847656</ele>
        <time>2016-05-22T09:01:18Z</time>
      </trkpt>
      <trkpt lat="45.58045" lon="6.77335">
        <ele>1424.8112792969</ele>
        <time>2016-05-22T09:01:28Z</time>
      </trkpt>
      <trkpt lat="45.58034" lon="6.77334">
        <ele>1425.7724609375</ele>
        <time>2016-05-22T09:01:31Z</time>
      </trkpt>
      <trkpt lat="45.58029" lon="6.77351">
        <ele>1424.8112792969</ele>
        <time>2016-05-22T09:01:35Z</time>
      </trkpt>
      <trkpt lat="45.58039" lon="6.77368">
        <ele>1426.7338867188</ele>
        <time>2016-05-22T09:01:39Z</time>
      </trkpt>
      <trkpt lat="45.58047" lon="6.77376">
        <ele>1427.6950683594</ele>
        <time>2016-05-22T09:01:41Z</time>
      </trkpt>
      <trkpt lat="45.58076" lon="6.77414">
        <ele>1427.6950683594</ele>
        <time>2016-05-22T09:01:48Z</time>
      </trkpt>
      <trkpt lat="45.58092" lon="6.77453">
        <ele>1430.0983886719</ele>
        <time>2016-05-22T09:01:53Z</time>
      </trkpt>
      <trkpt lat="45.58113" lon="6.77518">
        <ele>1432.0209960938</ele>
        <time>2016-05-22T09:02:01Z</time>
      </trkpt>
      <trkpt lat="45.58116" lon="6.77525">
        <ele>1431.0598144531</ele>
        <time>2016-05-22T09:02:02Z</time>
      </trkpt>
      <trkpt lat="45.58128" lon="6.77543">
        <ele>1432.9821777344</ele>
        <time>2016-05-22T09:02:05Z</time>
      </trkpt>
      <trkpt lat="45.58139" lon="6.77551">
        <ele>1432.5017089844</ele>
        <time>2016-05-22T09:02:07Z</time>
      </trkpt>
      <trkpt lat="45.58168" lon="6.77562">
        <ele>1432.5017089844</ele>
        <time>2016-05-22T09:02:12Z</time>
      </trkpt>
      <trkpt lat="45.58209" lon="6.7759">
        <ele>1435.3854980469</ele>
        <time>2016-05-22T09:02:19Z</time>
      </trkpt>
      <trkpt lat="45.58257" lon="6.77625">
        <ele>1436.3471679688</ele>
        <time>2016-05-22T09:02:27Z</time>
      </trkpt>
      <trkpt lat="45.58275" lon="6.77641">
        <ele>1437.3083496094</ele>
        <time>2016-05-22T09:02:30Z</time>
      </trkpt>
      <trkpt lat="45.58315" lon="6.77655">
        <ele>1436.3471679688</ele>
        <time>2016-05-22T09:02:36Z</time>
      </trkpt>
      <trkpt lat="45.58327" lon="6.77658">
        <ele>1437.3083496094</ele>
        <time>2016-05-22T09:02:38Z</time>
      </trkpt>
      <trkpt lat="45.58348" lon="6.77676">
        <ele>1439.2309570312</ele>
        <time>2016-05-22T09:02:42Z</time>
      </trkpt>
      <trkpt lat="45.58354" lon="6.77699">
        <ele>1440.1923828125</ele>
        <time>2016-05-22T09:02:45Z</time>
      </trkpt>
      <trkpt lat="45.58352" lon="6.77718">
        <ele>1442.1149902344</ele>
        <time>2016-05-22T09:02:48Z</time>
      </trkpt>
      <trkpt lat="45.58344" lon="6.77744">
        <ele>1443.076171875</ele>
        <time>2016-05-22T09:02:54Z</time>
      </trkpt>
      <trkpt lat="45.58339" lon="6.77767">
        <ele>1444.0375976562</ele>
        <time>2016-05-22T09:03:00Z</time>
      </trkpt>
      <trkpt lat="45.58334" lon="6.77791">
        <ele>1445.4794921875</ele>
        <time>2016-05-22T09:03:06Z</time>
      </trkpt>
      <trkpt lat="45.58332" lon="6.7782">
        <ele>1446.9213867188</ele>
        <time>2016-05-22T09:03:13Z</time>
      </trkpt>
      <trkpt lat="45.5833" lon="6.77855">
        <ele>1449.8054199219</ele>
        <time>2016-05-22T09:03:22Z</time>
      </trkpt>
      <trkpt lat="45.58327" lon="6.77887">
        <ele>1451.7280273438</ele>
        <time>2016-05-22T09:03:30Z</time>
      </trkpt>
      <trkpt lat="45.58325" lon="6.77915">
        <ele>1453.1701660156</ele>
        <time>2016-05-22T09:03:37Z</time>
      </trkpt>
      <trkpt lat="45.58322" lon="6.77945">
        <ele>1453.6508789062</ele>
        <time>2016-05-22T09:03:44Z</time>
      </trkpt>
      <trkpt lat="45.5832" lon="6.77982">
        <ele>1457.0153808594</ele>
        <time>2016-05-22T09:03:53Z</time>
      </trkpt>
      <trkpt lat="45.5832" lon="6.77987">
        <ele>1456.5346679688</ele>
        <time>2016-05-22T09:03:54Z</time>
      </trkpt>
      <trkpt lat="45.58319" lon="6.77999">
        <ele>1457.9768066406</ele>
        <time>2016-05-22T09:03:57Z</time>
      </trkpt>
      <trkpt lat="45.58314" lon="6.78041">
        <ele>1458.9379882812</ele>
        <time>2016-05-22T09:04:07Z</time>
      </trkpt>
      <trkpt lat="45.58308" lon="6.78088">
        <ele>1459.4187011719</ele>
        <time>2016-05-22T09:04:18Z</time>
      </trkpt>
      <trkpt lat="45.58309" lon="6.78116">
        <ele>1461.8220214844</ele>
        <time>2016-05-22T09:04:25Z</time>
      </trkpt>
      <trkpt lat="45.58311" lon="6.78129">
        <ele>1463.2639160156</ele>
        <time>2016-05-22T09:04:28Z</time>
      </trkpt>
      <trkpt lat="45.58315" lon="6.78149">
        <ele>1464.7058105469</ele>
        <time>2016-05-22T09:04:33Z</time>
      </trkpt>
      <trkpt lat="45.58321" lon="6.78182">
        <ele>1465.6672363281</ele>
        <time>2016-05-22T09:04:41Z</time>
      </trkpt>
      <trkpt lat="45.58322" lon="6.78225">
        <ele>1467.5895996094</ele>
        <time>2016-05-22T09:04:51Z</time>
      </trkpt>
      <trkpt lat="45.5832" lon="6.78259">
        <ele>1469.9931640625</ele>
        <time>2016-05-22T09:04:59Z</time>
      </trkpt>
      <trkpt lat="45.58314" lon="6.78279">
        <ele>1471.9157714844</ele>
        <time>2016-05-22T09:05:04Z</time>
      </trkpt>
      <trkpt lat="45.58302" lon="6.78304">
        <ele>1473.3579101562</ele>
        <time>2016-05-22T09:05:11Z</time>
      </trkpt>
      <trkpt lat="45.58294" lon="6.78332">
        <ele>1474.7998046875</ele>
        <time>2016-05-22T09:05:18Z</time>
      </trkpt>
      <trkpt lat="45.58293" lon="6.78341">
        <ele>1475.7609863281</ele>
        <time>2016-05-22T09:05:20Z</time>
      </trkpt>
      <trkpt lat="45.583" lon="6.78365">
        <ele>1477.68359375</ele>
        <time>2016-05-22T09:05:26Z</time>
      </trkpt>
      <trkpt lat="45.58304" lon="6.78369">
        <ele>1478.1643066406</ele>
        <time>2016-05-22T09:05:28Z</time>
      </trkpt>
      <trkpt lat="45.58322" lon="6.78377">
        <ele>1479.1254882812</ele>
        <time>2016-05-22T09:05:34Z</time>
      </trkpt>
      <trkpt lat="45.58342" lon="6.78387">
        <ele>1481.5288085938</ele>
        <time>2016-05-22T09:05:42Z</time>
      </trkpt>
      <trkpt lat="45.58361" lon="6.78394">
        <ele>1482.0095214844</ele>
        <time>2016-05-22T09:05:49Z</time>
      </trkpt>
      <trkpt lat="45.58385" lon="6.78396">
        <ele>1484.8937988281</ele>
        <time>2016-05-22T09:05:57Z</time>
      </trkpt>
      <trkpt lat="45.58406" lon="6.78388">
        <ele>1485.3742675781</ele>
        <time>2016-05-22T09:06:04Z</time>
      </trkpt>
      <trkpt lat="45.58433" lon="6.78372">
        <ele>1487.7775878906</ele>
        <time>2016-05-22T09:06:14Z</time>
      </trkpt>
      <trkpt lat="45.58449" lon="6.78364">
        <ele>1490.6613769531</ele>
        <time>2016-05-22T09:06:20Z</time>
      </trkpt>
      <trkpt lat="45.58467" lon="6.78359">
        <ele>1491.6228027344</ele>
        <time>2016-05-22T09:06:27Z</time>
      </trkpt>
      <trkpt lat="45.58488" lon="6.78353">
        <ele>1493.0646972656</ele>
        <time>2016-05-22T09:06:35Z</time>
      </trkpt>
      <trkpt lat="45.58516" lon="6.78347">
        <ele>1494.9873046875</ele>
        <time>2016-05-22T09:06:45Z</time>
      </trkpt>
      <trkpt lat="45.58544" lon="6.78342">
        <ele>1497.8713378906</ele>
        <time>2016-05-22T09:06:55Z</time>
      </trkpt>
      <trkpt lat="45.58563" lon="6.7834">
        <ele>1499.3132324219</ele>
        <time>2016-05-22T09:07:02Z</time>
      </trkpt>
      <trkpt lat="45.58579" lon="6.78343">
        <ele>1500.7553710938</ele>
        <time>2016-05-22T09:07:08Z</time>
      </trkpt>
      <trkpt lat="45.58596" lon="6.78345">
        <ele>1501.716796875</ele>
        <time>2016-05-22T09:07:14Z</time>
      </trkpt>
      <trkpt lat="45.58616" lon="6.78346">
        <ele>1504.1201171875</ele>
        <time>2016-05-22T09:07:21Z</time>
      </trkpt>
      <trkpt lat="45.58633" lon="6.78347">
        <ele>1505.0812988281</ele>
        <time>2016-05-22T09:07:27Z</time>
      </trkpt>
      <trkpt lat="45.58653" lon="6.78362">
        <ele>1507.4846191406</ele>
        <time>2016-05-22T09:07:33Z</time>
      </trkpt>
      <trkpt lat="45.58679" lon="6.78387">
        <ele>1510.3684082031</ele>
        <time>2016-05-22T09:07:43Z</time>
      </trkpt>
      <trkpt lat="45.58694" lon="6.78401">
        <ele>1513.2524414062</ele>
        <time>2016-05-22T09:07:49Z</time>
      </trkpt>
      <trkpt lat="45.58696" lon="6.78403">
        <ele>1513.2524414062</ele>
        <time>2016-05-22T09:07:50Z</time>
      </trkpt>
      <trkpt lat="45.5871" lon="6.78417">
        <ele>1512.291015625</ele>
        <time>2016-05-22T09:07:56Z</time>
      </trkpt>
      <trkpt lat="45.5873" lon="6.78437">
        <ele>1515.1750488281</ele>
        <time>2016-05-22T09:08:05Z</time>
      </trkpt>
      <trkpt lat="45.58754" lon="6.78458">
        <ele>1516.6171875</ele>
        <time>2016-05-22T09:08:15Z</time>
      </trkpt>
      <trkpt lat="45.58775" lon="6.78473">
        <ele>1518.5397949219</ele>
        <time>2016-05-22T09:08:23Z</time>
      </trkpt>
      <trkpt lat="45.58794" lon="6.78483">
        <ele>1519.5012207031</ele>
        <time>2016-05-22T09:08:30Z</time>
      </trkpt>
      <trkpt lat="45.588" lon="6.78485">
        <ele>1521.904296875</ele>
        <time>2016-05-22T09:08:32Z</time>
      </trkpt>
      <trkpt lat="45.58823" lon="6.78489">
        <ele>1523.3464355469</ele>
        <time>2016-05-22T09:08:40Z</time>
      </trkpt>
      <trkpt lat="45.58846" lon="6.78487">
        <ele>1524.7883300781</ele>
        <time>2016-05-22T09:08:48Z</time>
      </trkpt>
      <trkpt lat="45.58871" lon="6.78484">
        <ele>1526.2302246094</ele>
        <time>2016-05-22T09:08:57Z</time>
      </trkpt>
      <trkpt lat="45.58895" lon="6.78485">
        <ele>1527.1916503906</ele>
        <time>2016-05-22T09:09:06Z</time>
      </trkpt>
      <trkpt lat="45.58917" lon="6.78496">
        <ele>1530.0754394531</ele>
        <time>2016-05-22T09:09:14Z</time>
      </trkpt>
      <trkpt lat="45.58939" lon="6.78519">
        <ele>1531.998046875</ele>
        <time>2016-05-22T09:09:22Z</time>
      </trkpt>
      <trkpt lat="45.58958" lon="6.78547">
        <ele>1533.4401855469</ele>
        <time>2016-05-22T09:09:31Z</time>
      </trkpt>
      <trkpt lat="45.58976" lon="6.7857">
        <ele>1534.8823242188</ele>
        <time>2016-05-22T09:09:39Z</time>
      </trkpt>
      <trkpt lat="45.59001" lon="6.78594">
        <ele>1536.8046875</ele>
        <time>2016-05-22T09:09:47Z</time>
      </trkpt>
      <trkpt lat="45.59021" lon="6.78617">
        <ele>1538.2468261719</ele>
        <time>2016-05-22T09:09:55Z</time>
      </trkpt>
      <trkpt lat="45.59039" lon="6.78638">
        <ele>1540.6499023438</ele>
        <time>2016-05-22T09:10:03Z</time>
      </trkpt>
      <trkpt lat="45.59049" lon="6.78655">
        <ele>1543.5339355469</ele>
        <time>2016-05-22T09:10:09Z</time>
      </trkpt>
      <trkpt lat="45.59054" lon="6.78661">
        <ele>1544.4951171875</ele>
        <time>2016-05-22T09:10:11Z</time>
      </trkpt>
      <trkpt lat="45.59059" lon="6.78667">
        <ele>1545.4565429688</ele>
        <time>2016-05-22T09:10:13Z</time>
      </trkpt>
      <trkpt lat="45.59076" lon="6.78691">
        <ele>1546.8984375</ele>
        <time>2016-05-22T09:10:21Z</time>
      </trkpt>
      <trkpt lat="45.59088" lon="6.78712">
        <ele>1547.8598632812</ele>
        <time>2016-05-22T09:10:28Z</time>
      </trkpt>
      <trkpt lat="45.59106" lon="6.78739">
        <ele>1548.8212890625</ele>
        <time>2016-05-22T09:10:37Z</time>
      </trkpt>
      <trkpt lat="45.59118" lon="6.78761">
        <ele>1552.1857910156</ele>
        <time>2016-05-22T09:10:44Z</time>
      </trkpt>
      <trkpt lat="45.59131" lon="6.78793">
        <ele>1555.5505371094</ele>
        <time>2016-05-22T09:10:53Z</time>
      </trkpt>
      <trkpt lat="45.59132" lon="6.78798">
        <ele>1556.0310058594</ele>
        <time>2016-05-22T09:10:54Z</time>
      </trkpt>
      <trkpt lat="45.59142" lon="6.78837">
        <ele>1556.0310058594</ele>
        <time>2016-05-22T09:11:04Z</time>
      </trkpt>
      <trkpt lat="45.59157" lon="6.78885">
        <ele>1558.9150390625</ele>
        <time>2016-05-22T09:11:16Z</time>
      </trkpt>
      <trkpt lat="45.59173" lon="6.78919">
        <ele>1561.7990722656</ele>
        <time>2016-05-22T09:11:25Z</time>
      </trkpt>
      <trkpt lat="45.59175" lon="6.78923">
        <ele>1562.2795410156</ele>
        <time>2016-05-22T09:11:26Z</time>
      </trkpt>
      <trkpt lat="45.59189" lon="6.78947">
        <ele>1563.2409667969</ele>
        <time>2016-05-22T09:11:33Z</time>
      </trkpt>
      <trkpt lat="45.59207" lon="6.78975">
        <ele>1564.2023925781</ele>
        <time>2016-05-22T09:11:41Z</time>
      </trkpt>
      <trkpt lat="45.59223" lon="6.78992">
        <ele>1566.125</ele>
        <time>2016-05-22T09:11:47Z</time>
      </trkpt>
      <trkpt lat="45.59252" lon="6.79012">
        <ele>1565.1638183594</ele>
        <time>2016-05-22T09:11:56Z</time>
      </trkpt>
      <trkpt lat="45.59262" lon="6.79019">
        <ele>1565.64453125</ele>
        <time>2016-05-22T09:12:00Z</time>
      </trkpt>
      <trkpt lat="45.59261" lon="6.79035">
        <ele>1566.125</ele>
        <time>2016-05-22T09:12:04Z</time>
      </trkpt>
      <trkpt lat="45.59251" lon="6.79036">
        <ele>1567.0864257812</ele>
        <time>2016-05-22T09:12:07Z</time>
      </trkpt>
      <trkpt lat="45.5923" lon="6.79021">
        <ele>1568.0476074219</ele>
        <time>2016-05-22T09:12:14Z</time>
      </trkpt>
      <trkpt lat="45.5921" lon="6.79007">
        <ele>1569.0090332031</ele>
        <time>2016-05-22T09:12:21Z</time>
      </trkpt>
      <trkpt lat="45.5919" lon="6.78988">
        <ele>1572.8542480469</ele>
        <time>2016-05-22T09:12:29Z</time>
      </trkpt>
      <trkpt lat="45.59187" lon="6.78985">
        <ele>1573.3349609375</ele>
        <time>2016-05-22T09:12:30Z</time>
      </trkpt>
      <trkpt lat="45.59163" lon="6.78956">
        <ele>1573.3349609375</ele>
        <time>2016-05-22T09:12:40Z</time>
      </trkpt>
      <trkpt lat="45.59144" lon="6.78927">
        <ele>1575.7380371094</ele>
        <time>2016-05-22T09:12:49Z</time>
      </trkpt>
      <trkpt lat="45.59127" lon="6.78894">
        <ele>1576.21875</ele>
        <time>2016-05-22T09:12:58Z</time>
      </trkpt>
      <trkpt lat="45.59114" lon="6.78867">
        <ele>1577.1801757812</ele>
        <time>2016-05-22T09:13:05Z</time>
      </trkpt>
      <trkpt lat="45.59098" lon="6.78831">
        <ele>1580.544921875</ele>
        <time>2016-05-22T09:13:14Z</time>
      </trkpt>
      <trkpt lat="45.59084" lon="6.78797">
        <ele>1581.9868164062</ele>
        <time>2016-05-22T09:13:23Z</time>
      </trkpt>
      <trkpt lat="45.59076" lon="6.78785">
        <ele>1583.4287109375</ele>
        <time>2016-05-22T09:13:27Z</time>
      </trkpt>
      <trkpt lat="45.59056" lon="6.78763">
        <ele>1583.9094238281</ele>
        <time>2016-05-22T09:13:35Z</time>
      </trkpt>
      <trkpt lat="45.59037" lon="6.78745">
        <ele>1586.3127441406</ele>
        <time>2016-05-22T09:13:43Z</time>
      </trkpt>
      <trkpt lat="45.59015" lon="6.78735">
        <ele>1587.7546386719</ele>
        <time>2016-05-22T09:13:51Z</time>
      </trkpt>
      <trkpt lat="45.58994" lon="6.78735">
        <ele>1589.1965332031</ele>
        <time>2016-05-22T09:13:58Z</time>
      </trkpt>
      <trkpt lat="45.58978" lon="6.78735">
        <ele>1591.5998535156</ele>
        <time>2016-05-22T09:14:03Z</time>
      </trkpt>
      <trkpt lat="45.58955" lon="6.78726">
        <ele>1593.0417480469</ele>
        <time>2016-05-22T09:14:11Z</time>
      </trkpt>
      <trkpt lat="45.58933" lon="6.78705">
        <ele>1594.9643554688</ele>
        <time>2016-05-22T09:14:20Z</time>
      </trkpt>
      <trkpt lat="45.58917" lon="6.78696">
        <ele>1597.8486328125</ele>
        <time>2016-05-22T09:14:26Z</time>
      </trkpt>
      <trkpt lat="45.58894" lon="6.78695">
        <ele>1599.7712402344</ele>
        <time>2016-05-22T09:14:33Z</time>
      </trkpt>
      <trkpt lat="45.5888" lon="6.78699">
        <ele>1601.2131347656</ele>
        <time>2016-05-22T09:14:38Z</time>
      </trkpt>
      <trkpt lat="45.58853" lon="6.78705">
        <ele>1603.1357421875</ele>
        <time>2016-05-22T09:14:47Z</time>
      </trkpt>
      <trkpt lat="45.58829" lon="6.7871">
        <ele>1605.0583496094</ele>
        <time>2016-05-22T09:14:55Z</time>
      </trkpt>
      <trkpt lat="45.58808" lon="6.78716">
        <ele>1606.01953125</ele>
        <time>2016-05-22T09:15:02Z</time>
      </trkpt>
      <trkpt lat="45.58796" lon="6.7872">
        <ele>1607.9423828125</ele>
        <time>2016-05-22T09:15:06Z</time>
      </trkpt>
      <trkpt lat="45.58767" lon="6.78726">
        <ele>1610.826171875</ele>
        <time>2016-05-22T09:15:14Z</time>
      </trkpt>
      <trkpt lat="45.58733" lon="6.7873">
        <ele>1612.7490234375</ele>
        <time>2016-05-22T09:15:23Z</time>
      </trkpt>
      <trkpt lat="45.58706" lon="6.78726">
        <ele>1615.15234375</ele>
        <time>2016-05-22T09:15:30Z</time>
      </trkpt>
      <trkpt lat="45.58672" lon="6.78711">
        <ele>1617.5554199219</ele>
        <time>2016-05-22T09:15:39Z</time>
      </trkpt>
      <trkpt lat="45.58665" lon="6.78709">
        <ele>1618.5168457031</ele>
        <time>2016-05-22T09:15:41Z</time>
      </trkpt>
      <trkpt lat="45.58624" lon="6.78692">
        <ele>1619.9587402344</ele>
        <time>2016-05-22T09:15:51Z</time>
      </trkpt>
      <trkpt lat="45.58608" lon="6.78688">
        <ele>1623.3234863281</ele>
        <time>2016-05-22T09:15:55Z</time>
      </trkpt>
      <trkpt lat="45.58604" lon="6.78687">
        <ele>1622.3620605469</ele>
        <time>2016-05-22T09:15:56Z</time>
      </trkpt>
      <trkpt lat="45.58569" lon="6.78683">
        <ele>1626.2072753906</ele>
        <time>2016-05-22T09:16:04Z</time>
      </trkpt>
      <trkpt lat="45.58565" lon="6.78683">
        <ele>1626.6879882812</ele>
        <time>2016-05-22T09:16:05Z</time>
      </trkpt>
      <trkpt lat="45.58552" lon="6.78685">
        <ele>1627.6491699219</ele>
        <time>2016-05-22T09:16:08Z</time>
      </trkpt>
      <trkpt lat="45.58537" lon="6.78694">
        <ele>1630.052734375</ele>
        <time>2016-05-22T09:16:12Z</time>
      </trkpt>
      <trkpt lat="45.58527" lon="6.78705">
        <ele>1630.5334472656</ele>
        <time>2016-05-22T09:16:15Z</time>
      </trkpt>
      <trkpt lat="45.58502" lon="6.78748">
        <ele>1631.4946289062</ele>
        <time>2016-05-22T09:16:24Z</time>
      </trkpt>
      <trkpt lat="45.5849" lon="6.78779">
        <ele>1634.3786621094</ele>
        <time>2016-05-22T09:16:30Z</time>
      </trkpt>
      <trkpt lat="45.58488" lon="6.78784">
        <ele>1634.859375</ele>
        <time>2016-05-22T09:16:31Z</time>
      </trkpt>
      <trkpt lat="45.58484" lon="6.78794">
        <ele>1635.33984375</ele>
        <time>2016-05-22T09:16:33Z</time>
      </trkpt>
      <trkpt lat="45.5848" lon="6.78804">
        <ele>1636.7817382812</ele>
        <time>2016-05-22T09:16:35Z</time>
      </trkpt>
      <trkpt lat="45.58464" lon="6.78826">
        <ele>1638.7045898438</ele>
        <time>2016-05-22T09:16:41Z</time>
      </trkpt>
      <trkpt lat="45.5845" lon="6.78843">
        <ele>1640.146484375</ele>
        <time>2016-05-22T09:16:48Z</time>
      </trkpt>
      <trkpt lat="45.58432" lon="6.78858">
        <ele>1641.1076660156</ele>
        <time>2016-05-22T09:16:56Z</time>
      </trkpt>
      <trkpt lat="45.58411" lon="6.78873">
        <ele>1643.9916992188</ele>
        <time>2016-05-22T09:17:05Z</time>
      </trkpt>
      <trkpt lat="45.5839" lon="6.7888">
        <ele>1645.4338378906</ele>
        <time>2016-05-22T09:17:13Z</time>
      </trkpt>
      <trkpt lat="45.58371" lon="6.78881">
        <ele>1645.4338378906</ele>
        <time>2016-05-22T09:17:20Z</time>
      </trkpt>
      <trkpt lat="45.58354" lon="6.78869">
        <ele>1647.3564453125</ele>
        <time>2016-05-22T09:17:27Z</time>
      </trkpt>
      <trkpt lat="45.5833" lon="6.7885">
        <ele>1648.7983398438</ele>
        <time>2016-05-22T09:17:36Z</time>
      </trkpt>
      <trkpt lat="45.5831" lon="6.78841">
        <ele>1651.2016601562</ele>
        <time>2016-05-22T09:17:43Z</time>
      </trkpt>
      <trkpt lat="45.58288" lon="6.78838">
        <ele>1655.046875</ele>
        <time>2016-05-22T09:17:50Z</time>
      </trkpt>
      <trkpt lat="45.58264" lon="6.78836">
        <ele>1656.4887695312</ele>
        <time>2016-05-22T09:17:58Z</time>
      </trkpt>
      <trkpt lat="45.58247" lon="6.78831">
        <ele>1657.4501953125</ele>
        <time>2016-05-22T09:18:04Z</time>
      </trkpt>
      <trkpt lat="45.5822" lon="6.78833">
        <ele>1659.8532714844</ele>
        <time>2016-05-22T09:18:13Z</time>
      </trkpt>
      <trkpt lat="45.58197" lon="6.78838">
        <ele>1661.2956542969</ele>
        <time>2016-05-22T09:18:20Z</time>
      </trkpt>
      <trkpt lat="45.58166" lon="6.78846">
        <ele>1662.7375488281</ele>
        <time>2016-05-22T09:18:29Z</time>
      </trkpt>
      <trkpt lat="45.58145" lon="6.7885">
        <ele>1664.1794433594</ele>
        <time>2016-05-22T09:18:35Z</time>
      </trkpt>
      <trkpt lat="45.58115" lon="6.78853">
        <ele>1667.0634765625</ele>
        <time>2016-05-22T09:18:44Z</time>
      </trkpt>
      <trkpt lat="45.58112" lon="6.78853">
        <ele>1667.5439453125</ele>
        <time>2016-05-22T09:18:45Z</time>
      </trkpt>
      <trkpt lat="45.58081" lon="6.78854">
        <ele>1668.0246582031</ele>
        <time>2016-05-22T09:18:54Z</time>
      </trkpt>
      <trkpt lat="45.5806" lon="6.78854">
        <ele>1669.947265625</ele>
        <time>2016-05-22T09:19:00Z</time>
      </trkpt>
      <trkpt lat="45.58031" lon="6.78849">
        <ele>1669.466796875</ele>
        <time>2016-05-22T09:19:08Z</time>
      </trkpt>
      <trkpt lat="45.58006" lon="6.78841">
        <ele>1670.4279785156</ele>
        <time>2016-05-22T09:19:15Z</time>
      </trkpt>
      <trkpt lat="45.57973" lon="6.7882">
        <ele>1672.3505859375</ele>
        <time>2016-05-22T09:19:25Z</time>
      </trkpt>
      <trkpt lat="45.57954" lon="6.7879">
        <ele>1672.8312988281</ele>
        <time>2016-05-22T09:19:32Z</time>
      </trkpt>
      <trkpt lat="45.57941" lon="6.78754">
        <ele>1673.7924804688</ele>
        <time>2016-05-22T09:19:39Z</time>
      </trkpt>
      <trkpt lat="45.57925" lon="6.78728">
        <ele>1674.2731933594</ele>
        <time>2016-05-22T09:19:45Z</time>
      </trkpt>
      <trkpt lat="45.57894" lon="6.78707">
        <ele>1675.234375</ele>
        <time>2016-05-22T09:19:53Z</time>
      </trkpt>
      <trkpt lat="45.57865" lon="6.78693">
        <ele>1677.1574707031</ele>
        <time>2016-05-22T09:20:01Z</time>
      </trkpt>
      <trkpt lat="45.57846" lon="6.78679">
        <ele>1680.5219726562</ele>
        <time>2016-05-22T09:20:07Z</time>
      </trkpt>
      <trkpt lat="45.5783" lon="6.78657">
        <ele>1681.9638671875</ele>
        <time>2016-05-22T09:20:13Z</time>
      </trkpt>
      <trkpt lat="45.57825" lon="6.78638">
        <ele>1684.3671875</ele>
        <time>2016-05-22T09:20:17Z</time>
      </trkpt>
      <trkpt lat="45.57826" lon="6.78607">
        <ele>1685.8090820312</ele>
        <time>2016-05-22T09:20:23Z</time>
      </trkpt>
      <trkpt lat="45.57834" lon="6.78572">
        <ele>1687.2509765625</ele>
        <time>2016-05-22T09:20:30Z</time>
      </trkpt>
      <trkpt lat="45.57834" lon="6.78543">
        <ele>1687.7316894531</ele>
        <time>2016-05-22T09:20:36Z</time>
      </trkpt>
      <trkpt lat="45.57826" lon="6.78512">
        <ele>1689.654296875</ele>
        <time>2016-05-22T09:20:42Z</time>
      </trkpt>
      <trkpt lat="45.57817" lon="6.78477">
        <ele>1688.6931152344</ele>
        <time>2016-05-22T09:20:49Z</time>
      </trkpt>
      <trkpt lat="45.57816" lon="6.78466">
        <ele>1688.2124023438</ele>
        <time>2016-05-22T09:20:51Z</time>
      </trkpt>
      <trkpt lat="45.57821" lon="6.78432">
        <ele>1687.2509765625</ele>
        <time>2016-05-22T09:20:56Z</time>
      </trkpt>
      <trkpt lat="45.57826" lon="6.784">
        <ele>1686.2897949219</ele>
        <time>2016-05-22T09:21:00Z</time>
      </trkpt>
      <trkpt lat="45.57833" lon="6.78353">
        <ele>1683.8864746094</ele>
        <time>2016-05-22T09:21:05Z</time>
      </trkpt>
      <trkpt lat="45.57844" lon="6.78295">
        <ele>1682.9250488281</ele>
        <time>2016-05-22T09:21:10Z</time>
      </trkpt>
      <trkpt lat="45.57857" lon="6.78229">
        <ele>1681.0026855469</ele>
        <time>2016-05-22T09:21:15Z</time>
      </trkpt>
      <trkpt lat="45.5786" lon="6.78215">
        <ele>1681.4831542969</ele>
        <time>2016-05-22T09:21:16Z</time>
      </trkpt>
      <trkpt lat="45.57859" lon="6.78175">
        <ele>1676.6767578125</ele>
        <time>2016-05-22T09:21:19Z</time>
      </trkpt>
      <trkpt lat="45.57845" lon="6.78127">
        <ele>1675.7150878906</ele>
        <time>2016-05-22T09:21:23Z</time>
      </trkpt>
      <trkpt lat="45.57833" lon="6.78096">
        <ele>1676.6767578125</ele>
        <time>2016-05-22T09:21:26Z</time>
      </trkpt>
      <trkpt lat="45.57818" lon="6.78068">
        <ele>1675.234375</ele>
        <time>2016-05-22T09:21:29Z</time>
      </trkpt>
      <trkpt lat="45.57801" lon="6.78034">
        <ele>1675.234375</ele>
        <time>2016-05-22T09:21:33Z</time>
      </trkpt>
      <trkpt lat="45.57781" lon="6.78004">
        <ele>1675.234375</ele>
        <time>2016-05-22T09:21:37Z</time>
      </trkpt>
      <trkpt lat="45.57744" lon="6.77968">
        <ele>1675.234375</ele>
        <time>2016-05-22T09:21:44Z</time>
      </trkpt>
      <trkpt lat="45.5773" lon="6.77948">
        <ele>1675.7150878906</ele>
        <time>2016-05-22T09:21:49Z</time>
      </trkpt>
      <trkpt lat="45.57719" lon="6.7792">
        <ele>1677.6379394531</ele>
        <time>2016-05-22T09:21:56Z</time>
      </trkpt>
      <trkpt lat="45.57714" lon="6.77902">
        <ele>1677.1574707031</ele>
        <time>2016-05-22T09:22:02Z</time>
      </trkpt>
      <trkpt lat="45.57714" lon="6.77902">
        <ele>1677.1574707031</ele>
        <time>2016-05-22T09:22:04Z</time>
      </trkpt>
      <trkpt lat="45.57695" lon="6.77903">
        <ele>1678.1186523438</ele>
        <time>2016-05-22T09:28:28Z</time>
      </trkpt>
      <trkpt lat="45.57694" lon="6.779">
        <ele>1678.1186523438</ele>
        <time>2016-05-22T09:28:29Z</time>
      </trkpt>
      <trkpt lat="45.57693" lon="6.77897">
        <ele>1678.5993652344</ele>
        <time>2016-05-22T09:28:30Z</time>
      </trkpt>
      <trkpt lat="45.57685" lon="6.7788">
        <ele>1678.5993652344</ele>
        <time>2016-05-22T09:28:34Z</time>
      </trkpt>
      <trkpt lat="45.57683" lon="6.77876">
        <ele>1678.1186523438</ele>
        <time>2016-05-22T09:28:35Z</time>
      </trkpt>
      <trkpt lat="45.57664" lon="6.77843">
        <ele>1677.1574707031</ele>
        <time>2016-05-22T09:28:41Z</time>
      </trkpt>
      <trkpt lat="45.5764" lon="6.77809">
        <ele>1675.7150878906</ele>
        <time>2016-05-22T09:28:47Z</time>
      </trkpt>
      <trkpt lat="45.57613" lon="6.77776">
        <ele>1674.2731933594</ele>
        <time>2016-05-22T09:28:52Z</time>
      </trkpt>
      <trkpt lat="45.57589" lon="6.77746">
        <ele>1670.4279785156</ele>
        <time>2016-05-22T09:28:56Z</time>
      </trkpt>
      <trkpt lat="45.57567" lon="6.7772">
        <ele>1667.5439453125</ele>
        <time>2016-05-22T09:29:00Z</time>
      </trkpt>
      <trkpt lat="45.57535" lon="6.77708">
        <ele>1667.0634765625</ele>
        <time>2016-05-22T09:29:05Z</time>
      </trkpt>
      <trkpt lat="45.5749" lon="6.777">
        <ele>1665.1408691406</ele>
        <time>2016-05-22T09:29:11Z</time>
      </trkpt>
      <trkpt lat="45.57446" lon="6.77685">
        <ele>1662.2568359375</ele>
        <time>2016-05-22T09:29:16Z</time>
      </trkpt>
      <trkpt lat="45.57403" lon="6.77663">
        <ele>1660.3342285156</ele>
        <time>2016-05-22T09:29:21Z</time>
      </trkpt>
      <trkpt lat="45.57361" lon="6.77626">
        <ele>1659.8532714844</ele>
        <time>2016-05-22T09:29:27Z</time>
      </trkpt>
      <trkpt lat="45.57348" lon="6.77615">
        <ele>1656.4887695312</ele>
        <time>2016-05-22T09:29:30Z</time>
      </trkpt>
      <trkpt lat="45.57318" lon="6.77596">
        <ele>1657.4501953125</ele>
        <time>2016-05-22T09:29:36Z</time>
      </trkpt>
      <trkpt lat="45.57312" lon="6.77595">
        <ele>1656.4887695312</ele>
        <time>2016-05-22T09:29:37Z</time>
      </trkpt>
      <trkpt lat="45.57285" lon="6.77598">
        <ele>1655.5275878906</ele>
        <time>2016-05-22T09:29:42Z</time>
      </trkpt>
      <trkpt lat="45.57277" lon="6.77605">
        <ele>1656.4887695312</ele>
        <time>2016-05-22T09:29:44Z</time>
      </trkpt>
      <trkpt lat="45.57242" lon="6.77642">
        <ele>1655.046875</ele>
        <time>2016-05-22T09:29:51Z</time>
      </trkpt>
      <trkpt lat="45.57214" lon="6.77655">
        <ele>1656.0080566406</ele>
        <time>2016-05-22T09:29:56Z</time>
      </trkpt>
      <trkpt lat="45.57194" lon="6.77645">
        <ele>1656.0080566406</ele>
        <time>2016-05-22T09:30:00Z</time>
      </trkpt>
      <trkpt lat="45.57187" lon="6.77635">
        <ele>1656.0080566406</ele>
        <time>2016-05-22T09:30:02Z</time>
      </trkpt>
      <trkpt lat="45.57181" lon="6.77623">
        <ele>1656.0080566406</ele>
        <time>2016-05-22T09:30:04Z</time>
      </trkpt>
      <trkpt lat="45.57173" lon="6.77605">
        <ele>1656.0080566406</ele>
        <time>2016-05-22T09:30:07Z</time>
      </trkpt>
      <trkpt lat="45.57158" lon="6.77585">
        <ele>1656.4887695312</ele>
        <time>2016-05-22T09:30:11Z</time>
      </trkpt>
      <trkpt lat="45.57121" lon="6.77569">
        <ele>1657.4501953125</ele>
        <time>2016-05-22T09:30:19Z</time>
      </trkpt>
      <trkpt lat="45.5708" lon="6.77556">
        <ele>1658.8920898438</ele>
        <time>2016-05-22T09:30:28Z</time>
      </trkpt>
      <trkpt lat="45.57059" lon="6.77549">
        <ele>1659.8532714844</ele>
        <time>2016-05-22T09:30:34Z</time>
      </trkpt>
      <trkpt lat="45.57045" lon="6.77548">
        <ele>1659.8532714844</ele>
        <time>2016-05-22T09:30:38Z</time>
      </trkpt>
      <trkpt lat="45.57034" lon="6.77547">
        <ele>1662.2568359375</ele>
        <time>2016-05-22T09:30:41Z</time>
      </trkpt>
      <trkpt lat="45.57007" lon="6.77547">
        <ele>1664.66015625</ele>
        <time>2016-05-22T09:30:49Z</time>
      </trkpt>
      <trkpt lat="45.56992" lon="6.7754">
        <ele>1666.5827636719</ele>
        <time>2016-05-22T09:30:54Z</time>
      </trkpt>
      <trkpt lat="45.56989" lon="6.77539">
        <ele>1666.1020507812</ele>
        <time>2016-05-22T09:30:55Z</time>
      </trkpt>
      <trkpt lat="45.56972" lon="6.77527">
        <ele>1668.0246582031</ele>
        <time>2016-05-22T09:31:01Z</time>
      </trkpt>
      <trkpt lat="45.56954" lon="6.77514">
        <ele>1669.947265625</ele>
        <time>2016-05-22T09:31:07Z</time>
      </trkpt>
      <trkpt lat="45.5694" lon="6.77497">
        <ele>1671.8698730469</ele>
        <time>2016-05-22T09:31:12Z</time>
      </trkpt>
      <trkpt lat="45.56937" lon="6.77493">
        <ele>1671.8698730469</ele>
        <time>2016-05-22T09:31:13Z</time>
      </trkpt>
      <trkpt lat="45.56921" lon="6.77464">
        <ele>1674.2731933594</ele>
        <time>2016-05-22T09:31:20Z</time>
      </trkpt>
      <trkpt lat="45.56915" lon="6.7746">
        <ele>1673.7924804688</ele>
        <time>2016-05-22T09:31:22Z</time>
      </trkpt>
      <trkpt lat="45.56905" lon="6.7747">
        <ele>1674.75390625</ele>
        <time>2016-05-22T09:31:26Z</time>
      </trkpt>
      <trkpt lat="45.56907" lon="6.77486">
        <ele>1674.75390625</ele>
        <time>2016-05-22T09:31:29Z</time>
      </trkpt>
      <trkpt lat="45.56919" lon="6.77516">
        <ele>1675.7150878906</ele>
        <time>2016-05-22T09:31:36Z</time>
      </trkpt>
      <trkpt lat="45.56935" lon="6.77537">
        <ele>1678.1186523438</ele>
        <time>2016-05-22T09:31:43Z</time>
      </trkpt>
      <trkpt lat="45.56958" lon="6.77564">
        <ele>1680.0412597656</ele>
        <time>2016-05-22T09:31:53Z</time>
      </trkpt>
      <trkpt lat="45.56981" lon="6.77588">
        <ele>1681.9638671875</ele>
        <time>2016-05-22T09:32:02Z</time>
      </trkpt>
      <trkpt lat="45.56996" lon="6.7761">
        <ele>1683.8864746094</ele>
        <time>2016-05-22T09:32:09Z</time>
      </trkpt>
      <trkpt lat="45.57014" lon="6.77635">
        <ele>1685.3283691406</ele>
        <time>2016-05-22T09:32:17Z</time>
      </trkpt>
      <trkpt lat="45.57034" lon="6.77663">
        <ele>1688.2124023438</ele>
        <time>2016-05-22T09:32:26Z</time>
      </trkpt>
      <trkpt lat="45.57055" lon="6.77686">
        <ele>1691.0961914062</ele>
        <time>2016-05-22T09:32:33Z</time>
      </trkpt>
      <trkpt lat="45.57067" lon="6.77696">
        <ele>1692.5385742188</ele>
        <time>2016-05-22T09:32:36Z</time>
      </trkpt>
      <trkpt lat="45.57091" lon="6.77715">
        <ele>1693.4997558594</ele>
        <time>2016-05-22T09:32:43Z</time>
      </trkpt>
      <trkpt lat="45.57109" lon="6.77729">
        <ele>1694.4609375</ele>
        <time>2016-05-22T09:32:48Z</time>
      </trkpt>
      <trkpt lat="45.57129" lon="6.7775">
        <ele>1696.3837890625</ele>
        <time>2016-05-22T09:32:55Z</time>
      </trkpt>
      <trkpt lat="45.5713" lon="6.77753">
        <ele>1695.9030761719</ele>
        <time>2016-05-22T09:32:56Z</time>
      </trkpt>
      <trkpt lat="45.57127" lon="6.77766">
        <ele>1696.3837890625</ele>
        <time>2016-05-22T09:33:00Z</time>
      </trkpt>
      <trkpt lat="45.57116" lon="6.77768">
        <ele>1698.3061523438</ele>
        <time>2016-05-22T09:33:04Z</time>
      </trkpt>
      <trkpt lat="45.57105" lon="6.77762">
        <ele>1699.7482910156</ele>
        <time>2016-05-22T09:33:08Z</time>
      </trkpt>
      <trkpt lat="45.57097" lon="6.77759">
        <ele>1700.2290039062</ele>
        <time>2016-05-22T09:33:11Z</time>
      </trkpt>
      <trkpt lat="45.57072" lon="6.7774">
        <ele>1702.1513671875</ele>
        <time>2016-05-22T09:33:22Z</time>
      </trkpt>
      <trkpt lat="45.57061" lon="6.77735">
        <ele>1703.5935058594</ele>
        <time>2016-05-22T09:33:26Z</time>
      </trkpt>
      <trkpt lat="45.57038" lon="6.77728">
        <ele>1705.9965820312</ele>
        <time>2016-05-22T09:33:34Z</time>
      </trkpt>
      <trkpt lat="45.5702" lon="6.77732">
        <ele>1706.4772949219</ele>
        <time>2016-05-22T09:33:40Z</time>
      </trkpt>
      <trkpt lat="45.56995" lon="6.77734">
        <ele>1708.4001464844</ele>
        <time>2016-05-22T09:33:48Z</time>
      </trkpt>
      <trkpt lat="45.56979" lon="6.77732">
        <ele>1709.8420410156</ele>
        <time>2016-05-22T09:33:53Z</time>
      </trkpt>
      <trkpt lat="45.56963" lon="6.77731">
        <ele>1711.7648925781</ele>
        <time>2016-05-22T09:33:59Z</time>
      </trkpt>
      <trkpt lat="45.56942" lon="6.77726">
        <ele>1713.6872558594</ele>
        <time>2016-05-22T09:34:06Z</time>
      </trkpt>
      <trkpt lat="45.56924" lon="6.77721">
        <ele>1715.1293945312</ele>
        <time>2016-05-22T09:34:12Z</time>
      </trkpt>
      <trkpt lat="45.56921" lon="6.7772">
        <ele>1715.6101074219</ele>
        <time>2016-05-22T09:34:13Z</time>
      </trkpt>
      <trkpt lat="45.56901" lon="6.77716">
        <ele>1717.5324707031</ele>
        <time>2016-05-22T09:34:20Z</time>
      </trkpt>
      <trkpt lat="45.5688" lon="6.77718">
        <ele>1720.4165039062</ele>
        <time>2016-05-22T09:34:27Z</time>
      </trkpt>
      <trkpt lat="45.56865" lon="6.77713">
        <ele>1722.8198242188</ele>
        <time>2016-05-22T09:34:32Z</time>
      </trkpt>
      <trkpt lat="45.56848" lon="6.77707">
        <ele>1723.7810058594</ele>
        <time>2016-05-22T09:34:37Z</time>
      </trkpt>
      <trkpt lat="45.56829" lon="6.77686">
        <ele>1725.2231445312</ele>
        <time>2016-05-22T09:34:44Z</time>
      </trkpt>
      <trkpt lat="45.56824" lon="6.77666">
        <ele>1725.7038574219</ele>
        <time>2016-05-22T09:34:49Z</time>
      </trkpt>
      <trkpt lat="45.56815" lon="6.7765">
        <ele>1727.1459960938</ele>
        <time>2016-05-22T09:34:54Z</time>
      </trkpt>
      <trkpt lat="45.56807" lon="6.77643">
        <ele>1728.587890625</ele>
        <time>2016-05-22T09:34:57Z</time>
      </trkpt>
      <trkpt lat="45.56789" lon="6.77638">
        <ele>1729.5490722656</ele>
        <time>2016-05-22T09:35:02Z</time>
      </trkpt>
      <trkpt lat="45.56772" lon="6.77637">
        <ele>1730.0297851562</ele>
        <time>2016-05-22T09:35:06Z</time>
      </trkpt>
      <trkpt lat="45.56749" lon="6.77637">
        <ele>1732.4331054688</ele>
        <time>2016-05-22T09:35:13Z</time>
      </trkpt>
      <trkpt lat="45.56742" lon="6.7764">
        <ele>1734.3557128906</ele>
        <time>2016-05-22T09:35:17Z</time>
      </trkpt>
      <trkpt lat="45.56739" lon="6.77646">
        <ele>1733.875</ele>
        <time>2016-05-22T09:35:21Z</time>
      </trkpt>
      <trkpt lat="45.56736" lon="6.77647">
        <ele>1733.875</ele>
        <time>2016-05-22T09:35:24Z</time>
      </trkpt>
      <trkpt lat="45.56726" lon="6.77636">
        <ele>1733.875</ele>
        <time>2016-05-22T09:35:50Z</time>
      </trkpt>
      <trkpt lat="45.56724" lon="6.77636">
        <ele>1733.875</ele>
        <time>2016-05-22T09:35:51Z</time>
      </trkpt>
      <trkpt lat="45.56723" lon="6.77635">
        <ele>1733.875</ele>
        <time>2016-05-22T09:35:52Z</time>
      </trkpt>
      <trkpt lat="45.56709" lon="6.77627">
        <ele>1731.9523925781</ele>
        <time>2016-05-22T09:35:56Z</time>
      </trkpt>
      <trkpt lat="45.56687" lon="6.77603">
        <ele>1730.9912109375</ele>
        <time>2016-05-22T09:36:01Z</time>
      </trkpt>
      <trkpt lat="45.56684" lon="6.77593">
        <ele>1730.9912109375</ele>
        <time>2016-05-22T09:36:02Z</time>
      </trkpt>
      <trkpt lat="45.5667" lon="6.7755">
        <ele>1729.5490722656</ele>
        <time>2016-05-22T09:36:06Z</time>
      </trkpt>
      <trkpt lat="45.56663" lon="6.77528">
        <ele>1728.587890625</ele>
        <time>2016-05-22T09:36:08Z</time>
      </trkpt>
      <trkpt lat="45.56656" lon="6.77507">
        <ele>1727.1459960938</ele>
        <time>2016-05-22T09:36:10Z</time>
      </trkpt>
      <trkpt lat="45.56651" lon="6.77497">
        <ele>1727.1459960938</ele>
        <time>2016-05-22T09:36:11Z</time>
      </trkpt>
      <trkpt lat="45.56624" lon="6.7746">
        <ele>1725.2231445312</ele>
        <time>2016-05-22T09:36:16Z</time>
      </trkpt>
      <trkpt lat="45.56618" lon="6.77456">
        <ele>1725.2231445312</ele>
        <time>2016-05-22T09:36:17Z</time>
      </trkpt>
      <trkpt lat="45.56584" lon="6.77442">
        <ele>1722.8198242188</ele>
        <time>2016-05-22T09:36:22Z</time>
      </trkpt>
      <trkpt lat="45.56557" lon="6.77419">
        <ele>1720.4165039062</ele>
        <time>2016-05-22T09:36:26Z</time>
      </trkpt>
      <trkpt lat="45.56544" lon="6.77403">
        <ele>1719.9357910156</ele>
        <time>2016-05-22T09:36:28Z</time>
      </trkpt>
      <trkpt lat="45.56531" lon="6.77389">
        <ele>1718.4938964844</ele>
        <time>2016-05-22T09:36:30Z</time>
      </trkpt>
      <trkpt lat="45.56508" lon="6.77349">
        <ele>1717.0520019531</ele>
        <time>2016-05-22T09:36:34Z</time>
      </trkpt>
      <trkpt lat="45.56501" lon="6.77328">
        <ele>1714.6486816406</ele>
        <time>2016-05-22T09:36:36Z</time>
      </trkpt>
      <trkpt lat="45.56474" lon="6.77303">
        <ele>1713.2067871094</ele>
        <time>2016-05-22T09:36:40Z</time>
      </trkpt>
      <trkpt lat="45.56445" lon="6.7727">
        <ele>1710.8034667969</ele>
        <time>2016-05-22T09:36:44Z</time>
      </trkpt>
      <trkpt lat="45.5641" lon="6.77241">
        <ele>1709.3615722656</ele>
        <time>2016-05-22T09:36:48Z</time>
      </trkpt>
      <trkpt lat="45.56389" lon="6.77232">
        <ele>1708.880859375</ele>
        <time>2016-05-22T09:36:50Z</time>
      </trkpt>
      <trkpt lat="45.56368" lon="6.77228">
        <ele>1707.9194335938</ele>
        <time>2016-05-22T09:36:52Z</time>
      </trkpt>
      <trkpt lat="45.56337" lon="6.77225">
        <ele>1705.9965820312</ele>
        <time>2016-05-22T09:36:55Z</time>
      </trkpt>
      <trkpt lat="45.56301" lon="6.77243">
        <ele>1702.6320800781</ele>
        <time>2016-05-22T09:36:59Z</time>
      </trkpt>
      <trkpt lat="45.56268" lon="6.77273">
        <ele>1699.267578125</ele>
        <time>2016-05-22T09:37:03Z</time>
      </trkpt>
      <trkpt lat="45.56249" lon="6.77276">
        <ele>1698.7868652344</ele>
        <time>2016-05-22T09:37:05Z</time>
      </trkpt>
      <trkpt lat="45.56218" lon="6.77279">
        <ele>1697.3449707031</ele>
        <time>2016-05-22T09:37:08Z</time>
      </trkpt>
      <trkpt lat="45.56191" lon="6.77269">
        <ele>1694.4609375</ele>
        <time>2016-05-22T09:37:11Z</time>
      </trkpt>
      <trkpt lat="45.56181" lon="6.77248">
        <ele>1693.0190429688</ele>
        <time>2016-05-22T09:37:13Z</time>
      </trkpt>
      <trkpt lat="45.56177" lon="6.7721">
        <ele>1691.5769042969</ele>
        <time>2016-05-22T09:37:16Z</time>
      </trkpt>
      <trkpt lat="45.56169" lon="6.77186">
        <ele>1690.6154785156</ele>
        <time>2016-05-22T09:37:18Z</time>
      </trkpt>
      <trkpt lat="45.56146" lon="6.77105">
        <ele>1688.2124023438</ele>
        <time>2016-05-22T09:37:24Z</time>
      </trkpt>
      <trkpt lat="45.56133" lon="6.77045">
        <ele>1685.8090820312</ele>
        <time>2016-05-22T09:37:28Z</time>
      </trkpt>
      <trkpt lat="45.56128" lon="6.77031">
        <ele>1684.3671875</ele>
        <time>2016-05-22T09:37:29Z</time>
      </trkpt>
      <trkpt lat="45.56108" lon="6.76994">
        <ele>1682.9250488281</ele>
        <time>2016-05-22T09:37:32Z</time>
      </trkpt>
      <trkpt lat="45.56092" lon="6.76935">
        <ele>1679.0798339844</ele>
        <time>2016-05-22T09:37:36Z</time>
      </trkpt>
      <trkpt lat="45.56084" lon="6.76906">
        <ele>1677.6379394531</ele>
        <time>2016-05-22T09:37:38Z</time>
      </trkpt>
      <trkpt lat="45.56077" lon="6.76894">
        <ele>1675.7150878906</ele>
        <time>2016-05-22T09:37:39Z</time>
      </trkpt>
      <trkpt lat="45.56048" lon="6.76873">
        <ele>1672.8312988281</ele>
        <time>2016-05-22T09:37:42Z</time>
      </trkpt>
      <trkpt lat="45.56039" lon="6.76872">
        <ele>1671.8698730469</ele>
        <time>2016-05-22T09:37:43Z</time>
      </trkpt>
      <trkpt lat="45.56025" lon="6.76869">
        <ele>1668.9860839844</ele>
        <time>2016-05-22T09:37:45Z</time>
      </trkpt>
      <trkpt lat="45.56013" lon="6.76854">
        <ele>1668.5053710938</ele>
        <time>2016-05-22T09:37:49Z</time>
      </trkpt>
      <trkpt lat="45.56008" lon="6.76822">
        <ele>1667.0634765625</ele>
        <time>2016-05-22T09:37:53Z</time>
      </trkpt>
      <trkpt lat="45.55996" lon="6.76798">
        <ele>1665.1408691406</ele>
        <time>2016-05-22T09:37:56Z</time>
      </trkpt>
      <trkpt lat="45.55979" lon="6.76766">
        <ele>1665.1408691406</ele>
        <time>2016-05-22T09:37:59Z</time>
      </trkpt>
      <trkpt lat="45.55976" lon="6.76752">
        <ele>1664.66015625</ele>
        <time>2016-05-22T09:38:00Z</time>
      </trkpt>
      <trkpt lat="45.55959" lon="6.76687">
        <ele>1659.3728027344</ele>
        <time>2016-05-22T09:38:05Z</time>
      </trkpt>
      <trkpt lat="45.55953" lon="6.76677">
        <ele>1658.4113769531</ele>
        <time>2016-05-22T09:38:06Z</time>
      </trkpt>
      <trkpt lat="45.55919" lon="6.76643">
        <ele>1652.6435546875</ele>
        <time>2016-05-22T09:38:11Z</time>
      </trkpt>
      <trkpt lat="45.55909" lon="6.76648">
        <ele>1652.6435546875</ele>
        <time>2016-05-22T09:38:12Z</time>
      </trkpt>
      <trkpt lat="45.55893" lon="6.76659">
        <ele>1652.1628417969</ele>
        <time>2016-05-22T09:38:14Z</time>
      </trkpt>
      <trkpt lat="45.55875" lon="6.76671">
        <ele>1651.2016601562</ele>
        <time>2016-05-22T09:38:16Z</time>
      </trkpt>
      <trkpt lat="45.55866" lon="6.76678">
        <ele>1649.759765625</ele>
        <time>2016-05-22T09:38:17Z</time>
      </trkpt>
      <trkpt lat="45.55836" lon="6.76678">
        <ele>1646.3952636719</ele>
        <time>2016-05-22T09:38:20Z</time>
      </trkpt>
      <trkpt lat="45.55817" lon="6.76661">
        <ele>1644.4724121094</ele>
        <time>2016-05-22T09:38:22Z</time>
      </trkpt>
      <trkpt lat="45.55805" lon="6.76636">
        <ele>1642.0690917969</ele>
        <time>2016-05-22T09:38:24Z</time>
      </trkpt>
      <trkpt lat="45.55791" lon="6.76606">
        <ele>1638.2238769531</ele>
        <time>2016-05-22T09:38:27Z</time>
      </trkpt>
      <trkpt lat="45.55778" lon="6.76599">
        <ele>1634.859375</ele>
        <time>2016-05-22T09:38:29Z</time>
      </trkpt>
      <trkpt lat="45.55755" lon="6.76606">
        <ele>1632.9365234375</ele>
        <time>2016-05-22T09:38:32Z</time>
      </trkpt>
      <trkpt lat="45.55747" lon="6.76603">
        <ele>1632.9365234375</ele>
        <time>2016-05-22T09:38:33Z</time>
      </trkpt>
      <trkpt lat="45.55738" lon="6.76598">
        <ele>1632.9365234375</ele>
        <time>2016-05-22T09:38:34Z</time>
      </trkpt>
      <trkpt lat="45.55699" lon="6.76586">
        <ele>1631.0141601562</ele>
        <time>2016-05-22T09:38:38Z</time>
      </trkpt>
      <trkpt lat="45.55657" lon="6.76573">
        <ele>1628.6108398438</ele>
        <time>2016-05-22T09:38:42Z</time>
      </trkpt>
      <trkpt lat="45.55612" lon="6.76564">
        <ele>1623.8039550781</ele>
        <time>2016-05-22T09:38:46Z</time>
      </trkpt>
      <trkpt lat="45.5558" lon="6.76537">
        <ele>1618.9975585938</ele>
        <time>2016-05-22T09:38:50Z</time>
      </trkpt>
      <trkpt lat="45.55573" lon="6.76513">
        <ele>1618.0361328125</ele>
        <time>2016-05-22T09:38:52Z</time>
      </trkpt>
      <trkpt lat="45.55566" lon="6.76482">
        <ele>1613.2297363281</ele>
        <time>2016-05-22T09:38:56Z</time>
      </trkpt>
      <trkpt lat="45.55561" lon="6.76472">
        <ele>1612.2683105469</ele>
        <time>2016-05-22T09:38:58Z</time>
      </trkpt>
      <trkpt lat="45.55558" lon="6.76466">
        <ele>1611.7875976562</ele>
        <time>2016-05-22T09:38:59Z</time>
      </trkpt>
      <trkpt lat="45.55539" lon="6.76439">
        <ele>1611.3068847656</ele>
        <time>2016-05-22T09:39:03Z</time>
      </trkpt>
      <trkpt lat="45.55518" lon="6.76403">
        <ele>1607.9423828125</ele>
        <time>2016-05-22T09:39:07Z</time>
      </trkpt>
      <trkpt lat="45.55513" lon="6.76394">
        <ele>1607.4616699219</ele>
        <time>2016-05-22T09:39:08Z</time>
      </trkpt>
      <trkpt lat="45.55495" lon="6.76377">
        <ele>1604.5776367188</ele>
        <time>2016-05-22T09:39:12Z</time>
      </trkpt>
      <trkpt lat="45.55488" lon="6.76376">
        <ele>1601.6938476562</ele>
        <time>2016-05-22T09:39:14Z</time>
      </trkpt>
      <trkpt lat="45.55485" lon="6.76376">
        <ele>1601.6938476562</ele>
        <time>2016-05-22T09:39:15Z</time>
      </trkpt>
      <trkpt lat="45.55477" lon="6.76376">
        <ele>1601.2131347656</ele>
        <time>2016-05-22T09:39:17Z</time>
      </trkpt>
      <trkpt lat="45.55451" lon="6.76365">
        <ele>1600.251953125</ele>
        <time>2016-05-22T09:39:22Z</time>
      </trkpt>
      <trkpt lat="45.55443" lon="6.76352">
        <ele>1600.251953125</ele>
        <time>2016-05-22T09:39:24Z</time>
      </trkpt>
      <trkpt lat="45.55416" lon="6.76322">
        <ele>1596.8872070312</ele>
        <time>2016-05-22T09:39:29Z</time>
      </trkpt>
      <trkpt lat="45.55402" lon="6.76313">
        <ele>1594.9643554688</ele>
        <time>2016-05-22T09:39:32Z</time>
      </trkpt>
      <trkpt lat="45.55397" lon="6.76312">
        <ele>1594.4836425781</ele>
        <time>2016-05-22T09:39:33Z</time>
      </trkpt>
      <trkpt lat="45.55385" lon="6.76311">
        <ele>1594.4836425781</ele>
        <time>2016-05-22T09:39:35Z</time>
      </trkpt>
      <trkpt lat="45.55358" lon="6.76296">
        <ele>1593.5224609375</ele>
        <time>2016-05-22T09:39:40Z</time>
      </trkpt>
      <trkpt lat="45.55354" lon="6.76289">
        <ele>1593.5224609375</ele>
        <time>2016-05-22T09:39:41Z</time>
      </trkpt>
      <trkpt lat="45.55343" lon="6.7627">
        <ele>1593.5224609375</ele>
        <time>2016-05-22T09:39:44Z</time>
      </trkpt>
      <trkpt lat="45.55321" lon="6.76253">
        <ele>1592.5612792969</ele>
        <time>2016-05-22T09:39:48Z</time>
      </trkpt>
      <trkpt lat="45.55297" lon="6.7624">
        <ele>1586.7932128906</ele>
        <time>2016-05-22T09:39:53Z</time>
      </trkpt>
      <trkpt lat="45.55296" lon="6.76237">
        <ele>1586.7932128906</ele>
        <time>2016-05-22T09:39:54Z</time>
      </trkpt>
      <trkpt lat="45.55299" lon="6.76227">
        <ele>1585.83203125</ele>
        <time>2016-05-22T09:39:58Z</time>
      </trkpt>
      <trkpt lat="45.55313" lon="6.76219">
        <ele>1585.3513183594</ele>
        <time>2016-05-22T09:40:02Z</time>
      </trkpt>
      <trkpt lat="45.55337" lon="6.76227">
        <ele>1584.8708496094</ele>
        <time>2016-05-22T09:40:06Z</time>
      </trkpt>
      <trkpt lat="45.55343" lon="6.76232">
        <ele>1584.8708496094</ele>
        <time>2016-05-22T09:40:07Z</time>
      </trkpt>
      <trkpt lat="45.55365" lon="6.76247">
        <ele>1583.4287109375</ele>
        <time>2016-05-22T09:40:10Z</time>
      </trkpt>
      <trkpt lat="45.55402" lon="6.76251">
        <ele>1581.0256347656</ele>
        <time>2016-05-22T09:40:14Z</time>
      </trkpt>
      <trkpt lat="45.55418" lon="6.76241">
        <ele>1580.0642089844</ele>
        <time>2016-05-22T09:40:16Z</time>
      </trkpt>
      <trkpt lat="45.55425" lon="6.76223">
        <ele>1579.1025390625</ele>
        <time>2016-05-22T09:40:18Z</time>
      </trkpt>
      <trkpt lat="45.55419" lon="6.76204">
        <ele>1577.6606445312</ele>
        <time>2016-05-22T09:40:20Z</time>
      </trkpt>
      <trkpt lat="45.55403" lon="6.76195">
        <ele>1577.6606445312</ele>
        <time>2016-05-22T09:40:22Z</time>
      </trkpt>
      <trkpt lat="45.5538" lon="6.76188">
        <ele>1576.21875</ele>
        <time>2016-05-22T09:40:25Z</time>
      </trkpt>
      <trkpt lat="45.55325" lon="6.7617">
        <ele>1574.2961425781</ele>
        <time>2016-05-22T09:40:32Z</time>
      </trkpt>
      <trkpt lat="45.553" lon="6.76163">
        <ele>1572.8542480469</ele>
        <time>2016-05-22T09:40:35Z</time>
      </trkpt>
      <trkpt lat="45.55255" lon="6.76148">
        <ele>1569.4897460938</ele>
        <time>2016-05-22T09:40:40Z</time>
      </trkpt>
      <trkpt lat="45.55237" lon="6.76143">
        <ele>1568.5283203125</ele>
        <time>2016-05-22T09:40:42Z</time>
      </trkpt>
      <trkpt lat="45.55194" lon="6.76153">
        <ele>1564.2023925781</ele>
        <time>2016-05-22T09:40:47Z</time>
      </trkpt>
      <trkpt lat="45.5516" lon="6.76172">
        <ele>1562.2795410156</ele>
        <time>2016-05-22T09:40:51Z</time>
      </trkpt>
      <trkpt lat="45.55131" lon="6.7617">
        <ele>1559.8762207031</ele>
        <time>2016-05-22T09:40:54Z</time>
      </trkpt>
      <trkpt lat="45.55122" lon="6.76163">
        <ele>1559.3957519531</ele>
        <time>2016-05-22T09:40:55Z</time>
      </trkpt>
      <trkpt lat="45.55099" lon="6.76128">
        <ele>1556.0310058594</ele>
        <time>2016-05-22T09:40:58Z</time>
      </trkpt>
      <trkpt lat="45.55092" lon="6.76115">
        <ele>1556.0310058594</ele>
        <time>2016-05-22T09:40:59Z</time>
      </trkpt>
      <trkpt lat="45.55067" lon="6.7608">
        <ele>1552.1857910156</ele>
        <time>2016-05-22T09:41:02Z</time>
      </trkpt>
      <trkpt lat="45.55033" lon="6.7606">
        <ele>1549.7827148438</ele>
        <time>2016-05-22T09:41:05Z</time>
      </trkpt>
      <trkpt lat="45.55007" lon="6.7606">
        <ele>1548.8212890625</ele>
        <time>2016-05-22T09:41:07Z</time>
      </trkpt>
      <trkpt lat="45.54957" lon="6.76067">
        <ele>1543.0532226562</ele>
        <time>2016-05-22T09:41:11Z</time>
      </trkpt>
      <trkpt lat="45.54913" lon="6.76074">
        <ele>1539.2080078125</ele>
        <time>2016-05-22T09:41:15Z</time>
      </trkpt>
      <trkpt lat="45.5488" lon="6.76081">
        <ele>1536.32421875</ele>
        <time>2016-05-22T09:41:18Z</time>
      </trkpt>
      <trkpt lat="45.54833" lon="6.76091">
        <ele>1531.998046875</ele>
        <time>2016-05-22T09:41:22Z</time>
      </trkpt>
      <trkpt lat="45.54813" lon="6.76098">
        <ele>1529.1140136719</ele>
        <time>2016-05-22T09:41:24Z</time>
      </trkpt>
      <trkpt lat="45.54787" lon="6.76108">
        <ele>1524.3076171875</ele>
        <time>2016-05-22T09:41:27Z</time>
      </trkpt>
      <trkpt lat="45.54756" lon="6.76123">
        <ele>1519.5012207031</ele>
        <time>2016-05-22T09:41:31Z</time>
      </trkpt>
      <trkpt lat="45.54749" lon="6.76127">
        <ele>1519.5012207031</ele>
        <time>2016-05-22T09:41:32Z</time>
      </trkpt>
      <trkpt lat="45.54728" lon="6.76139">
        <ele>1518.0590820312</ele>
        <time>2016-05-22T09:41:35Z</time>
      </trkpt>
      <trkpt lat="45.54679" lon="6.76166">
        <ele>1516.1364746094</ele>
        <time>2016-05-22T09:41:41Z</time>
      </trkpt>
      <trkpt lat="45.54644" lon="6.76187">
        <ele>1512.7717285156</ele>
        <time>2016-05-22T09:41:45Z</time>
      </trkpt>
      <trkpt lat="45.54617" lon="6.76202">
        <ele>1509.4072265625</ele>
        <time>2016-05-22T09:41:48Z</time>
      </trkpt>
      <trkpt lat="45.54608" lon="6.76207">
        <ele>1508.9265136719</ele>
        <time>2016-05-22T09:41:49Z</time>
      </trkpt>
      <trkpt lat="45.5459" lon="6.76218">
        <ele>1507.9653320312</ele>
        <time>2016-05-22T09:41:51Z</time>
      </trkpt>
      <trkpt lat="45.54572" lon="6.76229">
        <ele>1506.5231933594</ele>
        <time>2016-05-22T09:41:53Z</time>
      </trkpt>
      <trkpt lat="45.54544" lon="6.76245">
        <ele>1504.1201171875</ele>
        <time>2016-05-22T09:41:56Z</time>
      </trkpt>
      <trkpt lat="45.54506" lon="6.76252">
        <ele>1501.2360839844</ele>
        <time>2016-05-22T09:42:00Z</time>
      </trkpt>
      <trkpt lat="45.54477" lon="6.76243">
        <ele>1497.8713378906</ele>
        <time>2016-05-22T09:42:03Z</time>
      </trkpt>
      <trkpt lat="45.54424" lon="6.76224">
        <ele>1492.103515625</ele>
        <time>2016-05-22T09:42:09Z</time>
      </trkpt>
      <trkpt lat="45.54381" lon="6.76226">
        <ele>1487.7775878906</ele>
        <time>2016-05-22T09:42:14Z</time>
      </trkpt>
      <trkpt lat="45.54347" lon="6.76243">
        <ele>1485.3742675781</ele>
        <time>2016-05-22T09:42:18Z</time>
      </trkpt>
      <trkpt lat="45.54324" lon="6.76265">
        <ele>1483.4514160156</ele>
        <time>2016-05-22T09:42:21Z</time>
      </trkpt>
      <trkpt lat="45.54283" lon="6.7631">
        <ele>1480.5676269531</ele>
        <time>2016-05-22T09:42:26Z</time>
      </trkpt>
      <trkpt lat="45.54246" lon="6.76349">
        <ele>1476.7224121094</ele>
        <time>2016-05-22T09:42:30Z</time>
      </trkpt>
      <trkpt lat="45.54229" lon="6.76369">
        <ele>1475.2802734375</ele>
        <time>2016-05-22T09:42:32Z</time>
      </trkpt>
      <trkpt lat="45.54216" lon="6.76387">
        <ele>1471.4350585938</ele>
        <time>2016-05-22T09:42:34Z</time>
      </trkpt>
      <trkpt lat="45.5421" lon="6.76395">
        <ele>1470.9545898438</ele>
        <time>2016-05-22T09:42:35Z</time>
      </trkpt>
      <trkpt lat="45.54196" lon="6.76401">
        <ele>1468.5512695312</ele>
        <time>2016-05-22T09:42:38Z</time>
      </trkpt>
      <trkpt lat="45.54193" lon="6.76386">
        <ele>1467.5895996094</ele>
        <time>2016-05-22T09:42:40Z</time>
      </trkpt>
      <trkpt lat="45.542" lon="6.76371">
        <ele>1466.6284179688</ele>
        <time>2016-05-22T09:42:42Z</time>
      </trkpt>
      <trkpt lat="45.54205" lon="6.76365">
        <ele>1465.6672363281</ele>
        <time>2016-05-22T09:42:43Z</time>
      </trkpt>
      <trkpt lat="45.54241" lon="6.76321">
        <ele>1465.1865234375</ele>
        <time>2016-05-22T09:42:49Z</time>
      </trkpt>
      <trkpt lat="45.54258" lon="6.7629">
        <ele>1463.7443847656</ele>
        <time>2016-05-22T09:42:52Z</time>
      </trkpt>
      <trkpt lat="45.54281" lon="6.76241">
        <ele>1461.8220214844</ele>
        <time>2016-05-22T09:42:56Z</time>
      </trkpt>
      <trkpt lat="45.54293" lon="6.76214">
        <ele>1460.3798828125</ele>
        <time>2016-05-22T09:42:58Z</time>
      </trkpt>
      <trkpt lat="45.54308" lon="6.76188">
        <ele>1457.49609375</ele>
        <time>2016-05-22T09:43:00Z</time>
      </trkpt>
      <trkpt lat="45.54343" lon="6.76139">
        <ele>1454.1315917969</ele>
        <time>2016-05-22T09:43:04Z</time>
      </trkpt>
      <trkpt lat="45.54372" lon="6.76109">
        <ele>1450.7666015625</ele>
        <time>2016-05-22T09:43:07Z</time>
      </trkpt>
      <trkpt lat="45.54415" lon="6.76093">
        <ele>1446.9213867188</ele>
        <time>2016-05-22T09:43:11Z</time>
      </trkpt>
      <trkpt lat="45.54449" lon="6.7609">
        <ele>1442.595703125</ele>
        <time>2016-05-22T09:43:14Z</time>
      </trkpt>
      <trkpt lat="45.54492" lon="6.76068">
        <ele>1438.2697753906</ele>
        <time>2016-05-22T09:43:18Z</time>
      </trkpt>
      <trkpt lat="45.545" lon="6.76057">
        <ele>1438.7504882812</ele>
        <time>2016-05-22T09:43:19Z</time>
      </trkpt>
      <trkpt lat="45.54531" lon="6.76018">
        <ele>1434.4243164062</ele>
        <time>2016-05-22T09:43:23Z</time>
      </trkpt>
      <trkpt lat="45.54537" lon="6.75993">
        <ele>1430.5791015625</ele>
        <time>2016-05-22T09:43:26Z</time>
      </trkpt>
      <trkpt lat="45.54529" lon="6.75989">
        <ele>1430.0983886719</ele>
        <time>2016-05-22T09:43:27Z</time>
      </trkpt>
      <trkpt lat="45.54516" lon="6.75991">
        <ele>1430.0983886719</ele>
        <time>2016-05-22T09:43:29Z</time>
      </trkpt>
      <trkpt lat="45.54504" lon="6.76001">
        <ele>1430.0983886719</ele>
        <time>2016-05-22T09:43:31Z</time>
      </trkpt>
      <trkpt lat="45.54484" lon="6.76019">
        <ele>1428.17578125</ele>
        <time>2016-05-22T09:43:34Z</time>
      </trkpt>
      <trkpt lat="45.54448" lon="6.76034">
        <ele>1426.7338867188</ele>
        <time>2016-05-22T09:43:38Z</time>
      </trkpt>
      <trkpt lat="45.54438" lon="6.76033">
        <ele>1424.8112792969</ele>
        <time>2016-05-22T09:43:39Z</time>
      </trkpt>
      <trkpt lat="45.54406" lon="6.76028">
        <ele>1423.3693847656</ele>
        <time>2016-05-22T09:43:42Z</time>
      </trkpt>
      <trkpt lat="45.54372" lon="6.76031">
        <ele>1420.0046386719</ele>
        <time>2016-05-22T09:43:45Z</time>
      </trkpt>
      <trkpt lat="45.54349" lon="6.76043">
        <ele>1418.0817871094</ele>
        <time>2016-05-22T09:43:47Z</time>
      </trkpt>
      <trkpt lat="45.54325" lon="6.76057">
        <ele>1416.1591796875</ele>
        <time>2016-05-22T09:43:49Z</time>
      </trkpt>
      <trkpt lat="45.54301" lon="6.76065">
        <ele>1414.7172851562</ele>
        <time>2016-05-22T09:43:51Z</time>
      </trkpt>
      <trkpt lat="45.5425" lon="6.76076">
        <ele>1410.3913574219</ele>
        <time>2016-05-22T09:43:55Z</time>
      </trkpt>
      <trkpt lat="45.54238" lon="6.76081">
        <ele>1410.8720703125</ele>
        <time>2016-05-22T09:43:56Z</time>
      </trkpt>
      <trkpt lat="45.54213" lon="6.76092">
        <ele>1407.5075683594</ele>
        <time>2016-05-22T09:43:58Z</time>
      </trkpt>
      <trkpt lat="45.54202" lon="6.76099">
        <ele>1407.5075683594</ele>
        <time>2016-05-22T09:43:59Z</time>
      </trkpt>
      <trkpt lat="45.5419" lon="6.76106">
        <ele>1405.5849609375</ele>
        <time>2016-05-22T09:44:00Z</time>
      </trkpt>
      <trkpt lat="45.54159" lon="6.76135">
        <ele>1401.2587890625</ele>
        <time>2016-05-22T09:44:03Z</time>
      </trkpt>
      <trkpt lat="45.54119" lon="6.76179">
        <ele>1397.4135742188</ele>
        <time>2016-05-22T09:44:07Z</time>
      </trkpt>
      <trkpt lat="45.5408" lon="6.76222">
        <ele>1394.5295410156</ele>
        <time>2016-05-22T09:44:11Z</time>
      </trkpt>
      <trkpt lat="45.54049" lon="6.76255">
        <ele>1390.6843261719</ele>
        <time>2016-05-22T09:44:14Z</time>
      </trkpt>
      <trkpt lat="45.54038" lon="6.76265">
        <ele>1390.6843261719</ele>
        <time>2016-05-22T09:44:15Z</time>
      </trkpt>
      <trkpt lat="45.54003" lon="6.76293">
        <ele>1386.8388671875</ele>
        <time>2016-05-22T09:44:18Z</time>
      </trkpt>
      <trkpt lat="45.53967" lon="6.7632">
        <ele>1383.955078125</ele>
        <time>2016-05-22T09:44:21Z</time>
      </trkpt>
      <trkpt lat="45.53931" lon="6.76345">
        <ele>1380.5905761719</ele>
        <time>2016-05-22T09:44:24Z</time>
      </trkpt>
      <trkpt lat="45.53908" lon="6.76361">
        <ele>1377.2260742188</ele>
        <time>2016-05-22T09:44:26Z</time>
      </trkpt>
      <trkpt lat="45.53876" lon="6.76383">
        <ele>1371.9384765625</ele>
        <time>2016-05-22T09:44:29Z</time>
      </trkpt>
      <trkpt lat="45.53849" lon="6.76402">
        <ele>1367.1320800781</ele>
        <time>2016-05-22T09:44:32Z</time>
      </trkpt>
      <trkpt lat="45.53841" lon="6.76408">
        <ele>1367.1320800781</ele>
        <time>2016-05-22T09:44:33Z</time>
      </trkpt>
      <trkpt lat="45.53834" lon="6.76413">
        <ele>1365.2094726562</ele>
        <time>2016-05-22T09:44:34Z</time>
      </trkpt>
      <trkpt lat="45.53816" lon="6.76418">
        <ele>1363.7673339844</ele>
        <time>2016-05-22T09:44:37Z</time>
      </trkpt>
      <trkpt lat="45.53803" lon="6.7641">
        <ele>1361.8449707031</ele>
        <time>2016-05-22T09:44:40Z</time>
      </trkpt>
      <trkpt lat="45.53799" lon="6.76406">
        <ele>1361.8449707031</ele>
        <time>2016-05-22T09:44:41Z</time>
      </trkpt>
      <trkpt lat="45.5379" lon="6.76395">
        <ele>1361.8449707031</ele>
        <time>2016-05-22T09:44:43Z</time>
      </trkpt>
      <trkpt lat="45.53766" lon="6.7636">
        <ele>1357.5190429688</ele>
        <time>2016-05-22T09:44:49Z</time>
      </trkpt>
      <trkpt lat="45.53754" lon="6.7634">
        <ele>1356.0769042969</ele>
        <time>2016-05-22T09:44:52Z</time>
      </trkpt>
      <trkpt lat="45.53733" lon="6.763">
        <ele>1352.7121582031</ele>
        <time>2016-05-22T09:44:58Z</time>
      </trkpt>
      <trkpt lat="45.53729" lon="6.76293">
        <ele>1352.7121582031</ele>
        <time>2016-05-22T09:44:59Z</time>
      </trkpt>
      <trkpt lat="45.53725" lon="6.76266">
        <ele>1348.8669433594</ele>
        <time>2016-05-22T09:45:03Z</time>
      </trkpt>
      <trkpt lat="45.53736" lon="6.7625">
        <ele>1347.9057617188</ele>
        <time>2016-05-22T09:45:06Z</time>
      </trkpt>
      <trkpt lat="45.53749" lon="6.76248">
        <ele>1346.9443359375</ele>
        <time>2016-05-22T09:45:08Z</time>
      </trkpt>
      <trkpt lat="45.53756" lon="6.76248">
        <ele>1346.4638671875</ele>
        <time>2016-05-22T09:45:09Z</time>
      </trkpt>
      <trkpt lat="45.53799" lon="6.76242">
        <ele>1345.5024414062</ele>
        <time>2016-05-22T09:45:14Z</time>
      </trkpt>
      <trkpt lat="45.53848" lon="6.7622">
        <ele>1342.1379394531</ele>
        <time>2016-05-22T09:45:19Z</time>
      </trkpt>
      <trkpt lat="45.5388" lon="6.76209">
        <ele>1338.7731933594</ele>
        <time>2016-05-22T09:45:22Z</time>
      </trkpt>
      <trkpt lat="45.5391" lon="6.76203">
        <ele>1335.4084472656</ele>
        <time>2016-05-22T09:45:25Z</time>
      </trkpt>
      <trkpt lat="45.53941" lon="6.76175">
        <ele>1331.5632324219</ele>
        <time>2016-05-22T09:45:29Z</time>
      </trkpt>
      <trkpt lat="45.53945" lon="6.76164">
        <ele>1330.1213378906</ele>
        <time>2016-05-22T09:45:30Z</time>
      </trkpt>
      <trkpt lat="45.53963" lon="6.76117">
        <ele>1328.1987304688</ele>
        <time>2016-05-22T09:45:34Z</time>
      </trkpt>
      <trkpt lat="45.53974" lon="6.76083">
        <ele>1323.8725585938</ele>
        <time>2016-05-22T09:45:37Z</time>
      </trkpt>
      <trkpt lat="45.53977" lon="6.76073">
        <ele>1323.8725585938</ele>
        <time>2016-05-22T09:45:38Z</time>
      </trkpt>
      <trkpt lat="45.53997" lon="6.76018">
        <ele>1321.4692382812</ele>
        <time>2016-05-22T09:45:43Z</time>
      </trkpt>
      <trkpt lat="45.54017" lon="6.75974">
        <ele>1320.5080566406</ele>
        <time>2016-05-22T09:45:47Z</time>
      </trkpt>
      <trkpt lat="45.5405" lon="6.75935">
        <ele>1317.1435546875</ele>
        <time>2016-05-22T09:45:52Z</time>
      </trkpt>
      <trkpt lat="45.54098" lon="6.75892">
        <ele>1317.1435546875</ele>
        <time>2016-05-22T09:45:59Z</time>
      </trkpt>
      <trkpt lat="45.54127" lon="6.7586">
        <ele>1316.1821289062</ele>
        <time>2016-05-22T09:46:04Z</time>
      </trkpt>
      <trkpt lat="45.54143" lon="6.75839">
        <ele>1315.7016601562</ele>
        <time>2016-05-22T09:46:07Z</time>
      </trkpt>
      <trkpt lat="45.5416" lon="6.75818">
        <ele>1316.1821289062</ele>
        <time>2016-05-22T09:46:10Z</time>
      </trkpt>
      <trkpt lat="45.54186" lon="6.75802">
        <ele>1316.1821289062</ele>
        <time>2016-05-22T09:46:14Z</time>
      </trkpt>
      <trkpt lat="45.5422" lon="6.75797">
        <ele>1314.740234375</ele>
        <time>2016-05-22T09:46:19Z</time>
      </trkpt>
      <trkpt lat="45.54263" lon="6.75798">
        <ele>1315.2209472656</ele>
        <time>2016-05-22T09:46:26Z</time>
      </trkpt>
      <trkpt lat="45.54269" lon="6.75797">
        <ele>1313.2983398438</ele>
        <time>2016-05-22T09:46:27Z</time>
      </trkpt>
      <trkpt lat="45.54291" lon="6.75782">
        <ele>1312.8176269531</ele>
        <time>2016-05-22T09:46:31Z</time>
      </trkpt>
      <trkpt lat="45.54321" lon="6.7575">
        <ele>1311.8564453125</ele>
        <time>2016-05-22T09:46:38Z</time>
      </trkpt>
      <trkpt lat="45.5435" lon="6.75719">
        <ele>1312.3369140625</ele>
        <time>2016-05-22T09:46:44Z</time>
      </trkpt>
      <trkpt lat="45.54381" lon="6.75684">
        <ele>1312.8176269531</ele>
        <time>2016-05-22T09:46:50Z</time>
      </trkpt>
      <trkpt lat="45.54389" lon="6.75669">
        <ele>1313.7788085938</ele>
        <time>2016-05-22T09:46:52Z</time>
      </trkpt>
      <trkpt lat="45.54408" lon="6.75616">
        <ele>1312.8176269531</ele>
        <time>2016-05-22T09:46:58Z</time>
      </trkpt>
      <trkpt lat="45.54419" lon="6.75589">
        <ele>1310.4143066406</ele>
        <time>2016-05-22T09:47:01Z</time>
      </trkpt>
      <trkpt lat="45.54446" lon="6.75554">
        <ele>1307.5302734375</ele>
        <time>2016-05-22T09:47:06Z</time>
      </trkpt>
      <trkpt lat="45.54462" lon="6.75546">
        <ele>1306.0881347656</ele>
        <time>2016-05-22T09:47:08Z</time>
      </trkpt>
      <trkpt lat="45.54488" lon="6.75536">
        <ele>1302.2429199219</ele>
        <time>2016-05-22T09:47:11Z</time>
      </trkpt>
      <trkpt lat="45.54516" lon="6.75521">
        <ele>1302.7236328125</ele>
        <time>2016-05-22T09:47:14Z</time>
      </trkpt>
      <trkpt lat="45.54548" lon="6.75481">
        <ele>1300.3205566406</ele>
        <time>2016-05-22T09:47:18Z</time>
      </trkpt>
      <trkpt lat="45.54586" lon="6.75418">
        <ele>1298.3977050781</ele>
        <time>2016-05-22T09:47:23Z</time>
      </trkpt>
      <trkpt lat="45.54614" lon="6.75384">
        <ele>1295.9946289062</ele>
        <time>2016-05-22T09:47:26Z</time>
      </trkpt>
      <trkpt lat="45.54634" lon="6.75365">
        <ele>1293.5913085938</ele>
        <time>2016-05-22T09:47:28Z</time>
      </trkpt>
      <trkpt lat="45.5468" lon="6.75345">
        <ele>1288.3039550781</ele>
        <time>2016-05-22T09:47:32Z</time>
      </trkpt>
      <trkpt lat="45.54717" lon="6.75341">
        <ele>1284.4587402344</ele>
        <time>2016-05-22T09:47:35Z</time>
      </trkpt>
      <trkpt lat="45.54741" lon="6.75335">
        <ele>1280.1328125</ele>
        <time>2016-05-22T09:47:37Z</time>
      </trkpt>
      <trkpt lat="45.54754" lon="6.75331">
        <ele>1277.2490234375</ele>
        <time>2016-05-22T09:47:38Z</time>
      </trkpt>
      <trkpt lat="45.54766" lon="6.75328">
        <ele>1276.7683105469</ele>
        <time>2016-05-22T09:47:39Z</time>
      </trkpt>
      <trkpt lat="45.54792" lon="6.75321">
        <ele>1275.3259277344</ele>
        <time>2016-05-22T09:47:41Z</time>
      </trkpt>
      <trkpt lat="45.54836" lon="6.75282">
        <ele>1272.9228515625</ele>
        <time>2016-05-22T09:47:45Z</time>
      </trkpt>
      <trkpt lat="45.54851" lon="6.75256">
        <ele>1270.0388183594</ele>
        <time>2016-05-22T09:47:47Z</time>
      </trkpt>
      <trkpt lat="45.54881" lon="6.75229">
        <ele>1267.6354980469</ele>
        <time>2016-05-22T09:47:50Z</time>
      </trkpt>
      <trkpt lat="45.54892" lon="6.75221">
        <ele>1267.6354980469</ele>
        <time>2016-05-22T09:47:51Z</time>
      </trkpt>
      <trkpt lat="45.54912" lon="6.752">
        <ele>1266.1936035156</ele>
        <time>2016-05-22T09:47:53Z</time>
      </trkpt>
      <trkpt lat="45.54933" lon="6.75178">
        <ele>1263.7902832031</ele>
        <time>2016-05-22T09:47:55Z</time>
      </trkpt>
      <trkpt lat="45.54954" lon="6.75161">
        <ele>1261.3872070312</ele>
        <time>2016-05-22T09:47:57Z</time>
      </trkpt>
      <trkpt lat="45.54974" lon="6.75151">
        <ele>1256.5803222656</ele>
        <time>2016-05-22T09:47:59Z</time>
      </trkpt>
      <trkpt lat="45.54992" lon="6.75154">
        <ele>1253.2158203125</ele>
        <time>2016-05-22T09:48:01Z</time>
      </trkpt>
      <trkpt lat="45.55018" lon="6.75162">
        <ele>1249.3706054688</ele>
        <time>2016-05-22T09:48:04Z</time>
      </trkpt>
      <trkpt lat="45.55033" lon="6.75146">
        <ele>1247.9287109375</ele>
        <time>2016-05-22T09:48:06Z</time>
      </trkpt>
      <trkpt lat="45.55046" lon="6.75108">
        <ele>1242.6413574219</ele>
        <time>2016-05-22T09:48:09Z</time>
      </trkpt>
      <trkpt lat="45.5506" lon="6.75091">
        <ele>1242.1606445312</ele>
        <time>2016-05-22T09:48:11Z</time>
      </trkpt>
      <trkpt lat="45.5509" lon="6.75093">
        <ele>1240.7185058594</ele>
        <time>2016-05-22T09:48:14Z</time>
      </trkpt>
      <trkpt lat="45.55111" lon="6.75102">
        <ele>1238.3154296875</ele>
        <time>2016-05-22T09:48:16Z</time>
      </trkpt>
      <trkpt lat="45.55133" lon="6.75116">
        <ele>1237.8347167969</ele>
        <time>2016-05-22T09:48:18Z</time>
      </trkpt>
      <trkpt lat="45.55145" lon="6.75122">
        <ele>1236.8732910156</ele>
        <time>2016-05-22T09:48:19Z</time>
      </trkpt>
      <trkpt lat="45.55192" lon="6.75122">
        <ele>1233.9895019531</ele>
        <time>2016-05-22T09:48:23Z</time>
      </trkpt>
      <trkpt lat="45.55216" lon="6.75114">
        <ele>1232.5476074219</ele>
        <time>2016-05-22T09:48:25Z</time>
      </trkpt>
      <trkpt lat="45.55281" lon="6.75104">
        <ele>1227.7407226562</ele>
        <time>2016-05-22T09:48:30Z</time>
      </trkpt>
      <trkpt lat="45.55295" lon="6.75102">
        <ele>1226.7795410156</ele>
        <time>2016-05-22T09:48:31Z</time>
      </trkpt>
      <trkpt lat="45.55334" lon="6.75085">
        <ele>1223.8955078125</ele>
        <time>2016-05-22T09:48:34Z</time>
      </trkpt>
      <trkpt lat="45.55357" lon="6.75074">
        <ele>1219.5698242188</ele>
        <time>2016-05-22T09:48:36Z</time>
      </trkpt>
      <trkpt lat="45.55368" lon="6.75071">
        <ele>1216.6857910156</ele>
        <time>2016-05-22T09:48:37Z</time>
      </trkpt>
      <trkpt lat="45.55393" lon="6.75059">
        <ele>1211.3984375</ele>
        <time>2016-05-22T09:48:41Z</time>
      </trkpt>
      <trkpt lat="45.55391" lon="6.7505">
        <ele>1210.4370117188</ele>
        <time>2016-05-22T09:48:43Z</time>
      </trkpt>
      <trkpt lat="45.55383" lon="6.75045">
        <ele>1210.4370117188</ele>
        <time>2016-05-22T09:48:45Z</time>
      </trkpt>
      <trkpt lat="45.55377" lon="6.75048">
        <ele>1208.0339355469</ele>
        <time>2016-05-22T09:48:46Z</time>
      </trkpt>
      <trkpt lat="45.55357" lon="6.75057">
        <ele>1207.0725097656</ele>
        <time>2016-05-22T09:48:49Z</time>
      </trkpt>
      <trkpt lat="45.5535" lon="6.75061">
        <ele>1207.0725097656</ele>
        <time>2016-05-22T09:48:50Z</time>
      </trkpt>
      <trkpt lat="45.55306" lon="6.75063">
        <ele>1204.6691894531</ele>
        <time>2016-05-22T09:48:55Z</time>
      </trkpt>
      <trkpt lat="45.55265" lon="6.75047">
        <ele>1203.7080078125</ele>
        <time>2016-05-22T09:48:59Z</time>
      </trkpt>
      <trkpt lat="45.5523" lon="6.75043">
        <ele>1201.3046875</ele>
        <time>2016-05-22T09:49:02Z</time>
      </trkpt>
      <trkpt lat="45.5518" lon="6.75035">
        <ele>1198.4206542969</ele>
        <time>2016-05-22T09:49:06Z</time>
      </trkpt>
      <trkpt lat="45.55166" lon="6.75034">
        <ele>1196.017578125</ele>
        <time>2016-05-22T09:49:07Z</time>
      </trkpt>
      <trkpt lat="45.55133" lon="6.75017">
        <ele>1190.7299804688</ele>
        <time>2016-05-22T09:49:10Z</time>
      </trkpt>
      <trkpt lat="45.55105" lon="6.75004">
        <ele>1185.9235839844</ele>
        <time>2016-05-22T09:49:14Z</time>
      </trkpt>
      <trkpt lat="45.55107" lon="6.74987">
        <ele>1184.4816894531</ele>
        <time>2016-05-22T09:49:16Z</time>
      </trkpt>
      <trkpt lat="45.55113" lon="6.74987">
        <ele>1184.4816894531</ele>
        <time>2016-05-22T09:49:17Z</time>
      </trkpt>
      <trkpt lat="45.55125" lon="6.74989">
        <ele>1184.4816894531</ele>
        <time>2016-05-22T09:49:19Z</time>
      </trkpt>
      <trkpt lat="45.55149" lon="6.74993">
        <ele>1182.5590820312</ele>
        <time>2016-05-22T09:49:22Z</time>
      </trkpt>
      <trkpt lat="45.55188" lon="6.74984">
        <ele>1181.1171875</ele>
        <time>2016-05-22T09:49:26Z</time>
      </trkpt>
      <trkpt lat="45.5525" lon="6.74969">
        <ele>1177.2717285156</ele>
        <time>2016-05-22T09:49:31Z</time>
      </trkpt>
      <trkpt lat="45.55272" lon="6.74958">
        <ele>1175.8295898438</ele>
        <time>2016-05-22T09:49:33Z</time>
      </trkpt>
      <trkpt lat="45.55307" lon="6.74939">
        <ele>1172.4650878906</ele>
        <time>2016-05-22T09:49:36Z</time>
      </trkpt>
      <trkpt lat="45.55318" lon="6.74933">
        <ele>1172.4650878906</ele>
        <time>2016-05-22T09:49:37Z</time>
      </trkpt>
      <trkpt lat="45.5533" lon="6.74928">
        <ele>1171.5036621094</ele>
        <time>2016-05-22T09:49:38Z</time>
      </trkpt>
      <trkpt lat="45.55377" lon="6.74928">
        <ele>1165.7360839844</ele>
        <time>2016-05-22T09:49:42Z</time>
      </trkpt>
      <trkpt lat="45.55388" lon="6.74933">
        <ele>1166.2165527344</ele>
        <time>2016-05-22T09:49:43Z</time>
      </trkpt>
      <trkpt lat="45.55458" lon="6.74955">
        <ele>1161.890625</ele>
        <time>2016-05-22T09:49:49Z</time>
      </trkpt>
      <trkpt lat="45.55507" lon="6.74968">
        <ele>1158.0454101562</ele>
        <time>2016-05-22T09:49:53Z</time>
      </trkpt>
      <trkpt lat="45.55532" lon="6.74968">
        <ele>1155.6420898438</ele>
        <time>2016-05-22T09:49:55Z</time>
      </trkpt>
      <trkpt lat="45.55558" lon="6.7497">
        <ele>1154.2001953125</ele>
        <time>2016-05-22T09:49:57Z</time>
      </trkpt>
      <trkpt lat="45.55597" lon="6.7496">
        <ele>1152.27734375</ele>
        <time>2016-05-22T09:50:00Z</time>
      </trkpt>
      <trkpt lat="45.55638" lon="6.74953">
        <ele>1149.3935546875</ele>
        <time>2016-05-22T09:50:03Z</time>
      </trkpt>
      <trkpt lat="45.55689" lon="6.74971">
        <ele>1144.1062011719</ele>
        <time>2016-05-22T09:50:07Z</time>
      </trkpt>
      <trkpt lat="45.55713" lon="6.74983">
        <ele>1143.1447753906</ele>
        <time>2016-05-22T09:50:09Z</time>
      </trkpt>
      <trkpt lat="45.55725" lon="6.74987">
        <ele>1142.18359375</ele>
        <time>2016-05-22T09:50:10Z</time>
      </trkpt>
      <trkpt lat="45.55775" lon="6.74971">
        <ele>1136.4157714844</ele>
        <time>2016-05-22T09:50:14Z</time>
      </trkpt>
      <trkpt lat="45.55785" lon="6.74964">
        <ele>1135.9350585938</ele>
        <time>2016-05-22T09:50:15Z</time>
      </trkpt>
      <trkpt lat="45.55802" lon="6.74954">
        <ele>1132.08984375</ele>
        <time>2016-05-22T09:50:17Z</time>
      </trkpt>
      <trkpt lat="45.55823" lon="6.74986">
        <ele>1131.6088867188</ele>
        <time>2016-05-22T09:50:20Z</time>
      </trkpt>
      <trkpt lat="45.55825" lon="6.74998">
        <ele>1129.6862792969</ele>
        <time>2016-05-22T09:50:21Z</time>
      </trkpt>
      <trkpt lat="45.55838" lon="6.75032">
        <ele>1130.1669921875</ele>
        <time>2016-05-22T09:50:24Z</time>
      </trkpt>
      <trkpt lat="45.55862" lon="6.75047">
        <ele>1129.2055664062</ele>
        <time>2016-05-22T09:50:27Z</time>
      </trkpt>
      <trkpt lat="45.55877" lon="6.75038">
        <ele>1128.2443847656</ele>
        <time>2016-05-22T09:50:29Z</time>
      </trkpt>
      <trkpt lat="45.55885" lon="6.75033">
        <ele>1127.763671875</ele>
        <time>2016-05-22T09:50:30Z</time>
      </trkpt>
      <trkpt lat="45.55912" lon="6.7502">
        <ele>1124.3991699219</ele>
        <time>2016-05-22T09:50:33Z</time>
      </trkpt>
      <trkpt lat="45.55941" lon="6.75024">
        <ele>1122.9572753906</ele>
        <time>2016-05-22T09:50:36Z</time>
      </trkpt>
      <trkpt lat="45.55951" lon="6.75032">
        <ele>1122.9572753906</ele>
        <time>2016-05-22T09:50:37Z</time>
      </trkpt>
      <trkpt lat="45.55992" lon="6.75066">
        <ele>1119.1120605469</ele>
        <time>2016-05-22T09:50:41Z</time>
      </trkpt>
      <trkpt lat="45.56003" lon="6.75074">
        <ele>1116.7087402344</ele>
        <time>2016-05-22T09:50:42Z</time>
      </trkpt>
      <trkpt lat="45.5604" lon="6.75078">
        <ele>1114.3051757812</ele>
        <time>2016-05-22T09:50:45Z</time>
      </trkpt>
      <trkpt lat="45.56075" lon="6.75073">
        <ele>1113.3439941406</ele>
        <time>2016-05-22T09:50:48Z</time>
      </trkpt>
      <trkpt lat="45.56108" lon="6.75049">
        <ele>1109.0180664062</ele>
        <time>2016-05-22T09:50:51Z</time>
      </trkpt>
      <trkpt lat="45.56125" lon="6.75029">
        <ele>1104.6921386719</ele>
        <time>2016-05-22T09:50:53Z</time>
      </trkpt>
      <trkpt lat="45.56155" lon="6.75037">
        <ele>1102.76953125</ele>
        <time>2016-05-22T09:50:57Z</time>
      </trkpt>
      <trkpt lat="45.56181" lon="6.7506">
        <ele>1100.8469238281</ele>
        <time>2016-05-22T09:51:00Z</time>
      </trkpt>
      <trkpt lat="45.5619" lon="6.75061">
        <ele>1099.8854980469</ele>
        <time>2016-05-22T09:51:01Z</time>
      </trkpt>
      <trkpt lat="45.56256" lon="6.75062">
        <ele>1097.0014648438</ele>
        <time>2016-05-22T09:51:07Z</time>
      </trkpt>
      <trkpt lat="45.5629" lon="6.75065">
        <ele>1091.7143554688</ele>
        <time>2016-05-22T09:51:10Z</time>
      </trkpt>
      <trkpt lat="45.56319" lon="6.75059">
        <ele>1088.8305664062</ele>
        <time>2016-05-22T09:51:13Z</time>
      </trkpt>
      <trkpt lat="45.56328" lon="6.75055">
        <ele>1084.9853515625</ele>
        <time>2016-05-22T09:51:14Z</time>
      </trkpt>
      <trkpt lat="45.56336" lon="6.75051">
        <ele>1084.9853515625</ele>
        <time>2016-05-22T09:51:15Z</time>
      </trkpt>
      <trkpt lat="45.56362" lon="6.75037">
        <ele>1082.1010742188</ele>
        <time>2016-05-22T09:51:18Z</time>
      </trkpt>
      <trkpt lat="45.56392" lon="6.75043">
        <ele>1080.1784667969</ele>
        <time>2016-05-22T09:51:22Z</time>
      </trkpt>
      <trkpt lat="45.56408" lon="6.75054">
        <ele>1079.6977539062</ele>
        <time>2016-05-22T09:51:24Z</time>
      </trkpt>
      <trkpt lat="45.56424" lon="6.75069">
        <ele>1078.7365722656</ele>
        <time>2016-05-22T09:51:26Z</time>
      </trkpt>
      <trkpt lat="45.56455" lon="6.75099">
        <ele>1074.8913574219</ele>
        <time>2016-05-22T09:51:30Z</time>
      </trkpt>
      <trkpt lat="45.56482" lon="6.75144">
        <ele>1072.4880371094</ele>
        <time>2016-05-22T09:51:34Z</time>
      </trkpt>
      <trkpt lat="45.56499" lon="6.75188">
        <ele>1069.6042480469</ele>
        <time>2016-05-22T09:51:38Z</time>
      </trkpt>
      <trkpt lat="45.56511" lon="6.75203">
        <ele>1066.7199707031</ele>
        <time>2016-05-22T09:51:41Z</time>
      </trkpt>
      <trkpt lat="45.56515" lon="6.752">
        <ele>1066.7199707031</ele>
        <time>2016-05-22T09:51:42Z</time>
      </trkpt>
      <trkpt lat="45.5652" lon="6.75183">
        <ele>1065.7587890625</ele>
        <time>2016-05-22T09:51:45Z</time>
      </trkpt>
      <trkpt lat="45.56513" lon="6.75168">
        <ele>1066.2392578125</ele>
        <time>2016-05-22T09:51:47Z</time>
      </trkpt>
      <trkpt lat="45.56492" lon="6.75125">
        <ele>1063.35546875</ele>
        <time>2016-05-22T09:51:52Z</time>
      </trkpt>
      <trkpt lat="45.56486" lon="6.75105">
        <ele>1061.4328613281</ele>
        <time>2016-05-22T09:51:54Z</time>
      </trkpt>
      <trkpt lat="45.56466" lon="6.75057">
        <ele>1059.9907226562</ele>
        <time>2016-05-22T09:51:59Z</time>
      </trkpt>
      <trkpt lat="45.56446" lon="6.75013">
        <ele>1059.5102539062</ele>
        <time>2016-05-22T09:52:03Z</time>
      </trkpt>
      <trkpt lat="45.56405" lon="6.74958">
        <ele>1054.2231445312</ele>
        <time>2016-05-22T09:52:08Z</time>
      </trkpt>
      <trkpt lat="45.56395" lon="6.7495">
        <ele>1053.7424316406</ele>
        <time>2016-05-22T09:52:09Z</time>
      </trkpt>
      <trkpt lat="45.56375" lon="6.74938">
        <ele>1049.8969726562</ele>
        <time>2016-05-22T09:52:11Z</time>
      </trkpt>
      <trkpt lat="45.56344" lon="6.74939">
        <ele>1047.4936523438</ele>
        <time>2016-05-22T09:52:14Z</time>
      </trkpt>
      <trkpt lat="45.56302" lon="6.74936">
        <ele>1045.5710449219</ele>
        <time>2016-05-22T09:52:18Z</time>
      </trkpt>
      <trkpt lat="45.56268" lon="6.74924">
        <ele>1042.6872558594</ele>
        <time>2016-05-22T09:52:21Z</time>
      </trkpt>
      <trkpt lat="45.56223" lon="6.74898">
        <ele>1040.7644042969</ele>
        <time>2016-05-22T09:52:25Z</time>
      </trkpt>
      <trkpt lat="45.5619" lon="6.74871">
        <ele>1035.4770507812</ele>
        <time>2016-05-22T09:52:28Z</time>
      </trkpt>
      <trkpt lat="45.56163" lon="6.74836">
        <ele>1029.7092285156</ele>
        <time>2016-05-22T09:52:31Z</time>
      </trkpt>
      <trkpt lat="45.56151" lon="6.7481">
        <ele>1025.8640136719</ele>
        <time>2016-05-22T09:52:33Z</time>
      </trkpt>
      <trkpt lat="45.56129" lon="6.74797">
        <ele>1023.4609375</ele>
        <time>2016-05-22T09:52:36Z</time>
      </trkpt>
      <trkpt lat="45.56101" lon="6.748">
        <ele>1021.5380859375</ele>
        <time>2016-05-22T09:52:39Z</time>
      </trkpt>
      <trkpt lat="45.56074" lon="6.74774">
        <ele>1019.6154785156</ele>
        <time>2016-05-22T09:52:42Z</time>
      </trkpt>
      <trkpt lat="45.56045" lon="6.74743">
        <ele>1018.1733398438</ele>
        <time>2016-05-22T09:52:45Z</time>
      </trkpt>
      <trkpt lat="45.56013" lon="6.74715">
        <ele>1014.328125</ele>
        <time>2016-05-22T09:52:48Z</time>
      </trkpt>
      <trkpt lat="45.55992" lon="6.74701">
        <ele>1011.4443359375</ele>
        <time>2016-05-22T09:52:50Z</time>
      </trkpt>
      <trkpt lat="45.55964" lon="6.74697">
        <ele>1006.6376953125</ele>
        <time>2016-05-22T09:52:53Z</time>
      </trkpt>
      <trkpt lat="45.55951" lon="6.74697">
        <ele>1002.7922363281</ele>
        <time>2016-05-22T09:52:56Z</time>
      </trkpt>
      <trkpt lat="45.55957" lon="6.74683">
        <ele>1001.3503417969</ele>
        <time>2016-05-22T09:52:58Z</time>
      </trkpt>
      <trkpt lat="45.5597" lon="6.74679">
        <ele>1000.8696289062</ele>
        <time>2016-05-22T09:53:00Z</time>
      </trkpt>
      <trkpt lat="45.55978" lon="6.74681">
        <ele>1000.8696289062</ele>
        <time>2016-05-22T09:53:01Z</time>
      </trkpt>
      <trkpt lat="45.56026" lon="6.74694">
        <ele>997.98583984375</ele>
        <time>2016-05-22T09:53:06Z</time>
      </trkpt>
      <trkpt lat="45.5607" lon="6.74716">
        <ele>995.58251953125</ele>
        <time>2016-05-22T09:53:10Z</time>
      </trkpt>
      <trkpt lat="45.56105" lon="6.74722">
        <ele>991.7373046875</ele>
        <time>2016-05-22T09:53:13Z</time>
      </trkpt>
      <trkpt lat="45.56118" lon="6.74722">
        <ele>991.7373046875</ele>
        <time>2016-05-22T09:53:14Z</time>
      </trkpt>
      <trkpt lat="45.56143" lon="6.7472">
        <ele>986.93041992188</ele>
        <time>2016-05-22T09:53:16Z</time>
      </trkpt>
      <trkpt lat="45.56173" lon="6.74713">
        <ele>984.52734375</ele>
        <time>2016-05-22T09:53:18Z</time>
      </trkpt>
      <trkpt lat="45.56214" lon="6.74743">
        <ele>982.1240234375</ele>
        <time>2016-05-22T09:53:21Z</time>
      </trkpt>
      <trkpt lat="45.56255" lon="6.74747">
        <ele>976.8369140625</ele>
        <time>2016-05-22T09:53:24Z</time>
      </trkpt>
      <trkpt lat="45.56288" lon="6.74744">
        <ele>973.95288085938</ele>
        <time>2016-05-22T09:53:27Z</time>
      </trkpt>
      <trkpt lat="45.563" lon="6.74745">
        <ele>972.99169921875</ele>
        <time>2016-05-22T09:53:28Z</time>
      </trkpt>
      <trkpt lat="45.56339" lon="6.74735">
        <ele>970.107421875</ele>
        <time>2016-05-22T09:53:31Z</time>
      </trkpt>
      <trkpt lat="45.56352" lon="6.74731">
        <ele>969.626953125</ele>
        <time>2016-05-22T09:53:32Z</time>
      </trkpt>
      <trkpt lat="45.56399" lon="6.74699">
        <ele>964.33959960938</ele>
        <time>2016-05-22T09:53:36Z</time>
      </trkpt>
      <trkpt lat="45.56419" lon="6.7468">
        <ele>961.45581054688</ele>
        <time>2016-05-22T09:53:38Z</time>
      </trkpt>
      <trkpt lat="45.56448" lon="6.74669">
        <ele>956.16845703125</ele>
        <time>2016-05-22T09:53:41Z</time>
      </trkpt>
      <trkpt lat="45.56479" lon="6.74684">
        <ele>954.24584960938</ele>
        <time>2016-05-22T09:53:44Z</time>
      </trkpt>
      <trkpt lat="45.56505" lon="6.74714">
        <ele>951.84252929688</ele>
        <time>2016-05-22T09:53:47Z</time>
      </trkpt>
      <trkpt lat="45.56518" lon="6.7474">
        <ele>950.40063476562</ele>
        <time>2016-05-22T09:53:49Z</time>
      </trkpt>
      <trkpt lat="45.56531" lon="6.74767">
        <ele>948.95849609375</ele>
        <time>2016-05-22T09:53:51Z</time>
      </trkpt>
      <trkpt lat="45.56553" lon="6.74794">
        <ele>943.19067382812</ele>
        <time>2016-05-22T09:53:54Z</time>
      </trkpt>
      <trkpt lat="45.56561" lon="6.74798">
        <ele>943.19067382812</ele>
        <time>2016-05-22T09:53:55Z</time>
      </trkpt>
      <trkpt lat="45.56575" lon="6.74794">
        <ele>942.2294921875</ele>
        <time>2016-05-22T09:53:57Z</time>
      </trkpt>
      <trkpt lat="45.56583" lon="6.7478">
        <ele>942.2294921875</ele>
        <time>2016-05-22T09:53:59Z</time>
      </trkpt>
      <trkpt lat="45.56579" lon="6.74755">
        <ele>940.78735351562</ele>
        <time>2016-05-22T09:54:01Z</time>
      </trkpt>
      <trkpt lat="45.56572" lon="6.74698">
        <ele>935.98071289062</ele>
        <time>2016-05-22T09:54:05Z</time>
      </trkpt>
      <trkpt lat="45.56578" lon="6.74685">
        <ele>935.5</ele>
        <time>2016-05-22T09:54:06Z</time>
      </trkpt>
      <trkpt lat="45.56596" lon="6.74668">
        <ele>933.57739257812</ele>
        <time>2016-05-22T09:54:08Z</time>
      </trkpt>
      <trkpt lat="45.56625" lon="6.7464">
        <ele>929.25146484375</ele>
        <time>2016-05-22T09:54:11Z</time>
      </trkpt>
      <trkpt lat="45.56634" lon="6.74623">
        <ele>924.92578125</ele>
        <time>2016-05-22T09:54:13Z</time>
      </trkpt>
      <trkpt lat="45.56633" lon="6.74615">
        <ele>924.92578125</ele>
        <time>2016-05-22T09:54:14Z</time>
      </trkpt>
      <trkpt lat="45.5662" lon="6.7461">
        <ele>923.48364257812</ele>
        <time>2016-05-22T09:54:16Z</time>
      </trkpt>
      <trkpt lat="45.5661" lon="6.74623">
        <ele>923.48364257812</ele>
        <time>2016-05-22T09:54:18Z</time>
      </trkpt>
      <trkpt lat="45.56588" lon="6.74634">
        <ele>920.11889648438</ele>
        <time>2016-05-22T09:54:21Z</time>
      </trkpt>
      <trkpt lat="45.56572" lon="6.74622">
        <ele>916.75439453125</ele>
        <time>2016-05-22T09:54:24Z</time>
      </trkpt>
      <trkpt lat="45.56579" lon="6.74609">
        <ele>916.27368164062</ele>
        <time>2016-05-22T09:54:26Z</time>
      </trkpt>
      <trkpt lat="45.56592" lon="6.74605">
        <ele>915.3125</ele>
        <time>2016-05-22T09:54:28Z</time>
      </trkpt>
      <trkpt lat="45.56614" lon="6.7459">
        <ele>915.3125</ele>
        <time>2016-05-22T09:54:31Z</time>
      </trkpt>
      <trkpt lat="45.56629" lon="6.74576">
        <ele>913.87036132812</ele>
        <time>2016-05-22T09:54:33Z</time>
      </trkpt>
      <trkpt lat="45.56636" lon="6.74553">
        <ele>910.98657226562</ele>
        <time>2016-05-22T09:54:36Z</time>
      </trkpt>
      <trkpt lat="45.56622" lon="6.74548">
        <ele>910.505859375</ele>
        <time>2016-05-22T09:54:38Z</time>
      </trkpt>
      <trkpt lat="45.56615" lon="6.74552">
        <ele>910.505859375</ele>
        <time>2016-05-22T09:54:39Z</time>
      </trkpt>
      <trkpt lat="45.56572" lon="6.74565">
        <ele>907.62182617188</ele>
        <time>2016-05-22T09:54:44Z</time>
      </trkpt>
      <trkpt lat="45.56562" lon="6.74564">
        <ele>907.62182617188</ele>
        <time>2016-05-22T09:54:45Z</time>
      </trkpt>
      <trkpt lat="45.56522" lon="6.74548">
        <ele>905.21850585938</ele>
        <time>2016-05-22T09:54:49Z</time>
      </trkpt>
      <trkpt lat="45.5649" lon="6.74529">
        <ele>900.892578125</ele>
        <time>2016-05-22T09:54:52Z</time>
      </trkpt>
      <trkpt lat="45.56471" lon="6.74518">
        <ele>898.4892578125</ele>
        <time>2016-05-22T09:54:54Z</time>
      </trkpt>
      <trkpt lat="45.56463" lon="6.74513">
        <ele>895.60546875</ele>
        <time>2016-05-22T09:54:55Z</time>
      </trkpt>
      <trkpt lat="45.56453" lon="6.74494">
        <ele>890.31811523438</ele>
        <time>2016-05-22T09:54:58Z</time>
      </trkpt>
      <trkpt lat="45.56457" lon="6.74488">
        <ele>890.31811523438</ele>
        <time>2016-05-22T09:54:59Z</time>
      </trkpt>
      <trkpt lat="45.56471" lon="6.74487">
        <ele>889.35668945312</ele>
        <time>2016-05-22T09:55:01Z</time>
      </trkpt>
      <trkpt lat="45.56494" lon="6.74502">
        <ele>888.3955078125</ele>
        <time>2016-05-22T09:55:04Z</time>
      </trkpt>
      <trkpt lat="45.56522" lon="6.74494">
        <ele>886.95336914062</ele>
        <time>2016-05-22T09:55:07Z</time>
      </trkpt>
      <trkpt lat="45.56541" lon="6.7448">
        <ele>886.47290039062</ele>
        <time>2016-05-22T09:55:09Z</time>
      </trkpt>
      <trkpt lat="45.56571" lon="6.74463">
        <ele>884.55029296875</ele>
        <time>2016-05-22T09:55:12Z</time>
      </trkpt>
      <trkpt lat="45.56608" lon="6.74463">
        <ele>880.22436523438</ele>
        <time>2016-05-22T09:55:15Z</time>
      </trkpt>
      <trkpt lat="45.5662" lon="6.7446">
        <ele>880.22436523438</ele>
        <time>2016-05-22T09:55:16Z</time>
      </trkpt>
      <trkpt lat="45.56644" lon="6.74455">
        <ele>876.85986328125</ele>
        <time>2016-05-22T09:55:18Z</time>
      </trkpt>
      <trkpt lat="45.56669" lon="6.74445">
        <ele>875.89819335938</ele>
        <time>2016-05-22T09:55:20Z</time>
      </trkpt>
      <trkpt lat="45.56705" lon="6.74416">
        <ele>869.64990234375</ele>
        <time>2016-05-22T09:55:23Z</time>
      </trkpt>
      <trkpt lat="45.56733" lon="6.74378">
        <ele>862.92065429688</ele>
        <time>2016-05-22T09:55:26Z</time>
      </trkpt>
      <trkpt lat="45.56769" lon="6.74339">
        <ele>858.11401367188</ele>
        <time>2016-05-22T09:55:30Z</time>
      </trkpt>
      <trkpt lat="45.56781" lon="6.74333">
        <ele>857.63330078125</ele>
        <time>2016-05-22T09:55:31Z</time>
      </trkpt>
      <trkpt lat="45.5683" lon="6.7431">
        <ele>852.82666015625</ele>
        <time>2016-05-22T09:55:35Z</time>
      </trkpt>
      <trkpt lat="45.56843" lon="6.74302">
        <ele>852.82666015625</ele>
        <time>2016-05-22T09:55:36Z</time>
      </trkpt>
      <trkpt lat="45.56866" lon="6.7429">
        <ele>847.05883789062</ele>
        <time>2016-05-22T09:55:38Z</time>
      </trkpt>
      <trkpt lat="45.56885" lon="6.74282">
        <ele>844.17504882812</ele>
        <time>2016-05-22T09:55:40Z</time>
      </trkpt>
      <trkpt lat="45.56895" lon="6.74262">
        <ele>842.73291015625</ele>
        <time>2016-05-22T09:55:42Z</time>
      </trkpt>
      <trkpt lat="45.56894" lon="6.74233">
        <ele>841.771484375</ele>
        <time>2016-05-22T09:55:44Z</time>
      </trkpt>
      <trkpt lat="45.56895" lon="6.74219">
        <ele>838.40698242188</ele>
        <time>2016-05-22T09:55:45Z</time>
      </trkpt>
      <trkpt lat="45.56909" lon="6.74192">
        <ele>835.04248046875</ele>
        <time>2016-05-22T09:55:48Z</time>
      </trkpt>
      <trkpt lat="45.56918" lon="6.74188">
        <ele>834.0810546875</ele>
        <time>2016-05-22T09:55:49Z</time>
      </trkpt>
      <trkpt lat="45.56943" lon="6.74174">
        <ele>832.63916015625</ele>
        <time>2016-05-22T09:55:52Z</time>
      </trkpt>
      <trkpt lat="45.56962" lon="6.74144">
        <ele>830.71655273438</ele>
        <time>2016-05-22T09:55:55Z</time>
      </trkpt>
      <trkpt lat="45.56965" lon="6.74133">
        <ele>830.71655273438</ele>
        <time>2016-05-22T09:55:56Z</time>
      </trkpt>
      <trkpt lat="45.56963" lon="6.74109">
        <ele>829.2744140625</ele>
        <time>2016-05-22T09:55:58Z</time>
      </trkpt>
      <trkpt lat="45.56963" lon="6.74074">
        <ele>824.94848632812</ele>
        <time>2016-05-22T09:56:01Z</time>
      </trkpt>
      <trkpt lat="45.56966" lon="6.74062">
        <ele>824.94848632812</ele>
        <time>2016-05-22T09:56:02Z</time>
      </trkpt>
      <trkpt lat="45.56974" lon="6.74042">
        <ele>824.4677734375</ele>
        <time>2016-05-22T09:56:04Z</time>
      </trkpt>
      <trkpt lat="45.57" lon="6.73989">
        <ele>823.02587890625</ele>
        <time>2016-05-22T09:56:09Z</time>
      </trkpt>
      <trkpt lat="45.57024" lon="6.73974">
        <ele>819.66137695312</ele>
        <time>2016-05-22T09:56:12Z</time>
      </trkpt>
      <trkpt lat="45.57055" lon="6.73944">
        <ele>815.81616210938</ele>
        <time>2016-05-22T09:56:16Z</time>
      </trkpt>
      <trkpt lat="45.57084" lon="6.73909">
        <ele>812.45141601562</ele>
        <time>2016-05-22T09:56:21Z</time>
      </trkpt>
      <trkpt lat="45.57092" lon="6.73894">
        <ele>808.60595703125</ele>
        <time>2016-05-22T09:56:23Z</time>
      </trkpt>
      <trkpt lat="45.57096" lon="6.73887">
        <ele>809.08666992188</ele>
        <time>2016-05-22T09:56:24Z</time>
      </trkpt>
      <trkpt lat="45.57107" lon="6.73867">
        <ele>808.12548828125</ele>
        <time>2016-05-22T09:56:27Z</time>
      </trkpt>
      <trkpt lat="45.57129" lon="6.73844">
        <ele>806.68334960938</ele>
        <time>2016-05-22T09:56:31Z</time>
      </trkpt>
      <trkpt lat="45.57135" lon="6.73836">
        <ele>806.68334960938</ele>
        <time>2016-05-22T09:56:32Z</time>
      </trkpt>
      <trkpt lat="45.57164" lon="6.73806">
        <ele>805.24145507812</ele>
        <time>2016-05-22T09:56:36Z</time>
      </trkpt>
      <trkpt lat="45.57206" lon="6.73778">
        <ele>802.357421875</ele>
        <time>2016-05-22T09:56:41Z</time>
      </trkpt>
      <trkpt lat="45.57229" lon="6.73762">
        <ele>798.99291992188</ele>
        <time>2016-05-22T09:56:44Z</time>
      </trkpt>
      <trkpt lat="45.57281" lon="6.73727">
        <ele>796.10913085938</ele>
        <time>2016-05-22T09:56:50Z</time>
      </trkpt>
      <trkpt lat="45.57338" lon="6.73687">
        <ele>791.78295898438</ele>
        <time>2016-05-22T09:56:56Z</time>
      </trkpt>
      <trkpt lat="45.57398" lon="6.73651">
        <ele>788.41845703125</ele>
        <time>2016-05-22T09:57:02Z</time>
      </trkpt>
      <trkpt lat="45.57468" lon="6.73615">
        <ele>785.53442382812</ele>
        <time>2016-05-22T09:57:09Z</time>
      </trkpt>
      <trkpt lat="45.57486" lon="6.73606">
        <ele>780.72802734375</ele>
        <time>2016-05-22T09:57:11Z</time>
      </trkpt>
      <trkpt lat="45.57503" lon="6.73597">
        <ele>779.76635742188</ele>
        <time>2016-05-22T09:57:13Z</time>
      </trkpt>
      <trkpt lat="45.57523" lon="6.73585">
        <ele>775.92114257812</ele>
        <time>2016-05-22T09:57:16Z</time>
      </trkpt>
      <trkpt lat="45.57533" lon="6.7358">
        <ele>774.9599609375</ele>
        <time>2016-05-22T09:57:18Z</time>
      </trkpt>
      <trkpt lat="45.57557" lon="6.73562">
        <ele>773.99853515625</ele>
        <time>2016-05-22T09:57:24Z</time>
      </trkpt>
      <trkpt lat="45.57586" lon="6.73521">
        <ele>771.59521484375</ele>
        <time>2016-05-22T09:57:31Z</time>
      </trkpt>
      <trkpt lat="45.57614" lon="6.73472">
        <ele>770.1533203125</ele>
        <time>2016-05-22T09:57:37Z</time>
      </trkpt>
      <trkpt lat="45.57622" lon="6.73456">
        <ele>768.71142578125</ele>
        <time>2016-05-22T09:57:39Z</time>
      </trkpt>
      <trkpt lat="45.57629" lon="6.73446">
        <ele>769.19213867188</ele>
        <time>2016-05-22T09:57:41Z</time>
      </trkpt>
      <trkpt lat="45.57633" lon="6.73446">
        <ele>768.23071289062</ele>
        <time>2016-05-22T09:57:43Z</time>
      </trkpt>
      <trkpt lat="45.57641" lon="6.73453">
        <ele>767.26953125</ele>
        <time>2016-05-22T09:57:47Z</time>
      </trkpt>
      <trkpt lat="45.57645" lon="6.73451">
        <ele>766.30810546875</ele>
        <time>2016-05-22T09:57:48Z</time>
      </trkpt>
      <trkpt lat="45.57658" lon="6.73445">
        <ele>764.8662109375</ele>
        <time>2016-05-22T09:57:51Z</time>
      </trkpt>
      <trkpt lat="45.57664" lon="6.73444">
        <ele>763.90454101562</ele>
        <time>2016-05-22T09:57:55Z</time>
      </trkpt>
      <trkpt lat="45.57667" lon="6.73449">
        <ele>762.46264648438</ele>
        <time>2016-05-22T09:59:38Z</time>
      </trkpt>
      <trkpt lat="45.57666" lon="6.73465">
        <ele>761.98217773438</ele>
        <time>2016-05-22T09:59:44Z</time>
      </trkpt>
      <trkpt lat="45.57667" lon="6.73472">
        <ele>761.50146484375</ele>
        <time>2016-05-22T09:59:46Z</time>
      </trkpt>
      <trkpt lat="45.57668" lon="6.73474">
        <ele>761.50146484375</ele>
        <time>2016-05-22T09:59:47Z</time>
      </trkpt>
      <trkpt lat="45.57674" lon="6.73495">
        <ele>762.46264648438</ele>
        <time>2016-05-22T09:59:53Z</time>
      </trkpt>
      <trkpt lat="45.57681" lon="6.7351">
        <ele>762.943359375</ele>
        <time>2016-05-22T09:59:58Z</time>
      </trkpt>
      <trkpt lat="45.57689" lon="6.73529">
        <ele>762.943359375</ele>
        <time>2016-05-22T10:00:03Z</time>
      </trkpt>
      <trkpt lat="45.57702" lon="6.73563">
        <ele>763.42407226562</ele>
        <time>2016-05-22T10:00:09Z</time>
      </trkpt>
      <trkpt lat="45.57706" lon="6.73595">
        <ele>763.90454101562</ele>
        <time>2016-05-22T10:00:14Z</time>
      </trkpt>
      <trkpt lat="45.57704" lon="6.73637">
        <ele>764.8662109375</ele>
        <time>2016-05-22T10:00:20Z</time>
      </trkpt>
      <trkpt lat="45.57697" lon="6.7368">
        <ele>765.34692382812</ele>
        <time>2016-05-22T10:00:26Z</time>
      </trkpt>
      <trkpt lat="45.57695" lon="6.73687">
        <ele>764.8662109375</ele>
        <time>2016-05-22T10:00:27Z</time>
      </trkpt>
      <trkpt lat="45.57683" lon="6.73707">
        <ele>765.34692382812</ele>
        <time>2016-05-22T10:00:31Z</time>
      </trkpt>
      <trkpt lat="45.57671" lon="6.73722">
        <ele>765.82763671875</ele>
        <time>2016-05-22T10:00:35Z</time>
      </trkpt>
      <trkpt lat="45.57678" lon="6.73754">
        <ele>766.78881835938</ele>
        <time>2016-05-22T10:00:42Z</time>
      </trkpt>
      <trkpt lat="45.57672" lon="6.73768">
        <ele>766.30810546875</ele>
        <time>2016-05-22T10:00:44Z</time>
      </trkpt>
      <trkpt lat="45.57655" lon="6.73828">
        <ele>765.82763671875</ele>
        <time>2016-05-22T10:00:52Z</time>
      </trkpt>
      <trkpt lat="45.57653" lon="6.73842">
        <ele>765.82763671875</ele>
        <time>2016-05-22T10:00:54Z</time>
      </trkpt>
      <trkpt lat="45.57652" lon="6.73904">
        <ele>765.34692382812</ele>
        <time>2016-05-22T10:01:02Z</time>
      </trkpt>
      <trkpt lat="45.57653" lon="6.73947">
        <ele>765.34692382812</ele>
        <time>2016-05-22T10:01:08Z</time>
      </trkpt>
      <trkpt lat="45.57659" lon="6.73975">
        <ele>764.38549804688</ele>
        <time>2016-05-22T10:01:12Z</time>
      </trkpt>
      <trkpt lat="45.57669" lon="6.74005">
        <ele>766.78881835938</ele>
        <time>2016-05-22T10:01:17Z</time>
      </trkpt>
      <trkpt lat="45.57676" lon="6.74037">
        <ele>766.78881835938</ele>
        <time>2016-05-22T10:01:23Z</time>
      </trkpt>
      <trkpt lat="45.57684" lon="6.74065">
        <ele>768.23071289062</ele>
        <time>2016-05-22T10:01:29Z</time>
      </trkpt>
      <trkpt lat="45.577" lon="6.7409">
        <ele>769.6728515625</ele>
        <time>2016-05-22T10:01:35Z</time>
      </trkpt>
      <trkpt lat="45.57715" lon="6.74105">
        <ele>770.63403320312</ele>
        <time>2016-05-22T10:01:39Z</time>
      </trkpt>
      <trkpt lat="45.57739" lon="6.74116">
        <ele>771.59521484375</ele>
        <time>2016-05-22T10:01:45Z</time>
      </trkpt>
      <trkpt lat="45.57765" lon="6.74127">
        <ele>773.51806640625</ele>
        <time>2016-05-22T10:01:52Z</time>
      </trkpt>
      <trkpt lat="45.57787" lon="6.74138">
        <ele>773.03735351562</ele>
        <time>2016-05-22T10:01:57Z</time>
      </trkpt>
      <trkpt lat="45.57804" lon="6.74149">
        <ele>772.07592773438</ele>
        <time>2016-05-22T10:02:00Z</time>
      </trkpt>
      <trkpt lat="45.57828" lon="6.74152">
        <ele>770.63403320312</ele>
        <time>2016-05-22T10:02:03Z</time>
      </trkpt>
      <trkpt lat="45.57849" lon="6.74144">
        <ele>771.11474609375</ele>
        <time>2016-05-22T10:02:06Z</time>
      </trkpt>
      <trkpt lat="45.57888" lon="6.74127">
        <ele>770.63403320312</ele>
        <time>2016-05-22T10:02:12Z</time>
      </trkpt>
      <trkpt lat="45.57899" lon="6.74123">
        <ele>770.1533203125</ele>
        <time>2016-05-22T10:02:14Z</time>
      </trkpt>
      <trkpt lat="45.57918" lon="6.7411">
        <ele>770.63403320312</ele>
        <time>2016-05-22T10:02:18Z</time>
      </trkpt>
      <trkpt lat="45.5794" lon="6.74102">
        <ele>769.6728515625</ele>
        <time>2016-05-22T10:02:22Z</time>
      </trkpt>
      <trkpt lat="45.57977" lon="6.74102">
        <ele>770.63403320312</ele>
        <time>2016-05-22T10:02:29Z</time>
      </trkpt>
      <trkpt lat="45.58026" lon="6.74115">
        <ele>770.63403320312</ele>
        <time>2016-05-22T10:02:38Z</time>
      </trkpt>
      <trkpt lat="45.58062" lon="6.74131">
        <ele>770.63403320312</ele>
        <time>2016-05-22T10:02:45Z</time>
      </trkpt>
      <trkpt lat="45.58082" lon="6.74156">
        <ele>770.63403320312</ele>
        <time>2016-05-22T10:02:50Z</time>
      </trkpt>
      <trkpt lat="45.58084" lon="6.74163">
        <ele>770.63403320312</ele>
        <time>2016-05-22T10:02:51Z</time>
      </trkpt>
      <trkpt lat="45.58103" lon="6.74213">
        <ele>771.59521484375</ele>
        <time>2016-05-22T10:02:58Z</time>
      </trkpt>
      <trkpt lat="45.58115" lon="6.74246">
        <ele>771.59521484375</ele>
        <time>2016-05-22T10:03:03Z</time>
      </trkpt>
      <trkpt lat="45.58121" lon="6.74279">
        <ele>772.07592773438</ele>
        <time>2016-05-22T10:03:08Z</time>
      </trkpt>
      <trkpt lat="45.58121" lon="6.74293">
        <ele>770.63403320312</ele>
        <time>2016-05-22T10:03:10Z</time>
      </trkpt>
      <trkpt lat="45.58131" lon="6.74329">
        <ele>770.1533203125</ele>
        <time>2016-05-22T10:03:15Z</time>
      </trkpt>
      <trkpt lat="45.58156" lon="6.74382">
        <ele>771.11474609375</ele>
        <time>2016-05-22T10:03:23Z</time>
      </trkpt>
      <trkpt lat="45.58178" lon="6.74431">
        <ele>771.59521484375</ele>
        <time>2016-05-22T10:03:31Z</time>
      </trkpt>
      <trkpt lat="45.58184" lon="6.74443">
        <ele>771.11474609375</ele>
        <time>2016-05-22T10:03:33Z</time>
      </trkpt>
      <trkpt lat="45.58188" lon="6.74449">
        <ele>771.59521484375</ele>
        <time>2016-05-22T10:03:34Z</time>
      </trkpt>
      <trkpt lat="45.58195" lon="6.74478">
        <ele>771.11474609375</ele>
        <time>2016-05-22T10:03:38Z</time>
      </trkpt>
      <trkpt lat="45.58202" lon="6.74548">
        <ele>772.07592773438</ele>
        <time>2016-05-22T10:03:47Z</time>
      </trkpt>
      <trkpt lat="45.58217" lon="6.74592">
        <ele>772.07592773438</ele>
        <time>2016-05-22T10:03:53Z</time>
      </trkpt>
      <trkpt lat="45.58222" lon="6.74607">
        <ele>771.59521484375</ele>
        <time>2016-05-22T10:03:55Z</time>
      </trkpt>
      <trkpt lat="45.58231" lon="6.74642">
        <ele>772.556640625</ele>
        <time>2016-05-22T10:04:00Z</time>
      </trkpt>
      <trkpt lat="45.58234" lon="6.74649">
        <ele>773.03735351562</ele>
        <time>2016-05-22T10:04:01Z</time>
      </trkpt>
      <trkpt lat="45.58266" lon="6.74686">
        <ele>773.51806640625</ele>
        <time>2016-05-22T10:04:08Z</time>
      </trkpt>
      <trkpt lat="45.58307" lon="6.74732">
        <ele>772.556640625</ele>
        <time>2016-05-22T10:04:17Z</time>
      </trkpt>
      <trkpt lat="45.58317" lon="6.74741">
        <ele>773.03735351562</ele>
        <time>2016-05-22T10:04:19Z</time>
      </trkpt>
      <trkpt lat="45.58348" lon="6.74761">
        <ele>776.40185546875</ele>
        <time>2016-05-22T10:04:25Z</time>
      </trkpt>
      <trkpt lat="45.58364" lon="6.74772">
        <ele>774.9599609375</ele>
        <time>2016-05-22T10:04:28Z</time>
      </trkpt>
      <trkpt lat="45.58392" lon="6.74783">
        <ele>773.51806640625</ele>
        <time>2016-05-22T10:04:33Z</time>
      </trkpt>
      <trkpt lat="45.58435" lon="6.74791">
        <ele>773.99853515625</ele>
        <time>2016-05-22T10:04:40Z</time>
      </trkpt>
      <trkpt lat="45.58477" lon="6.748">
        <ele>773.51806640625</ele>
        <time>2016-05-22T10:04:47Z</time>
      </trkpt>
      <trkpt lat="45.58494" lon="6.74806">
        <ele>773.03735351562</ele>
        <time>2016-05-22T10:04:50Z</time>
      </trkpt>
      <trkpt lat="45.58514" lon="6.74825">
        <ele>774.9599609375</ele>
        <time>2016-05-22T10:04:54Z</time>
      </trkpt>
      <trkpt lat="45.58536" lon="6.74844">
        <ele>773.99853515625</ele>
        <time>2016-05-22T10:04:58Z</time>
      </trkpt>
      <trkpt lat="45.58571" lon="6.74858">
        <ele>773.51806640625</ele>
        <time>2016-05-22T10:05:04Z</time>
      </trkpt>
      <trkpt lat="45.58591" lon="6.74878">
        <ele>773.51806640625</ele>
        <time>2016-05-22T10:05:08Z</time>
      </trkpt>
      <trkpt lat="45.58621" lon="6.74894">
        <ele>773.99853515625</ele>
        <time>2016-05-22T10:05:13Z</time>
      </trkpt>
      <trkpt lat="45.5867" lon="6.74898">
        <ele>772.556640625</ele>
        <time>2016-05-22T10:05:21Z</time>
      </trkpt>
      <trkpt lat="45.58696" lon="6.74901">
        <ele>773.99853515625</ele>
        <time>2016-05-22T10:05:25Z</time>
      </trkpt>
      <trkpt lat="45.58733" lon="6.74901">
        <ele>774.47924804688</ele>
        <time>2016-05-22T10:05:31Z</time>
      </trkpt>
      <trkpt lat="45.58762" lon="6.7491">
        <ele>773.99853515625</ele>
        <time>2016-05-22T10:05:36Z</time>
      </trkpt>
      <trkpt lat="45.58803" lon="6.74912">
        <ele>776.40185546875</ele>
        <time>2016-05-22T10:05:43Z</time>
      </trkpt>
      <trkpt lat="45.58848" lon="6.7491">
        <ele>776.40185546875</ele>
        <time>2016-05-22T10:05:51Z</time>
      </trkpt>
      <trkpt lat="45.58868" lon="6.74912">
        <ele>776.40185546875</ele>
        <time>2016-05-22T10:05:55Z</time>
      </trkpt>
      <trkpt lat="45.58877" lon="6.7491">
        <ele>774.9599609375</ele>
        <time>2016-05-22T10:05:57Z</time>
      </trkpt>
      <trkpt lat="45.58886" lon="6.74908">
        <ele>775.92114257812</ele>
        <time>2016-05-22T10:05:59Z</time>
      </trkpt>
      <trkpt lat="45.58911" lon="6.74912">
        <ele>773.99853515625</ele>
        <time>2016-05-22T10:06:04Z</time>
      </trkpt>
      <trkpt lat="45.58916" lon="6.74913">
        <ele>773.99853515625</ele>
        <time>2016-05-22T10:06:05Z</time>
      </trkpt>
      <trkpt lat="45.58937" lon="6.74916">
        <ele>774.9599609375</ele>
        <time>2016-05-22T10:06:09Z</time>
      </trkpt>
      <trkpt lat="45.58971" lon="6.74937">
        <ele>775.4404296875</ele>
        <time>2016-05-22T10:06:16Z</time>
      </trkpt>
      <trkpt lat="45.58996" lon="6.74951">
        <ele>775.92114257812</ele>
        <time>2016-05-22T10:06:21Z</time>
      </trkpt>
      <trkpt lat="45.59007" lon="6.74955">
        <ele>776.88256835938</ele>
        <time>2016-05-22T10:06:23Z</time>
      </trkpt>
      <trkpt lat="45.59036" lon="6.74964">
        <ele>777.36328125</ele>
        <time>2016-05-22T10:06:28Z</time>
      </trkpt>
      <trkpt lat="45.5906" lon="6.74993">
        <ele>779.28564453125</ele>
        <time>2016-05-22T10:06:33Z</time>
      </trkpt>
      <trkpt lat="45.59082" lon="6.75004">
        <ele>780.72802734375</ele>
        <time>2016-05-22T10:06:37Z</time>
      </trkpt>
      <trkpt lat="45.5914" lon="6.7501">
        <ele>778.32446289062</ele>
        <time>2016-05-22T10:06:47Z</time>
      </trkpt>
      <trkpt lat="45.59157" lon="6.75013">
        <ele>779.28564453125</ele>
        <time>2016-05-22T10:06:50Z</time>
      </trkpt>
      <trkpt lat="45.59173" lon="6.75022">
        <ele>777.84375</ele>
        <time>2016-05-22T10:06:53Z</time>
      </trkpt>
      <trkpt lat="45.59192" lon="6.75041">
        <ele>778.32446289062</ele>
        <time>2016-05-22T10:06:57Z</time>
      </trkpt>
      <trkpt lat="45.59224" lon="6.75079">
        <ele>779.28564453125</ele>
        <time>2016-05-22T10:07:04Z</time>
      </trkpt>
      <trkpt lat="45.59245" lon="6.75108">
        <ele>779.28564453125</ele>
        <time>2016-05-22T10:07:09Z</time>
      </trkpt>
      <trkpt lat="45.59262" lon="6.75133">
        <ele>778.80517578125</ele>
        <time>2016-05-22T10:07:13Z</time>
      </trkpt>
      <trkpt lat="45.59275" lon="6.75148">
        <ele>780.72802734375</ele>
        <time>2016-05-22T10:07:16Z</time>
      </trkpt>
      <trkpt lat="45.59285" lon="6.75153">
        <ele>780.24731445312</ele>
        <time>2016-05-22T10:07:18Z</time>
      </trkpt>
      <trkpt lat="45.59296" lon="6.75156">
        <ele>781.20874023438</ele>
        <time>2016-05-22T10:07:20Z</time>
      </trkpt>
      <trkpt lat="45.59341" lon="6.75173">
        <ele>780.72802734375</ele>
        <time>2016-05-22T10:07:28Z</time>
      </trkpt>
      <trkpt lat="45.59369" lon="6.75188">
        <ele>781.20874023438</ele>
        <time>2016-05-22T10:07:33Z</time>
      </trkpt>
      <trkpt lat="45.59397" lon="6.75195">
        <ele>781.68920898438</ele>
        <time>2016-05-22T10:07:38Z</time>
      </trkpt>
      <trkpt lat="45.59423" lon="6.75217">
        <ele>781.68920898438</ele>
        <time>2016-05-22T10:07:43Z</time>
      </trkpt>
      <trkpt lat="45.59427" lon="6.75224">
        <ele>780.72802734375</ele>
        <time>2016-05-22T10:07:44Z</time>
      </trkpt>
      <trkpt lat="45.59451" lon="6.75271">
        <ele>780.72802734375</ele>
        <time>2016-05-22T10:07:51Z</time>
      </trkpt>
      <trkpt lat="45.59479" lon="6.75303">
        <ele>780.24731445312</ele>
        <time>2016-05-22T10:07:57Z</time>
      </trkpt>
      <trkpt lat="45.59511" lon="6.75339">
        <ele>781.20874023438</ele>
        <time>2016-05-22T10:08:04Z</time>
      </trkpt>
      <trkpt lat="45.59544" lon="6.75381">
        <ele>781.20874023438</ele>
        <time>2016-05-22T10:08:12Z</time>
      </trkpt>
      <trkpt lat="45.59559" lon="6.75391">
        <ele>781.68920898438</ele>
        <time>2016-05-22T10:08:15Z</time>
      </trkpt>
      <trkpt lat="45.59576" lon="6.75412">
        <ele>781.68920898438</ele>
        <time>2016-05-22T10:08:19Z</time>
      </trkpt>
      <trkpt lat="45.59596" lon="6.75425">
        <ele>783.61181640625</ele>
        <time>2016-05-22T10:08:23Z</time>
      </trkpt>
      <trkpt lat="45.59602" lon="6.75427">
        <ele>782.169921875</ele>
        <time>2016-05-22T10:08:24Z</time>
      </trkpt>
      <trkpt lat="45.59629" lon="6.75442">
        <ele>782.65063476562</ele>
        <time>2016-05-22T10:08:29Z</time>
      </trkpt>
      <trkpt lat="45.59668" lon="6.75468">
        <ele>781.68920898438</ele>
        <time>2016-05-22T10:08:36Z</time>
      </trkpt>
      <trkpt lat="45.59684" lon="6.75481">
        <ele>781.68920898438</ele>
        <time>2016-05-22T10:08:39Z</time>
      </trkpt>
      <trkpt lat="45.59706" lon="6.75485">
        <ele>783.13110351562</ele>
        <time>2016-05-22T10:08:43Z</time>
      </trkpt>
      <trkpt lat="45.59732" lon="6.755">
        <ele>783.13110351562</ele>
        <time>2016-05-22T10:08:48Z</time>
      </trkpt>
      <trkpt lat="45.59759" lon="6.75541">
        <ele>782.65063476562</ele>
        <time>2016-05-22T10:08:54Z</time>
      </trkpt>
      <trkpt lat="45.59782" lon="6.75593">
        <ele>784.5732421875</ele>
        <time>2016-05-22T10:09:01Z</time>
      </trkpt>
      <trkpt lat="45.59797" lon="6.75628">
        <ele>783.61181640625</ele>
        <time>2016-05-22T10:09:06Z</time>
      </trkpt>
      <trkpt lat="45.59801" lon="6.7566">
        <ele>784.5732421875</ele>
        <time>2016-05-22T10:09:10Z</time>
      </trkpt>
      <trkpt lat="45.59806" lon="6.75718">
        <ele>786.49584960938</ele>
        <time>2016-05-22T10:09:17Z</time>
      </trkpt>
      <trkpt lat="45.59819" lon="6.75743">
        <ele>786.49584960938</ele>
        <time>2016-05-22T10:09:21Z</time>
      </trkpt>
      <trkpt lat="45.59824" lon="6.75748">
        <ele>787.45703125</ele>
        <time>2016-05-22T10:09:22Z</time>
      </trkpt>
      <trkpt lat="45.59836" lon="6.75784">
        <ele>786.97631835938</ele>
        <time>2016-05-22T10:09:27Z</time>
      </trkpt>
      <trkpt lat="45.59851" lon="6.75808">
        <ele>788.41845703125</ele>
        <time>2016-05-22T10:09:31Z</time>
      </trkpt>
      <trkpt lat="45.5986" lon="6.75817">
        <ele>788.41845703125</ele>
        <time>2016-05-22T10:09:33Z</time>
      </trkpt>
      <trkpt lat="45.59878" lon="6.75841">
        <ele>788.89916992188</ele>
        <time>2016-05-22T10:09:37Z</time>
      </trkpt>
      <trkpt lat="45.59889" lon="6.7587">
        <ele>789.37963867188</ele>
        <time>2016-05-22T10:09:41Z</time>
      </trkpt>
      <trkpt lat="45.59909" lon="6.7589">
        <ele>791.30224609375</ele>
        <time>2016-05-22T10:09:46Z</time>
      </trkpt>
      <trkpt lat="45.59914" lon="6.7589">
        <ele>791.30224609375</ele>
        <time>2016-05-22T10:09:47Z</time>
      </trkpt>
      <trkpt lat="45.59944" lon="6.75897">
        <ele>791.30224609375</ele>
        <time>2016-05-22T10:09:52Z</time>
      </trkpt>
      <trkpt lat="45.59955" lon="6.75908">
        <ele>791.30224609375</ele>
        <time>2016-05-22T10:09:54Z</time>
      </trkpt>
      <trkpt lat="45.59964" lon="6.75933">
        <ele>791.78295898438</ele>
        <time>2016-05-22T10:09:58Z</time>
      </trkpt>
      <trkpt lat="45.59972" lon="6.75945">
        <ele>792.74438476562</ele>
        <time>2016-05-22T10:10:01Z</time>
      </trkpt>
      <trkpt lat="45.59981" lon="6.75951">
        <ele>793.70556640625</ele>
        <time>2016-05-22T10:10:03Z</time>
      </trkpt>
      <trkpt lat="45.59996" lon="6.75964">
        <ele>792.74438476562</ele>
        <time>2016-05-22T10:10:06Z</time>
      </trkpt>
      <trkpt lat="45.60014" lon="6.75987">
        <ele>795.62817382812</ele>
        <time>2016-05-22T10:10:10Z</time>
      </trkpt>
      <trkpt lat="45.60023" lon="6.75998">
        <ele>793.22485351562</ele>
        <time>2016-05-22T10:10:12Z</time>
      </trkpt>
      <trkpt lat="45.60042" lon="6.7602">
        <ele>793.70556640625</ele>
        <time>2016-05-22T10:10:16Z</time>
      </trkpt>
      <trkpt lat="45.60063" lon="6.76061">
        <ele>794.18627929688</ele>
        <time>2016-05-22T10:10:22Z</time>
      </trkpt>
      <trkpt lat="45.6007" lon="6.76075">
        <ele>793.70556640625</ele>
        <time>2016-05-22T10:10:24Z</time>
      </trkpt>
      <trkpt lat="45.60075" lon="6.7611">
        <ele>794.66674804688</ele>
        <time>2016-05-22T10:10:28Z</time>
      </trkpt>
      <trkpt lat="45.60074" lon="6.76126">
        <ele>793.70556640625</ele>
        <time>2016-05-22T10:10:30Z</time>
      </trkpt>
      <trkpt lat="45.60077" lon="6.76186">
        <ele>793.22485351562</ele>
        <time>2016-05-22T10:10:38Z</time>
      </trkpt>
      <trkpt lat="45.60087" lon="6.76236">
        <ele>793.70556640625</ele>
        <time>2016-05-22T10:10:45Z</time>
      </trkpt>
      <trkpt lat="45.60091" lon="6.76253">
        <ele>793.70556640625</ele>
        <time>2016-05-22T10:10:48Z</time>
      </trkpt>
      <trkpt lat="45.60086" lon="6.76294">
        <ele>794.66674804688</ele>
        <time>2016-05-22T10:10:55Z</time>
      </trkpt>
      <trkpt lat="45.60085" lon="6.7633">
        <ele>794.18627929688</ele>
        <time>2016-05-22T10:11:01Z</time>
      </trkpt>
      <trkpt lat="45.60075" lon="6.76347">
        <ele>794.66674804688</ele>
        <time>2016-05-22T10:11:06Z</time>
      </trkpt>
      <trkpt lat="45.60058" lon="6.76371">
        <ele>794.66674804688</ele>
        <time>2016-05-22T10:11:12Z</time>
      </trkpt>
      <trkpt lat="45.60056" lon="6.7639">
        <ele>795.62817382812</ele>
        <time>2016-05-22T10:11:17Z</time>
      </trkpt>
      <trkpt lat="45.6006" lon="6.76413">
        <ele>796.10913085938</ele>
        <time>2016-05-22T10:11:22Z</time>
      </trkpt>
      <trkpt lat="45.60067" lon="6.76429">
        <ele>797.0703125</ele>
        <time>2016-05-22T10:11:27Z</time>
      </trkpt>
      <trkpt lat="45.60073" lon="6.76438">
        <ele>797.0703125</ele>
        <time>2016-05-22T10:11:32Z</time>
      </trkpt>
      <trkpt lat="45.60074" lon="6.7644">
        <ele>797.0703125</ele>
        <time>2016-05-22T10:11:33Z</time>
      </trkpt>
      <trkpt lat="45.60078" lon="6.7644">
        <ele>797.0703125</ele>
        <time>2016-05-22T10:11:39Z</time>
      </trkpt>
      <trkpt lat="45.60078" lon="6.76439">
        <ele>796.58984375</ele>
        <time>2016-05-22T10:11:41Z</time>
      </trkpt>
      <trkpt lat="45.60269" lon="6.76673">
        <ele>805.72216796875</ele>
        <time>2016-05-22T10:13:17Z</time>
      </trkpt>
      <trkpt lat="45.60276" lon="6.7666">
        <ele>806.20263671875</ele>
        <time>2016-05-22T10:13:18Z</time>
      </trkpt>
      <trkpt lat="45.60312" lon="6.76596">
        <ele>804.7607421875</ele>
        <time>2016-05-22T10:13:28Z</time>
      </trkpt>
      <trkpt lat="45.6033" lon="6.76592">
        <ele>806.20263671875</ele>
        <time>2016-05-22T10:13:32Z</time>
      </trkpt>
      <trkpt lat="45.60338" lon="6.76601">
        <ele>806.68334960938</ele>
        <time>2016-05-22T10:13:35Z</time>
      </trkpt>
      <trkpt lat="45.60357" lon="6.76634">
        <ele>808.60595703125</ele>
        <time>2016-05-22T10:13:44Z</time>
      </trkpt>
      <trkpt lat="45.60376" lon="6.76663">
        <ele>810.0478515625</ele>
        <time>2016-05-22T10:13:52Z</time>
      </trkpt>
      <trkpt lat="45.60402" lon="6.76705">
        <ele>812.45141601562</ele>
        <time>2016-05-22T10:14:03Z</time>
      </trkpt>
      <trkpt lat="45.60411" lon="6.76728">
        <ele>812.45141601562</ele>
        <time>2016-05-22T10:14:08Z</time>
      </trkpt>
      <trkpt lat="45.60413" lon="6.76733">
        <ele>812.93212890625</ele>
        <time>2016-05-22T10:14:09Z</time>
      </trkpt>
      <trkpt lat="45.60422" lon="6.76745">
        <ele>814.85473632812</ele>
        <time>2016-05-22T10:14:13Z</time>
      </trkpt>
      <trkpt lat="45.60441" lon="6.76753">
        <ele>815.33544921875</ele>
        <time>2016-05-22T10:14:19Z</time>
      </trkpt>
      <trkpt lat="45.60465" lon="6.76759">
        <ele>817.25805664062</ele>
        <time>2016-05-22T10:14:27Z</time>
      </trkpt>
      <trkpt lat="45.60493" lon="6.7677">
        <ele>818.69995117188</ele>
        <time>2016-05-22T10:14:36Z</time>
      </trkpt>
      <trkpt lat="45.60518" lon="6.76785">
        <ele>817.73852539062</ele>
        <time>2016-05-22T10:14:44Z</time>
      </trkpt>
      <trkpt lat="45.60553" lon="6.76816">
        <ele>817.25805664062</ele>
        <time>2016-05-22T10:14:56Z</time>
      </trkpt>
      <trkpt lat="45.60572" lon="6.7684">
        <ele>819.66137695312</ele>
        <time>2016-05-22T10:15:02Z</time>
      </trkpt>
      <trkpt lat="45.60599" lon="6.76884">
        <ele>816.77734375</ele>
        <time>2016-05-22T10:15:10Z</time>
      </trkpt>
      <trkpt lat="45.60608" lon="6.76917">
        <ele>816.77734375</ele>
        <time>2016-05-22T10:15:15Z</time>
      </trkpt>
      <trkpt lat="45.60608" lon="6.76924">
        <ele>818.21923828125</ele>
        <time>2016-05-22T10:15:16Z</time>
      </trkpt>
      <trkpt lat="45.60605" lon="6.76959">
        <ele>816.77734375</ele>
        <time>2016-05-22T10:15:20Z</time>
      </trkpt>
      <trkpt lat="45.60612" lon="6.77">
        <ele>817.73852539062</ele>
        <time>2016-05-22T10:15:25Z</time>
      </trkpt>
      <trkpt lat="45.60625" lon="6.77022">
        <ele>817.73852539062</ele>
        <time>2016-05-22T10:15:29Z</time>
      </trkpt>
      <trkpt lat="45.60646" lon="6.7704">
        <ele>817.73852539062</ele>
        <time>2016-05-22T10:15:35Z</time>
      </trkpt>
      <trkpt lat="45.60649" lon="6.77042">
        <ele>817.73852539062</ele>
        <time>2016-05-22T10:15:36Z</time>
      </trkpt>
      <trkpt lat="45.60683" lon="6.77054">
        <ele>819.66137695312</ele>
        <time>2016-05-22T10:15:45Z</time>
      </trkpt>
      <trkpt lat="45.60698" lon="6.77059">
        <ele>819.66137695312</ele>
        <time>2016-05-22T10:15:50Z</time>
      </trkpt>
      <trkpt lat="45.6071" lon="6.7706">
        <ele>818.69995117188</ele>
        <time>2016-05-22T10:15:56Z</time>
      </trkpt>
      <trkpt lat="45.60713" lon="6.77061">
        <ele>818.69995117188</ele>
        <time>2016-05-22T10:15:58Z</time>
      </trkpt>
      <trkpt lat="45.60715" lon="6.77059">
        <ele>818.21923828125</ele>
        <time>2016-05-22T10:16:01Z</time>
      </trkpt>
      <trkpt lat="45.60716" lon="6.77059">
        <ele>817.25805664062</ele>
        <time>2016-05-22T10:20:39Z</time>
      </trkpt>
      <trkpt lat="45.60716" lon="6.77059">
        <ele>817.73852539062</ele>
        <time>2016-05-22T10:20:40Z</time>
      </trkpt>
      <trkpt lat="45.60717" lon="6.77059">
        <ele>817.25805664062</ele>
        <time>2016-05-22T10:20:41Z</time>
      </trkpt>
      <trkpt lat="45.60717" lon="6.7706">
        <ele>818.21923828125</ele>
        <time>2016-05-22T10:20:42Z</time>
      </trkpt>
      <trkpt lat="45.60721" lon="6.77067">
        <ele>820.14184570312</ele>
        <time>2016-05-22T10:20:46Z</time>
      </trkpt>
      <trkpt lat="45.60726" lon="6.77071">
        <ele>819.66137695312</ele>
        <time>2016-05-22T10:20:49Z</time>
      </trkpt>
      <trkpt lat="45.60741" lon="6.77079">
        <ele>819.66137695312</ele>
        <time>2016-05-22T10:20:55Z</time>
      </trkpt>
      <trkpt lat="45.6075" lon="6.77085">
        <ele>822.064453125</ele>
        <time>2016-05-22T10:20:58Z</time>
      </trkpt>
      <trkpt lat="45.60768" lon="6.77098">
        <ele>819.66137695312</ele>
        <time>2016-05-22T10:21:03Z</time>
      </trkpt>
      <trkpt lat="45.60784" lon="6.77108">
        <ele>820.62255859375</ele>
        <time>2016-05-22T10:21:07Z</time>
      </trkpt>
      <trkpt lat="45.60813" lon="6.77121">
        <ele>821.10327148438</ele>
        <time>2016-05-22T10:21:14Z</time>
      </trkpt>
      <trkpt lat="45.60834" lon="6.77128">
        <ele>821.58374023438</ele>
        <time>2016-05-22T10:21:19Z</time>
      </trkpt>
      <trkpt lat="45.60839" lon="6.77129">
        <ele>824.4677734375</ele>
        <time>2016-05-22T10:21:20Z</time>
      </trkpt>
      <trkpt lat="45.60865" lon="6.77136">
        <ele>823.02587890625</ele>
        <time>2016-05-22T10:21:27Z</time>
      </trkpt>
      <trkpt lat="45.60872" lon="6.77138">
        <ele>821.10327148438</ele>
        <time>2016-05-22T10:21:29Z</time>
      </trkpt>
      <trkpt lat="45.60904" lon="6.77145">
        <ele>821.10327148438</ele>
        <time>2016-05-22T10:21:38Z</time>
      </trkpt>
      <trkpt lat="45.60914" lon="6.77148">
        <ele>823.98706054688</ele>
        <time>2016-05-22T10:21:41Z</time>
      </trkpt>
      <trkpt lat="45.60932" lon="6.77153">
        <ele>822.064453125</ele>
        <time>2016-05-22T10:21:47Z</time>
      </trkpt>
      <trkpt lat="45.60952" lon="6.7716">
        <ele>824.94848632812</ele>
        <time>2016-05-22T10:21:54Z</time>
      </trkpt>
      <trkpt lat="45.60971" lon="6.77169">
        <ele>824.94848632812</ele>
        <time>2016-05-22T10:22:01Z</time>
      </trkpt>
      <trkpt lat="45.60996" lon="6.77181">
        <ele>827.35180664062</ele>
        <time>2016-05-22T10:22:08Z</time>
      </trkpt>
      <trkpt lat="45.61035" lon="6.772">
        <ele>825.90966796875</ele>
        <time>2016-05-22T10:22:18Z</time>
      </trkpt>
      <trkpt lat="45.61072" lon="6.77224">
        <ele>823.98706054688</ele>
        <time>2016-05-22T10:22:28Z</time>
      </trkpt>
      <trkpt lat="45.61076" lon="6.77226">
        <ele>823.98706054688</ele>
        <time>2016-05-22T10:22:29Z</time>
      </trkpt>
      <trkpt lat="45.61105" lon="6.77248">
        <ele>823.50659179688</ele>
        <time>2016-05-22T10:22:37Z</time>
      </trkpt>
      <trkpt lat="45.61134" lon="6.77276">
        <ele>823.98706054688</ele>
        <time>2016-05-22T10:22:45Z</time>
      </trkpt>
      <trkpt lat="45.61161" lon="6.77307">
        <ele>825.42895507812</ele>
        <time>2016-05-22T10:22:53Z</time>
      </trkpt>
      <trkpt lat="45.61167" lon="6.77315">
        <ele>825.42895507812</ele>
        <time>2016-05-22T10:22:55Z</time>
      </trkpt>
      <trkpt lat="45.61163" lon="6.77336">
        <ele>822.54516601562</ele>
        <time>2016-05-22T10:22:59Z</time>
      </trkpt>
      <trkpt lat="45.61157" lon="6.77345">
        <ele>821.10327148438</ele>
        <time>2016-05-22T10:23:01Z</time>
      </trkpt>
      <trkpt lat="45.61148" lon="6.77361">
        <ele>823.50659179688</ele>
        <time>2016-05-22T10:23:05Z</time>
      </trkpt>
      <trkpt lat="45.61134" lon="6.77386">
        <ele>823.98706054688</ele>
        <time>2016-05-22T10:23:11Z</time>
      </trkpt>
      <trkpt lat="45.61131" lon="6.7739">
        <ele>824.4677734375</ele>
        <time>2016-05-22T10:23:12Z</time>
      </trkpt>
      <trkpt lat="45.61127" lon="6.77413">
        <ele>823.50659179688</ele>
        <time>2016-05-22T10:23:16Z</time>
      </trkpt>
      <trkpt lat="45.61134" lon="6.77435">
        <ele>825.42895507812</ele>
        <time>2016-05-22T10:23:20Z</time>
      </trkpt>
      <trkpt lat="45.61152" lon="6.77461">
        <ele>828.31323242188</ele>
        <time>2016-05-22T10:23:26Z</time>
      </trkpt>
      <trkpt lat="45.61166" lon="6.77482">
        <ele>826.39038085938</ele>
        <time>2016-05-22T10:23:30Z</time>
      </trkpt>
      <trkpt lat="45.61169" lon="6.77488">
        <ele>826.39038085938</ele>
        <time>2016-05-22T10:23:31Z</time>
      </trkpt>
      <trkpt lat="45.61186" lon="6.77538">
        <ele>824.94848632812</ele>
        <time>2016-05-22T10:23:39Z</time>
      </trkpt>
      <trkpt lat="45.61188" lon="6.77544">
        <ele>825.90966796875</ele>
        <time>2016-05-22T10:23:40Z</time>
      </trkpt>
      <trkpt lat="45.61191" lon="6.77562">
        <ele>823.02587890625</ele>
        <time>2016-05-22T10:23:43Z</time>
      </trkpt>
      <trkpt lat="45.61197" lon="6.77603">
        <ele>819.66137695312</ele>
        <time>2016-05-22T10:23:50Z</time>
      </trkpt>
      <trkpt lat="45.612" lon="6.77621">
        <ele>820.14184570312</ele>
        <time>2016-05-22T10:23:53Z</time>
      </trkpt>
      <trkpt lat="45.61204" lon="6.7764">
        <ele>821.10327148438</ele>
        <time>2016-05-22T10:23:56Z</time>
      </trkpt>
      <trkpt lat="45.61208" lon="6.77651">
        <ele>820.62255859375</ele>
        <time>2016-05-22T10:23:58Z</time>
      </trkpt>
      <trkpt lat="45.61219" lon="6.77671">
        <ele>820.62255859375</ele>
        <time>2016-05-22T10:24:02Z</time>
      </trkpt>
      <trkpt lat="45.61247" lon="6.77694">
        <ele>821.58374023438</ele>
        <time>2016-05-22T10:24:09Z</time>
      </trkpt>
      <trkpt lat="45.6128" lon="6.77706">
        <ele>821.10327148438</ele>
        <time>2016-05-22T10:24:16Z</time>
      </trkpt>
      <trkpt lat="45.61317" lon="6.77716">
        <ele>823.50659179688</ele>
        <time>2016-05-22T10:24:24Z</time>
      </trkpt>
      <trkpt lat="45.61321" lon="6.77718">
        <ele>823.50659179688</ele>
        <time>2016-05-22T10:24:25Z</time>
      </trkpt>
      <trkpt lat="45.6136" lon="6.7774">
        <ele>822.064453125</ele>
        <time>2016-05-22T10:24:34Z</time>
      </trkpt>
      <trkpt lat="45.6139" lon="6.77767">
        <ele>822.54516601562</ele>
        <time>2016-05-22T10:24:41Z</time>
      </trkpt>
      <trkpt lat="45.6142" lon="6.77814">
        <ele>823.02587890625</ele>
        <time>2016-05-22T10:24:50Z</time>
      </trkpt>
      <trkpt lat="45.61422" lon="6.77819">
        <ele>823.50659179688</ele>
        <time>2016-05-22T10:24:51Z</time>
      </trkpt>
      <trkpt lat="45.61428" lon="6.77849">
        <ele>823.50659179688</ele>
        <time>2016-05-22T10:24:56Z</time>
      </trkpt>
      <trkpt lat="45.61429" lon="6.77899">
        <ele>823.98706054688</ele>
        <time>2016-05-22T10:25:04Z</time>
      </trkpt>
      <trkpt lat="45.61429" lon="6.77905">
        <ele>823.98706054688</ele>
        <time>2016-05-22T10:25:05Z</time>
      </trkpt>
      <trkpt lat="45.61433" lon="6.77929">
        <ele>825.42895507812</ele>
        <time>2016-05-22T10:25:09Z</time>
      </trkpt>
      <trkpt lat="45.61437" lon="6.7794">
        <ele>823.98706054688</ele>
        <time>2016-05-22T10:25:11Z</time>
      </trkpt>
      <trkpt lat="45.61458" lon="6.77982">
        <ele>824.94848632812</ele>
        <time>2016-05-22T10:25:19Z</time>
      </trkpt>
      <trkpt lat="45.6147" lon="6.78026">
        <ele>824.4677734375</ele>
        <time>2016-05-22T10:25:26Z</time>
      </trkpt>
      <trkpt lat="45.6148" lon="6.78068">
        <ele>823.98706054688</ele>
        <time>2016-05-22T10:25:32Z</time>
      </trkpt>
      <trkpt lat="45.61508" lon="6.78119">
        <ele>822.54516601562</ele>
        <time>2016-05-22T10:25:40Z</time>
      </trkpt>
      <trkpt lat="45.61527" lon="6.7816">
        <ele>823.02587890625</ele>
        <time>2016-05-22T10:25:46Z</time>
      </trkpt>
      <trkpt lat="45.6153" lon="6.78167">
        <ele>823.50659179688</ele>
        <time>2016-05-22T10:25:47Z</time>
      </trkpt>
      <trkpt lat="45.61536" lon="6.78222">
        <ele>822.54516601562</ele>
        <time>2016-05-22T10:25:54Z</time>
      </trkpt>
      <trkpt lat="45.61538" lon="6.7823">
        <ele>823.98706054688</ele>
        <time>2016-05-22T10:25:55Z</time>
      </trkpt>
      <trkpt lat="45.61556" lon="6.78279">
        <ele>823.02587890625</ele>
        <time>2016-05-22T10:26:01Z</time>
      </trkpt>
      <trkpt lat="45.61579" lon="6.78332">
        <ele>823.98706054688</ele>
        <time>2016-05-22T10:26:08Z</time>
      </trkpt>
      <trkpt lat="45.61591" lon="6.78378">
        <ele>824.4677734375</ele>
        <time>2016-05-22T10:26:14Z</time>
      </trkpt>
      <trkpt lat="45.61608" lon="6.78419">
        <ele>824.4677734375</ele>
        <time>2016-05-22T10:26:21Z</time>
      </trkpt>
      <trkpt lat="45.61612" lon="6.78429">
        <ele>824.94848632812</ele>
        <time>2016-05-22T10:26:23Z</time>
      </trkpt>
      <trkpt lat="45.61625" lon="6.78461">
        <ele>825.42895507812</ele>
        <time>2016-05-22T10:26:29Z</time>
      </trkpt>
      <trkpt lat="45.61637" lon="6.78497">
        <ele>827.35180664062</ele>
        <time>2016-05-22T10:26:34Z</time>
      </trkpt>
      <trkpt lat="45.61655" lon="6.78548">
        <ele>826.39038085938</ele>
        <time>2016-05-22T10:26:41Z</time>
      </trkpt>
      <trkpt lat="45.61663" lon="6.78571">
        <ele>827.35180664062</ele>
        <time>2016-05-22T10:26:44Z</time>
      </trkpt>
      <trkpt lat="45.61683" lon="6.78631">
        <ele>831.197265625</ele>
        <time>2016-05-22T10:26:52Z</time>
      </trkpt>
      <trkpt lat="45.61689" lon="6.78651">
        <ele>827.35180664062</ele>
        <time>2016-05-22T10:26:55Z</time>
      </trkpt>
      <trkpt lat="45.61694" lon="6.78663">
        <ele>825.42895507812</ele>
        <time>2016-05-22T10:26:57Z</time>
      </trkpt>
      <trkpt lat="45.61703" lon="6.78686">
        <ele>826.39038085938</ele>
        <time>2016-05-22T10:27:01Z</time>
      </trkpt>
      <trkpt lat="45.61723" lon="6.78719">
        <ele>829.75512695312</ele>
        <time>2016-05-22T10:27:08Z</time>
      </trkpt>
      <trkpt lat="45.61727" lon="6.78727">
        <ele>822.54516601562</ele>
        <time>2016-05-22T10:27:10Z</time>
      </trkpt>
      <trkpt lat="45.6173" lon="6.78731">
        <ele>822.54516601562</ele>
        <time>2016-05-22T10:27:11Z</time>
      </trkpt>
      <trkpt lat="45.6175" lon="6.78762">
        <ele>823.98706054688</ele>
        <time>2016-05-22T10:27:19Z</time>
      </trkpt>
      <trkpt lat="45.61769" lon="6.78787">
        <ele>823.50659179688</ele>
        <time>2016-05-22T10:27:26Z</time>
      </trkpt>
      <trkpt lat="45.61771" lon="6.78791">
        <ele>823.50659179688</ele>
        <time>2016-05-22T10:27:27Z</time>
      </trkpt>
      <trkpt lat="45.6177" lon="6.78813">
        <ele>823.98706054688</ele>
        <time>2016-05-22T10:27:31Z</time>
      </trkpt>
      <trkpt lat="45.61766" lon="6.7884">
        <ele>824.94848632812</ele>
        <time>2016-05-22T10:27:36Z</time>
      </trkpt>
      <trkpt lat="45.61772" lon="6.78849">
        <ele>824.4677734375</ele>
        <time>2016-05-22T10:27:38Z</time>
      </trkpt>
      <trkpt lat="45.61797" lon="6.78864">
        <ele>823.98706054688</ele>
        <time>2016-05-22T10:27:45Z</time>
      </trkpt>
      <trkpt lat="45.61815" lon="6.78866">
        <ele>824.94848632812</ele>
        <time>2016-05-22T10:27:50Z</time>
      </trkpt>
      <trkpt lat="45.61822" lon="6.78866">
        <ele>823.50659179688</ele>
        <time>2016-05-22T10:27:53Z</time>
      </trkpt>
    </trkseg>
  </trk>
</gpx>